[[{"header":{"parameterUnit":"m.s-1","parameterCategory":1,"la1":30.6,"la2":29.2853,"lo1":-89.7004,"lo2":-87.6739,"dy":0.0162,"dx":0.0183,"nx":112,"ny":82,"refTime":"2024-07-20T18:00:00:Z","depth":0,"parameterNumber":2,"parameterNumberName":"U-component_of_WINDS"},"data":[0.0,0.0,0.0,0.0,0.0,0.0,0.0,0.0,0.0,0.0,0.0,0.0,0.0,0.0,0.0,0.0,0.0,0.0,0.0,0.0,0.0,0.0,0.0,0.0,0.0,0.0,0.0,0.0,0.0,0.0,0.0,0.0,0.0,0.0,0.0,0.0,0.0,0.0,0.0,0.0,0.0,0.0,0.0,0.0,0.0,0.0,0.0,0.0,0.0,0.0,0.0,0.0,0.0,0.0,0.0,0.0,0.0,0.0,0.0,0.0,0.0,0.0,0.0,0.0,0.0,0.0,0.0,0.0,0.0,0.0,0.0,0.0,0.0,0.0,0.0,0.0,0.0,0.0,0.0,0.0,0.0,0.0,0.0,0.0,0.0,0.0,0.0,0.0,0.0,0.0,-2.1043,-2.2985,-2.4447,-2.5201,-2.4929,-2.4157,-2.3205,-2.2083,0.0,0.0,0.0,0.0,0.0,0.0,0.0,0.0,0.0,0.0,0.0,0.0,0.0,0.0,0.0,0.0,0.0,0.0,0.0,0.0,0.0,0.0,0.0,0.0,0.0,0.0,0.0,0.0,0.0,0.0,0.0,0.0,0.0,0.0,0.0,0.0,0.0,0.0,0.0,0.0,0.0,0.0,0.0,0.0,0.0,0.0,0.0,0.0,0.0,0.0,0.0,0.0,0.0,0.0,0.0,0.0,0.0,0.0,0.0,0.0,0.0,0.0,0.0,0.0,0.0,0.0,0.0,0.0,0.0,0.0,0.0,0.0,0.0,0.0,0.0,0.0,0.0,0.0,0.0,0.0,0.0,0.0,0.0,0.0,0.0,0.0,0.0,0.0,0.0,0.0,0.0,0.0,0.0,0.0,0.0,0.0,0.0,0.0,0.0,0.0,0.0,0.0,0.0,0.0,-2.1485,-2.4591,-2.5149,-2.5201,-2.4929,-2.4157,-2.3205,-2.2083,0.0,0.0,0.0,0.0,0.0,0.0,0.0,0.0,0.0,0.0,0.0,0.0,0.0,0.0,0.0,0.0,0.0,0.0,0.0,0.0,0.0,0.0,0.0,0.0,0.0,0.0,0.0,0.0,0.0,0.0,0.0,0.0,0.0,0.0,0.0,0.0,0.0,0.0,0.0,0.0,0.0,0.0,0.0,0.0,0.0,0.0,0.0,0.0,0.0,0.0,0.0,0.0,0.0,0.0,0.0,0.0,0.0,0.0,0.0,0.0,0.0,0.0,0.0,0.0,0.0,0.0,0.0,0.0,0.0,0.0,0.0,0.0,0.0,0.0,0.0,0.0,0.0,0.0,0.0,0.0,0.0,0.0,0.0,0.0,0.0,0.0,0.0,0.0,0.0,0.0,0.0,0.0,0.0,0.0,0.0,0.0,0.0,0.0,0.0,0.0,0.0,0.0,0.0,-2.0664,-2.1673,-2.3726,-2.437,-2.4349,-2.3619,-2.281,-2.2054,-2.1395,-1.9012,0.0,0.0,0.0,0.0,0.0,0.0,0.0,0.0,0.0,0.0,0.0,0.0,0.0,0.0,0.0,0.0,0.0,0.0,0.0,0.0,0.0,0.0,0.0,0.0,0.0,0.0,0.0,0.0,0.0,0.0,0.0,0.0,0.0,0.0,0.0,0.0,0.0,0.0,0.0,0.0,0.0,0.0,0.0,0.0,0.0,0.0,0.0,0.0,0.0,0.0,0.0,0.0,0.0,0.0,0.0,0.0,0.0,0.0,0.0,0.0,0.0,0.0,0.0,0.0,0.0,0.0,0.0,0.0,0.0,0.0,0.0,0.0,0.0,0.0,0.0,0.0,0.0,0.0,0.0,0.0,0.0,0.0,0.0,0.0,0.0,0.0,0.0,0.0,0.0,0.0,0.0,0.0,0.0,0.0,0.0,0.0,0.0,0.0,0.0,0.0,0.0,0.0,-2.1385,-2.2009,-2.2716,-2.338,-2.3389,-2.2469,-2.146,-2.0765,-2.054,-1.8191,0.0,0.0,0.0,0.0,0.0,0.0,0.0,0.0,0.0,0.0,0.0,0.0,0.0,0.0,0.0,0.0,0.0,0.0,0.0,0.0,0.0,0.0,0.0,0.0,0.0,0.0,0.0,0.0,0.0,0.0,0.0,0.0,0.0,0.0,0.0,0.0,0.0,0.0,0.0,0.0,0.0,0.0,0.0,0.0,0.0,0.0,0.0,0.0,0.0,0.0,0.0,0.0,0.0,0.0,0.0,0.0,0.0,0.0,0.0,0.0,0.0,0.0,0.0,0.0,0.0,0.0,0.0,0.0,0.0,0.0,0.0,0.0,0.0,0.0,0.0,0.0,0.0,0.0,0.0,0.0,0.0,0.0,0.0,0.0,0.0,0.0,0.0,0.0,0.0,0.0,0.0,0.0,0.0,0.0,0.0,0.0,0.0,0.0,0.0,0.0,0.0,0.0,-2.1235,-2.2735,-2.2793,-2.2738,-2.2618,-2.2431,-2.0859,-1.9851,-1.969,-1.7356,0.0,0.0,0.0,0.0,0.0,0.0,0.0,0.0,0.0,0.0,0.0,0.0,0.0,0.0,0.0,0.0,0.0,0.0,0.0,0.0,0.0,0.0,0.0,0.0,0.0,0.0,0.0,0.0,0.0,0.0,0.0,0.0,0.0,0.0,0.0,0.0,0.0,0.0,0.0,0.0,0.0,0.0,0.0,0.0,0.0,0.0,0.0,0.0,0.0,0.0,0.0,0.0,0.0,0.0,0.0,0.0,0.0,0.0,0.0,0.0,0.0,0.0,0.0,0.0,0.0,0.0,0.0,0.0,0.0,0.0,0.0,0.0,0.0,0.0,0.0,0.0,0.0,0.0,0.0,0.0,0.0,0.0,0.0,0.0,0.0,0.0,0.0,0.0,0.0,0.0,0.0,0.0,0.0,0.0,0.0,0.0,0.0,0.0,0.0,0.0,0.0,0.0,-1.989,-2.1154,-2.1227,-2.1652,-2.1618,-2.0895,-2.0244,-1.9562,-1.8835,0.0,0.0,0.0,0.0,0.0,0.0,0.0,0.0,0.0,0.0,0.0,0.0,0.0,0.0,0.0,0.0,0.0,0.0,0.0,0.0,0.0,0.0,0.0,0.0,0.0,0.0,0.0,0.0,0.0,0.0,0.0,0.0,0.0,0.0,0.0,0.0,0.0,0.0,0.0,0.0,0.0,0.0,0.0,0.0,0.0,0.0,0.0,0.0,0.0,0.0,0.0,0.0,0.0,0.0,0.0,0.0,0.0,0.0,0.0,0.0,0.0,0.0,0.0,0.0,0.0,0.0,0.0,0.0,0.0,0.0,0.0,0.0,0.0,0.0,0.0,0.0,0.0,0.0,0.0,0.0,0.0,0.0,0.0,0.0,0.0,0.0,0.0,0.0,0.0,0.0,0.0,0.0,0.0,0.0,0.0,0.0,0.0,0.0,0.0,0.0,0.0,0.0,-1.7524,-1.9107,-2.0195,-2.0285,-2.0724,-2.0709,-1.9966,-1.9594,-1.8969,-1.7981,0.0,0.0,0.0,0.0,0.0,0.0,0.0,0.0,0.0,0.0,0.0,0.0,0.0,0.0,0.0,0.0,0.0,0.0,0.0,0.0,0.0,0.0,0.0,0.0,0.0,0.0,0.0,0.0,0.0,0.0,0.0,0.0,0.0,0.0,0.0,0.0,0.0,0.0,0.0,0.0,0.0,0.0,0.0,0.0,0.0,0.0,0.0,0.0,0.0,0.0,0.0,0.0,0.0,0.0,0.0,0.0,0.0,0.0,0.0,0.0,0.0,0.0,0.0,0.0,0.0,0.0,0.0,0.0,0.0,0.0,0.0,0.0,0.0,0.0,0.0,0.0,0.0,0.0,0.0,0.0,0.0,0.0,0.0,0.0,0.0,0.0,0.0,0.0,0.0,0.0,0.0,0.0,0.0,0.0,0.0,0.0,0.0,0.0,0.0,0.0,0.0,0.0,-1.7608,-1.9181,-2.0296,-2.0292,-2.006,-1.9888,-1.9907,-1.8933,-1.7968,0.0,0.0,0.0,0.0,0.0,0.0,0.0,0.0,0.0,0.0,0.0,0.0,0.0,0.0,0.0,0.0,0.0,0.0,0.0,0.0,0.0,0.0,0.0,0.0,0.0,0.0,0.0,0.0,0.0,0.0,0.0,0.0,0.0,0.0,0.0,0.0,0.0,0.0,0.0,0.0,0.0,0.0,0.0,0.0,0.0,0.0,0.0,0.0,0.0,0.0,0.0,0.0,0.0,0.0,0.0,0.0,0.0,0.0,0.0,0.0,0.0,0.0,0.0,0.0,0.0,0.0,0.0,0.0,0.0,0.0,0.0,0.0,0.0,0.0,0.0,0.0,0.0,0.0,0.0,0.0,0.0,0.0,0.0,0.0,0.0,0.0,0.0,0.0,0.0,0.0,0.0,0.0,0.0,0.0,0.0,0.0,0.0,0.0,0.0,0.0,0.0,0.0,0.0,-1.7604,-1.9177,-2.0299,-2.0296,-2.0133,-2.0002,-1.9918,-1.9512,-1.8647,-1.7188,0.0,0.0,0.0,0.0,0.0,0.0,0.0,0.0,0.0,0.0,0.0,0.0,0.0,0.0,0.0,0.0,0.0,0.0,0.0,0.0,0.0,0.0,0.0,0.0,0.0,0.0,0.0,0.0,0.0,0.0,0.0,0.0,0.0,0.0,0.0,0.0,0.0,0.0,0.0,0.0,0.0,0.0,0.0,0.0,0.0,0.0,0.0,0.0,0.0,0.0,0.0,0.0,0.0,0.0,0.0,0.0,0.0,0.0,0.0,0.0,0.0,0.0,0.0,0.0,0.0,0.0,0.0,0.0,0.0,0.0,0.0,0.0,0.0,0.0,0.0,0.0,0.0,0.0,0.0,0.0,0.0,0.0,0.0,0.0,0.0,0.0,0.0,0.0,0.0,0.0,0.0,0.0,0.0,0.0,0.0,0.0,0.0,0.0,0.0,0.0,0.0,0.0,-1.7573,-1.915,-2.0306,-2.0304,-2.0178,-2.005,-1.9899,-1.9774,-1.9089,-1.7684,0.0,0.0,0.0,0.0,0.0,0.0,0.0,0.0,0.0,0.0,0.0,0.0,0.0,0.0,0.0,0.0,0.0,0.0,0.0,0.0,0.0,0.0,0.0,0.0,0.0,0.0,0.0,0.0,0.0,0.0,0.0,0.0,0.0,0.0,0.0,0.0,0.0,0.0,0.0,0.0,0.0,0.0,0.0,0.0,0.0,0.0,0.0,0.0,0.0,0.0,0.0,0.0,0.0,0.0,0.0,0.0,0.0,0.0,0.0,0.0,0.0,0.0,0.0,0.0,0.0,0.0,0.0,0.0,0.0,0.0,0.0,0.0,0.0,0.0,0.0,0.0,0.0,0.0,0.0,0.0,0.0,0.0,0.0,0.0,0.0,0.0,0.0,0.0,0.0,0.0,0.0,0.0,0.0,0.0,0.0,0.0,0.0,0.0,0.0,0.0,0.0,0.0,-1.7638,-1.9193,-2.0313,-2.0292,-2.0169,-2.005,-1.9899,-1.9762,-1.9288,-1.8358,0.0,0.0,0.0,0.0,0.0,0.0,0.0,0.0,0.0,0.0,0.0,0.0,0.0,0.0,0.0,0.0,0.0,0.0,0.0,0.0,0.0,0.0,0.0,0.0,0.0,0.0,0.0,0.0,0.0,0.0,0.0,0.0,0.0,0.0,0.0,0.0,0.0,0.0,0.0,0.0,0.0,0.0,0.0,0.0,0.0,0.0,0.0,0.0,0.0,0.0,0.0,0.0,0.0,0.0,0.0,0.0,0.0,0.0,0.0,0.0,-1.9333,0.0,0.0,0.0,0.0,0.0,0.0,0.0,0.0,0.0,0.0,0.0,0.0,0.0,0.0,0.0,0.0,0.0,0.0,0.0,0.0,0.0,0.0,0.0,0.0,0.0,0.0,0.0,0.0,0.0,0.0,0.0,0.0,0.0,0.0,0.0,0.0,0.0,0.0,0.0,0.0,0.0,-1.8524,-1.9649,-2.0366,-2.0314,-2.0122,-1.9982,-1.9912,-1.9738,-1.9252,-1.8358,-1.8135,0.0,0.0,0.0,0.0,0.0,0.0,0.0,0.0,0.0,0.0,0.0,0.0,0.0,0.0,0.0,0.0,0.0,0.0,0.0,0.0,0.0,0.0,0.0,0.0,0.0,0.0,0.0,0.0,0.0,0.0,0.0,0.0,0.0,0.0,0.0,0.0,0.0,0.0,0.0,0.0,0.0,0.0,0.0,0.0,0.0,0.0,0.0,0.0,0.0,0.0,0.0,0.0,0.0,0.0,0.0,0.0,0.0,0.0,0.0,0.0,-2.0468,0.0,0.0,0.0,0.0,0.0,0.0,0.0,0.0,0.0,0.0,0.0,0.0,0.0,0.0,0.0,0.0,0.0,0.0,0.0,0.0,0.0,0.0,0.0,0.0,0.0,0.0,0.0,0.0,0.0,0.0,0.0,0.0,0.0,0.0,0.0,0.0,0.0,0.0,0.0,0.0,-1.8748,-1.9738,-2.0334,-2.0308,-2.0215,-2.0078,-1.9914,-1.9809,-1.9513,-1.8965,-1.8525,0.0,0.0,0.0,0.0,0.0,0.0,0.0,0.0,0.0,0.0,0.0,0.0,0.0,0.0,0.0,0.0,0.0,0.0,0.0,0.0,0.0,0.0,0.0,0.0,0.0,0.0,0.0,0.0,0.0,0.0,0.0,0.0,0.0,0.0,0.0,0.0,0.0,0.0,0.0,0.0,0.0,0.0,0.0,0.0,0.0,0.0,0.0,0.0,0.0,0.0,0.0,0.0,0.0,-2.3707,-2.3703,-2.3553,-2.3547,-2.354,-2.3503,-2.2791,-2.2715,-2.3007,-2.1655,0.0,0.0,0.0,0.0,0.0,0.0,0.0,0.0,0.0,0.0,0.0,0.0,0.0,0.0,0.0,0.0,0.0,0.0,0.0,0.0,0.0,0.0,0.0,0.0,-2.3081,-2.2303,-1.9409,0.0,0.0,0.0,0.0,0.0,0.0,0.0,0.0,0.0,0.0,0.0,-1.896,-1.98,-2.0328,-2.0328,-2.0268,-2.0156,-1.9934,-1.989,-1.9786,-1.9625,-1.8928,-1.8538,0.0,0.0,0.0,0.0,0.0,0.0,0.0,0.0,0.0,0.0,0.0,0.0,0.0,0.0,0.0,0.0,0.0,0.0,0.0,0.0,0.0,0.0,0.0,0.0,0.0,0.0,0.0,0.0,0.0,0.0,0.0,0.0,-1.7894,-1.8766,0.0,0.0,0.0,0.0,0.0,0.0,0.0,0.0,0.0,0.0,0.0,0.0,0.0,-2.3239,-2.4219,-2.498,-2.5369,-2.5362,-2.6121,-2.6099,-2.5359,-2.5356,-2.5356,-2.5356,-2.524,0.0,-2.3144,-2.3651,0.0,0.0,0.0,0.0,0.0,0.0,0.0,0.0,0.0,0.0,0.0,0.0,0.0,0.0,0.0,0.0,0.0,0.0,0.0,0.0,0.0,0.0,-2.3726,-2.3157,-2.3068,-2.2964,0.0,-2.1818,-2.0889,-1.9246,-1.8918,0.0,0.0,0.0,0.0,0.0,0.0,0.0,-1.9915,-2.0229,-2.0399,-2.0399,-2.0192,-2.0031,-1.9984,-1.9828,-1.9725,-1.9692,-1.9535,-1.9433,-1.9433,-1.8594,0.0,0.0,0.0,0.0,0.0,0.0,0.0,0.0,0.0,0.0,0.0,0.0,0.0,0.0,0.0,0.0,0.0,0.0,0.0,0.0,0.0,0.0,0.0,0.0,0.0,0.0,0.0,0.0,0.0,-1.7618,-1.8824,-1.9212,-1.971,-1.9832,0.0,0.0,0.0,0.0,0.0,0.0,0.0,0.0,0.0,-2.4511,-2.4569,-2.5212,-2.6576,-2.6965,-2.7157,-2.7171,-2.7542,-2.7522,-2.7132,-2.6644,-2.6429,-2.639,-2.5902,-2.5263,-2.4547,-2.4433,-2.3924,-2.3129,0.0,0.0,0.0,0.0,-2.2091,-2.2496,-2.3023,-2.3212,-2.3147,-2.2754,0.0,0.0,0.0,0.0,0.0,0.0,0.0,0.0,0.0,0.0,-2.4326,-2.4429,-2.4479,-2.4482,-2.4414,-2.4111,-2.3326,0.0,-2.1243,-2.0791,-1.9445,0.0,0.0,0.0,0.0,-2.0082,-2.0776,-2.1008,-2.1107,-2.1027,-2.0469,-2.0078,-1.9952,-1.9851,-1.9782,-1.9699,-1.9673,-1.9641,-1.9596,-1.9234,-1.8811,0.0,0.0,0.0,0.0,0.0,0.0,0.0,0.0,0.0,0.0,0.0,0.0,0.0,0.0,0.0,0.0,0.0,0.0,0.0,0.0,0.0,0.0,0.0,0.0,0.0,0.0,0.0,0.0,-1.8693,-1.9942,-1.994,-2.0902,-2.1237,0.0,0.0,0.0,0.0,0.0,0.0,-2.2457,-2.3298,-2.4468,-2.598,-2.6253,-2.7093,-2.8615,-2.8635,-2.8635,-2.8635,-2.8635,-2.8518,-2.8283,-2.762,-2.7327,-2.7308,-2.6644,-2.6234,-2.5963,-2.5094,-2.4609,-2.4336,-2.3626,-2.3203,-2.3035,-2.3259,-2.3338,-2.3458,-2.4329,-2.4627,-2.4632,-2.4623,-2.4049,-2.3212,-2.2565,0.0,0.0,0.0,0.0,-2.3449,-2.4309,-2.4552,-2.4724,-2.5406,-2.5576,-2.5552,-2.5511,-2.5493,-2.5021,0.0,-2.3237,-2.2745,-2.1241,0.0,0.0,0.0,0.0,-2.1215,-2.1721,-2.1917,-2.1977,-2.1868,-2.1227,-2.067,-2.0302,-2.0225,-2.0037,-1.9744,-1.9699,-1.9673,-1.9628,-1.9601,-1.9276,-1.8655,0.0,0.0,0.0,0.0,0.0,0.0,0.0,0.0,0.0,0.0,0.0,0.0,0.0,0.0,0.0,0.0,0.0,0.0,0.0,0.0,0.0,0.0,0.0,0.0,0.0,0.0,0.0,0.0,0.0,-2.1669,-2.3176,0.0,0.0,0.0,0.0,-2.2917,-2.2995,-2.3405,-2.4223,-2.5102,-2.5982,-2.6919,-2.7737,-2.8615,-2.9533,-2.9533,-2.9533,-2.9533,-2.9533,-2.9103,-2.8303,-2.8244,-2.8225,-2.8225,-2.8186,-2.7698,-2.688,-2.5982,-2.5151,-2.4394,-2.4355,-2.3776,-2.3097,-2.3937,-2.4235,-2.435,-2.523,-2.5525,-2.5531,-2.5524,-2.4948,-2.4227,-2.4183,-2.354,0.0,0.0,-2.4203,-2.4416,-2.5232,-2.5484,-2.5537,-2.5517,-2.5518,-2.5511,-2.5495,-2.5445,-2.5147,0.0,-2.4118,-2.384,-2.2936,0.0,-2.2697,-2.2697,-2.2736,-2.2782,-2.2815,-2.2823,-2.2842,-2.2823,-2.2612,-2.2171,-2.1397,-2.1088,-2.0627,-1.9832,-1.9744,-1.9686,-1.9705,-1.9638,-1.9564,-1.9527,-1.8729,0.0,0.0,0.0,0.0,0.0,0.0,0.0,0.0,0.0,0.0,0.0,0.0,0.0,0.0,0.0,0.0,0.0,0.0,0.0,0.0,0.0,0.0,0.0,0.0,0.0,0.0,0.0,0.0,-2.2572,-2.3671,0.0,-2.3189,-2.3618,-2.3948,-2.3948,-2.4458,-2.5141,-2.6039,-2.6371,-2.7192,-2.8637,-2.8967,-2.9533,-3.0353,-3.0372,-3.0372,-3.0372,-3.0372,-3.0216,-2.9884,-2.9377,-2.9142,-2.9103,-2.8537,-2.8127,-2.7815,-2.7503,-2.6531,-2.5247,-2.5247,-2.5038,-2.4784,-2.5096,-2.5162,-2.5171,-2.5492,-2.5576,-2.5529,-2.5544,-2.5324,-2.5071,-2.5071,-2.4837,-2.4648,-2.4987,-2.5071,-2.5149,-2.5432,-2.5511,-2.5538,-2.5507,-2.5495,-2.5503,-2.5499,-2.5484,-2.5387,-2.5085,-2.5004,-2.4706,-2.3871,-2.3729,-2.3555,-2.2989,-2.3376,-2.3744,-2.3732,-2.3744,-2.3678,-2.3496,-2.2917,-2.2346,-2.189,-2.1277,-2.0843,-2.0594,-2.0012,-1.9686,-1.9686,-1.9633,-1.9592,-1.9602,-1.9295,-1.8745,0.0,0.0,0.0,0.0,0.0,0.0,0.0,0.0,0.0,0.0,0.0,0.0,0.0,0.0,0.0,0.0,0.0,0.0,0.0,0.0,0.0,0.0,0.0,0.0,0.0,-2.1779,-2.275,-2.305,-2.4126,-2.4614,-2.4028,-2.477,-2.5395,-2.5685,-2.6253,-2.6839,-2.7405,-2.7719,-2.8403,-2.9554,-2.9865,-3.0255,-3.0782,-3.0801,-3.0801,-3.0801,-3.0801,-3.0801,-3.0782,-3.0255,-3.0001,-2.9962,-2.9396,-2.8986,-2.8732,-2.8732,-2.7874,-2.6546,-2.6253,-2.5968,-2.5701,-2.5663,-2.5633,-2.56,-2.5576,-2.5537,-2.5498,-2.5499,-2.5511,-2.5511,-2.5511,-2.5511,-2.5511,-2.5511,-2.5511,-2.5511,-2.5511,-2.5511,-2.5511,-2.5511,-2.5511,-2.5511,-2.5511,-2.5511,-2.5511,-2.5511,-2.5468,-2.5266,-2.473,-2.4652,-2.4432,-2.3867,-2.4273,-2.4641,-2.4641,-2.4625,-2.4549,-2.4369,-2.3744,-2.3164,-2.2698,-2.1836,-2.1213,-2.1012,-2.018,-1.9699,-1.9694,-1.9641,-1.9601,-1.9611,-1.9348,-1.9114,-1.8875,0.0,0.0,0.0,0.0,0.0,0.0,0.0,0.0,0.0,0.0,0.0,0.0,0.0,0.0,0.0,0.0,0.0,0.0,0.0,0.0,0.0,0.0,0.0,-2.0604,-2.2737,-2.4014,-2.3263,-2.4672,-2.5707,-2.5746,-2.6507,-2.7366,-2.8225,-2.8303,-2.8303,-2.8342,-2.9142,-2.9613,-2.963,-3.0392,-3.0801,-3.0801,-3.0801,-3.0801,-3.0801,-3.0801,-3.0801,-3.0801,-3.0801,-3.0801,-3.0801,-3.0801,-3.0353,-2.963,-2.963,-2.9123,-2.8244,-2.7386,-2.6519,-2.5722,-2.567,-2.5623,-2.5595,-2.5531,-2.5505,-2.5495,-2.5499,-2.5511,-2.5511,-2.5511,-2.5511,-2.5511,-2.5511,-2.5511,-2.5511,-2.5511,-2.5511,-2.5511,-2.5511,-2.5511,-2.5511,-2.5511,-2.5511,-2.5511,-2.5511,-2.5511,-2.5511,-2.5511,-2.5511,-2.5511,-2.5511,-2.5511,0.0,-2.5511,-2.5429,-2.5401,-2.5393,-2.5152,-2.4683,-2.3883,-2.2754,-2.1811,-2.1086,-2.0199,-1.9712,-1.9751,-1.9673,-1.9652,-1.9633,-1.897,-1.9076,-1.9984,0.0,0.0,0.0,0.0,0.0,0.0,0.0,0.0,0.0,0.0,0.0,0.0,0.0,0.0,0.0,0.0,0.0,0.0,0.0,0.0,0.0,-2.1907,-2.3095,-2.3178,-2.3835,-2.4442,-2.4852,-2.5383,-2.5941,-2.6585,-2.6861,-2.7366,-2.8225,-2.8303,-2.8576,-2.9201,-2.9474,-2.9865,-3.045,-3.0684,-3.0801,-3.0801,-3.0801,-3.0801,-3.0801,-3.0801,-3.0801,-3.0801,-3.0801,-3.0801,-3.0801,-3.0801,-3.0665,-3.047,-3.047,-2.9982,-2.9162,-2.8283,-2.7411,-2.6637,-2.662,-2.6188,-2.5604,-2.5586,-2.5568,-2.5557,-2.5522,-2.5507,-2.5507,-2.5492,-2.5511,-2.5511,-2.5511,-2.5511,-2.5511,-2.5511,-2.5511,-2.5511,-2.5511,-2.5511,-2.5511,-2.5511,-2.5511,-2.5511,-2.5511,-2.5511,-2.5511,-2.5511,-2.5511,-2.5511,-2.5511,-2.5511,0.0,-2.5511,-2.5429,-2.5321,-2.5118,-2.4993,-2.4755,-2.4351,-2.2936,-2.2029,-2.1878,-2.0498,-1.9993,-2.0618,-2.0578,-2.0564,-2.061,-2.1121,-2.0865,0.0,0.0,0.0,0.0,0.0,0.0,0.0,0.0,0.0,0.0,0.0,0.0,0.0,0.0,0.0,0.0,0.0,0.0,0.0,0.0,0.0,0.0,-2.3156,-2.4234,-2.4602,-2.4749,-2.5012,-2.558,-2.5991,-2.6585,-2.7464,-2.7876,-2.844,-2.9279,-2.9689,-3.0118,-3.0626,-3.0997,-3.1231,-3.1348,-3.1699,-3.1719,-3.1348,-3.1719,-3.1895,-3.1895,-3.1895,-3.1699,-3.1348,-3.1348,-3.1153,-3.0801,-3.0801,-3.0801,-3.0801,-3.0801,-3.0528,0.0,0.0,0.0,0.0,0.0,-2.7155,-2.6646,-2.6275,-2.6135,-2.6085,-2.5667,-2.5518,-2.551,-2.5507,-2.5499,-2.5499,-2.5492,-2.5511,-2.5511,-2.5511,-2.5511,-2.5511,-2.5511,-2.5511,-2.5511,-2.5511,-2.5511,-2.5511,-2.5511,-2.5511,0.0,-2.5511,-2.5511,-2.5511,-2.5511,-2.5511,-2.5511,-2.5511,-2.5429,-2.5339,-2.5173,-2.5084,-2.4956,-2.4814,-2.3516,0.0,0.0,0.0,-2.0979,-2.148,-2.147,0.0,0.0,0.0,0.0,0.0,0.0,0.0,0.0,-2.1795,-2.1761,0.0,0.0,0.0,0.0,0.0,0.0,0.0,0.0,0.0,0.0,0.0,0.0,0.0,0.0,0.0,0.0,-2.4174,-2.4495,-2.5207,-2.541,-2.5532,-2.5648,-2.6442,-2.7325,-2.8201,-2.9081,-2.9962,-3.0877,-3.166,-3.2148,-3.2246,0.0,0.0,0.0,0.0,-3.3027,-3.2246,-3.3007,-3.3398,-3.3398,-3.3398,-3.2949,-3.209,-3.209,-3.1621,-3.0801,-3.0801,-3.0801,-3.0801,-3.0801,-3.0801,-3.0723,-2.9904,-2.9127,-2.8428,-2.8261,-2.8218,-2.8081,-2.7305,0.0,0.0,-2.6009,-2.5632,-2.5511,-2.551,-2.5503,-2.5495,-2.5499,-2.5492,-2.5492,-2.5511,-2.5511,-2.5511,-2.5511,-2.5511,-2.5511,-2.5511,-2.5511,-2.5511,-2.5511,-2.5511,-2.5511,-2.5511,-2.5511,-2.5511,-2.5511,-2.5511,-2.5511,-2.5511,-2.5456,-2.5401,-2.5385,0.0,0.0,-2.5182,-2.4214,-2.3683,-2.379,-2.2892,-2.2356,-2.2341,-2.2459,-2.2515,-2.2457,-2.2634,-2.3138,-2.3976,-2.3876,-2.4265,-2.4979,-2.248,-2.2135,0.0,0.0,0.0,0.0,0.0,0.0,0.0,0.0,0.0,0.0,0.0,0.0,0.0,0.0,0.0,-2.4022,-2.4638,-2.5139,-2.5357,-2.5406,-2.5425,-2.5453,-2.6311,-2.7254,-2.8123,-2.9051,-3.0233,-3.175,-3.2009,-3.2402,-3.3105,-3.3319,-3.3319,-3.3144,-3.3319,-3.3319,-3.3144,-3.3319,-3.3398,-3.3398,0.0,0.0,-3.209,-3.209,-3.1621,-3.0801,-3.0801,-3.0801,-3.0801,-3.0801,-3.0801,-3.0723,-2.9904,-2.9498,-2.9266,-2.8543,-2.824,-2.8182,-2.8007,-2.7487,-2.6876,-2.6704,-2.6154,-2.557,-2.5511,-2.5511,0.0,-2.5495,-2.5495,-2.5507,-2.5492,-2.5511,-2.5511,-2.5511,-2.5511,-2.5511,-2.5511,-2.5511,-2.5511,-2.5511,-2.5511,-2.5511,-2.5511,-2.5511,-2.5511,-2.5511,-2.5511,-2.5511,-2.5511,-2.5484,-2.5412,-2.5255,-2.5215,-2.5173,-2.5046,-2.4255,-2.3797,-2.3881,-2.3588,-2.3369,-2.3243,-2.4081,-2.4195,-2.343,-2.4293,-2.4411,-2.3764,-2.4378,-2.4709,-2.476,-2.4216,-2.4148,0.0,0.0,0.0,0.0,0.0,0.0,0.0,0.0,0.0,0.0,0.0,-2.2331,-2.2739,0.0,-2.4176,-2.4591,-2.5014,-2.5303,-2.5313,-2.5331,-2.5401,-2.5499,-2.6648,-2.7659,-2.8201,-2.9394,-3.0693,-3.2001,-3.2494,-3.3122,-3.4003,-3.4452,-3.451,-3.4061,-3.4471,-3.4491,-3.4042,-3.4491,-3.4703,-3.4703,-3.4703,-3.4237,-3.3398,-3.3398,-3.2929,-3.209,-3.1641,-3.1446,-3.1426,-3.0977,-3.0801,-3.0762,-3.0353,-3.022,-3.0185,-2.973,-2.9541,-2.9431,-2.855,-2.7948,-2.7413,-2.6526,-2.5955,-2.5589,-2.5551,-2.5544,-2.5538,-2.551,-2.5495,-2.5495,-2.5492,-2.5511,-2.5511,-2.5511,-2.5511,-2.5511,-2.5511,-2.5511,-2.5511,-2.5511,-2.5511,-2.5511,-2.5511,-2.5511,-2.5511,-2.5511,-2.5511,-2.5511,-2.5511,-2.5511,-2.5468,-2.535,-2.535,-2.5331,-2.5264,-2.488,-2.461,-2.4514,-2.4445,-2.4372,-2.4289,-2.4674,-2.4712,-2.4314,-2.4893,-2.4893,-2.4295,-2.4772,-2.4942,-2.4808,-2.4719,-2.4707,0.0,0.0,0.0,0.0,0.0,0.0,0.0,-2.0403,-2.1248,-2.2057,-2.2785,-2.3467,-2.4111,-2.4235,-2.4446,-2.5097,-2.5395,-2.5501,-2.545,-2.5491,-2.5591,-2.5762,-2.7097,-2.8035,-2.8218,-2.9722,-3.1154,-3.2237,-3.2989,-3.3858,-3.4895,-3.5617,-3.5676,-3.4973,-3.5636,-3.5656,-3.4956,-3.5659,-3.5991,-3.5991,-3.5991,-3.5545,-3.4705,-3.4705,-3.4217,-3.3358,-3.248,-3.209,-3.2031,-3.1153,-3.0801,-3.0801,-3.0801,-3.0823,-3.0866,-3.0823,-3.0823,-3.0671,-2.9266,-2.8633,-2.8229,-2.6815,-2.6225,-2.6061,-2.59,-2.5855,-2.581,-2.5582,-2.5529,-2.5522,-2.5499,-2.5492,-2.5492,-2.5511,-2.5511,-2.5511,-2.5511,-2.5511,-2.5511,-2.5511,-2.5511,-2.5511,-2.5511,-2.5511,-2.5511,-2.5511,-2.5511,-2.5511,-2.5511,-2.5511,-2.5511,-2.5511,-2.5511,-2.5511,-2.5511,-2.5511,-2.5406,-2.516,-2.5138,-2.5138,-2.5096,-2.4915,-2.4865,-2.4942,-2.508,-2.5068,-2.4902,-2.5,-2.4987,-2.4861,-2.4749,-2.4707,-1.8472,-1.8472,-1.8783,-2.0006,-2.06,-2.1223,0.0,-2.3317,-2.3812,-2.4617,-2.4858,-2.4954,-2.5039,-2.5058,-2.5097,-2.5179,-2.586,-2.637,-2.6366,-2.6359,-2.6406,-2.6468,-2.7334,-2.7932,-2.7942,-2.962,-3.1364,-3.296,-3.3273,-3.4117,-3.5775,-3.5951,-3.597,-3.5853,-3.5951,-3.5955,-3.5864,-3.5942,-3.6004,-3.5991,-3.5991,-3.5545,-3.4705,-3.4705,-3.4217,-3.3358,-3.248,-3.209,-3.2031,-3.1153,-3.0801,-3.0801,-3.0801,-3.0801,-3.0801,-3.0801,-3.0801,-3.0784,-3.0584,-3.0018,-2.9318,-2.9133,-2.8495,-2.7693,-2.698,-2.6747,-2.6586,-2.581,-2.559,-2.5583,-2.5522,-2.5495,-2.5507,-2.5492,-2.5511,-2.5511,-2.5511,-2.5511,-2.5511,-2.5511,-2.5511,-2.5511,-2.5511,-2.5511,-2.5511,-2.5511,-2.5511,-2.5511,-2.5511,-2.5511,-2.5511,-2.5511,-2.5511,-2.5511,-2.5511,-2.5511,-2.5451,-2.5293,-2.5274,-2.5214,-2.5096,-2.5201,-2.5171,-2.5072,-2.5222,-2.5149,-2.4902,-2.4915,-2.4847,-2.4704,-2.4707,-2.4707,-1.8981,-1.9507,-1.9973,-2.0548,-2.1555,-2.259,-2.3352,-2.3689,-2.4091,-2.5007,-2.5201,-2.5212,-2.519,-2.5209,-2.5351,-2.5815,-2.624,-2.6661,-2.7134,-2.6814,-2.6493,-2.6477,-2.7248,-2.7834,-2.8001,-2.9563,-3.1351,-3.3184,-3.3371,-3.4168,-3.5908,-3.6005,-3.6005,-3.6005,-3.6005,-3.6005,-3.599,-3.599,-3.5997,-3.6004,-3.6004,-3.5812,-3.5467,-3.5467,-3.4979,-3.412,-3.3241,-3.2578,-3.2031,-3.1153,-3.0801,-3.0801,-3.0801,-3.0801,-3.0801,-3.0801,-3.0801,-3.0723,-3.0265,-2.9843,-2.9411,-2.8901,-2.8474,-2.8004,-2.7167,-2.6903,-2.6728,-2.5855,-2.5596,-2.557,-2.5524,-2.5498,-2.5498,-2.5495,-2.5507,-2.5499,-2.5492,-2.5511,-2.5511,-2.5511,-2.5511,-2.5511,-2.5511,-2.5511,-2.5511,-2.5511,-2.5511,-2.5511,-2.5511,-2.5511,-2.5511,-2.5511,-2.5511,-2.5511,-2.5511,-2.5511,-2.5476,-2.5415,-2.5341,-2.5313,-2.5341,-2.5243,-2.5192,-2.5222,-2.5264,-2.516,-2.4902,-2.5056,-2.4981,-2.4707,-2.4779,-2.4779,-1.9229,-1.9981,-2.0517,-2.1152,-2.2282,-2.3337,-2.3746,-2.392,-2.4245,-2.505,-2.5198,-2.5209,-2.5206,-2.5206,-2.5386,-2.5975,-2.6503,-2.7038,-2.7625,-2.7198,-2.6905,-2.7071,-2.7453,-2.7881,-2.8338,-2.9657,-3.1297,-3.3209,-3.3385,-3.4155,-3.588,-3.5977,-3.5977,-3.5977,-3.5977,-3.5977,-3.5962,-3.5962,-3.5986,-3.5997,-3.5997,-3.6004,-3.6007,-3.5991,-3.5662,-3.5018,-3.4139,-3.3261,-3.2383,-3.1524,-3.1016,-3.0801,-3.0801,-3.0801,-3.0801,-3.0801,-3.0801,-3.0723,-3.0126,-2.99,-2.9744,-2.9101,-2.8891,-2.8734,-2.7853,-2.7582,-2.7369,-2.6269,-2.5952,-2.5894,-2.5602,-2.5525,-2.5518,-2.549,-2.551,-2.5503,-2.5499,-2.5499,-2.5492,-2.5492,-2.5511,-2.5511,-2.5511,-2.5511,-2.5511,-2.5511,-2.5511,-2.5511,-2.5511,-2.5511,-2.5511,-2.5511,-2.5511,-2.5511,-2.5511,-2.5511,-2.5511,-2.5511,-2.5406,-2.5397,-2.5503,-2.5303,-2.5243,-2.5303,-2.5332,-2.5233,-2.4968,-2.5201,-2.5103,-2.4749,-2.4847,-2.4818,-1.9154,-1.9424,-2.0074,-2.2282,-2.2958,-2.3368,-2.4436,-2.4771,-2.4936,-2.5149,-2.5191,-2.5191,-2.5191,-2.5191,-2.521,-2.5229,-2.6593,-2.7663,-2.7701,-2.7682,-2.795,-2.872,-2.816,-2.807,-2.8967,-2.994,-3.1243,-3.3068,-3.3329,-3.414,-3.5811,-3.5889,-3.5889,-3.5889,-3.5889,-3.5899,-3.5909,-3.5909,-3.5934,-3.6005,-3.5994,-3.6001,-3.6001,-3.6007,-3.5991,-3.5916,-3.5037,-3.4178,-3.33,-3.2422,-3.1563,-3.0801,-3.0801,-3.0801,-3.0801,-3.0801,-3.0801,-3.0804,-3.076,-3.0758,-3.0757,-3.0642,-3.0611,-3.0464,-2.9583,-2.9331,-2.8981,-2.733,-2.6864,-2.6669,-2.5816,-2.5596,-2.5577,-2.5518,-2.5492,-2.5505,-2.5503,-2.5495,-2.5488,-2.5492,-2.5511,-2.5511,-2.5511,-2.5511,-2.5511,-2.5511,-2.5511,-2.5511,-2.5511,-2.5511,-2.5511,-2.5511,-2.5511,-2.5511,-2.5511,-2.5511,-2.5511,-2.5511,-2.5503,-2.5503,-2.5511,-2.5484,-2.5423,-2.5313,-2.5423,-2.536,-2.5084,-2.5233,-2.5149,-2.4902,-2.4902,-2.4818,-1.9648,-2.0551,-2.1255,-2.252,-2.3289,-2.3879,-2.4318,-2.4559,-2.476,-2.4896,-2.5038,-2.5156,-2.5191,-2.5191,-2.5363,-2.5918,-2.6956,-2.7892,-2.8414,-2.849,-2.8605,-2.8872,-2.8662,-2.8862,-2.9821,-3.0175,0.0,-3.2928,-3.3196,-3.3997,-3.5682,-3.5846,-3.5908,-3.5908,-3.5908,-3.5894,-3.5894,-3.5894,-3.5904,-3.5934,-3.5986,-3.5994,-3.6001,-3.6004,-3.6007,-3.5913,-3.4471,-3.3671,-3.33,-3.1836,-3.1055,-3.0801,-3.0801,-3.0801,-3.0801,-3.0801,-3.0801,-3.0804,-3.08,-3.08,-3.0795,-3.0728,-3.0691,-3.0534,-2.9655,-2.9408,-2.9059,-2.7369,-2.6903,-2.6708,-2.5828,-2.5595,-2.5589,-2.5577,-2.557,-2.5544,-2.5505,-2.5505,-2.5498,-2.5495,-2.5507,-2.5507,-2.5492,-2.5511,-2.5511,-2.5511,-2.5511,-2.5511,-2.5511,-2.5511,-2.5511,-2.5511,-2.5511,-2.5511,-2.5511,-2.5511,-2.5511,-2.5511,-2.5511,-2.5511,-2.5511,-2.5499,-2.5472,-2.5429,-2.5468,-2.5406,-2.5236,-2.5374,-2.5321,-2.5103,-2.5143,-2.5069,-2.0307,-2.1259,-2.1881,-2.2937,-2.3613,-2.4075,-2.4247,-2.4392,-2.4465,-2.4374,-2.4447,-2.4556,-2.4686,-2.4698,-2.4965,-2.5793,-2.6912,-2.7847,-2.8368,-2.8706,-2.9121,-2.9718,-2.9541,-2.983,-3.1053,-3.1149,0.0,-3.3353,-3.3547,-3.4195,-3.5591,-3.5772,-3.5833,-3.5833,-3.5878,-3.5908,-3.5908,-3.5908,-3.5894,-3.5909,-3.5938,-3.5986,-3.6001,-3.5997,-3.6001,-3.5913,-3.4488,-3.3688,-3.3297,-3.1853,-3.107,-3.0796,-3.0794,-3.0796,-3.0799,-3.0799,-3.0799,-3.0804,-3.08,-3.08,-3.0795,-3.0728,-3.0691,-3.0592,-3.0024,-2.9855,-2.9505,-2.7815,-2.733,-2.7058,-2.5892,-2.5601,-2.5595,-2.5609,-2.5609,-2.5583,-2.5544,-2.5544,-2.5538,-2.5498,-2.5503,-2.5495,-2.5499,-2.5492,-2.5511,-2.5511,-2.5492,-2.5499,-2.5511,-2.5511,-2.5511,-2.5511,-2.5511,-2.5511,-2.5511,-2.5511,-2.5511,-2.5511,-2.5511,-2.5492,-2.5499,-2.5488,-2.5503,-2.549,-2.5505,-2.5452,-2.5379,-2.5452,-2.5406,-2.5235,-2.5283,-2.5226,-2.1078,-2.155,-2.1969,-2.3515,-2.3896,-2.3958,-2.4229,-2.4303,-2.4133,-2.3591,-2.3493,-2.3547,-2.3695,-2.3769,-2.4074,-2.4892,-2.6479,-2.7616,-2.7651,-2.845,-2.9622,-3.1268,-3.0801,-3.0968,-3.2596,-3.2749,0.0,-3.4268,0.0,-3.4668,-3.5538,-3.566,-3.5693,-3.5693,-3.5827,-3.5883,-3.5883,-3.5908,-3.5894,-3.5909,-3.5909,-3.5919,-3.5997,-3.599,-3.5994,-3.5952,-3.5028,-3.415,-3.3336,-3.2413,-3.1552,-3.0791,-3.0801,-3.0804,-3.0791,-3.0791,-3.0796,-3.0804,-3.08,-3.0797,-3.0796,-3.0715,-3.0703,-3.0697,-3.0697,-3.069,-3.0341,-2.8586,-2.81,-2.7712,-2.6048,-2.5601,-2.5601,-2.5601,-2.5601,-2.5595,-2.5602,-2.5596,-2.5577,-2.5518,-2.5498,-2.5503,-2.5503,-2.5507,-2.5492,-2.5492,-2.5507,-2.5495,-2.5492,-2.5492,-2.5492,-2.5492,-2.5511,-2.5511,-2.5492,-2.5511,-2.5492,-2.5492,-2.5492,-2.5499,-2.5495,-2.5503,-2.551,-2.5518,-2.5518,-2.5518,-2.5518,-2.5518,-2.5444,-2.5318,-2.5318,-2.5293,-2.1974,-2.2718,-2.3322,-2.372,-2.3831,-2.3837,-2.3899,-2.4096,-2.4008,-2.3282,-2.3322,-2.3323,-2.2779,-2.3284,-2.3864,-2.4093,-2.6072,-2.7804,-2.8398,-2.9764,-3.1093,-3.2178,-3.2114,-3.2397,-3.35,-3.3646,0.0,0.0,-3.4455,-3.452,-3.5387,-3.5566,-3.563,-3.563,-3.566,-3.5706,-3.5753,-3.5846,-3.5889,-3.5894,-3.5894,-3.5904,-3.5938,-3.5934,-3.5942,-3.5916,-3.4394,-3.3614,-3.3282,-3.176,-3.0996,-3.0801,-3.0801,-3.0801,-3.0801,-3.0801,-3.0807,-3.0799,-3.0797,-3.0801,-3.0795,-3.073,-3.0697,-3.0695,-3.0711,-3.069,-3.0341,-2.8586,-2.81,-2.7712,-2.6048,-2.5601,-2.5601,-2.5601,-2.5601,-2.5601,-2.5595,-2.5595,-2.5589,-2.5577,-2.5538,-2.5505,-2.5505,-2.5505,-2.5498,-2.5498,-2.5505,-2.5498,-2.5495,-2.5507,-2.5507,-2.5507,-2.5499,-2.5492,-2.5507,-2.5499,-2.5507,-2.5498,-2.5503,-2.5503,-2.5505,-2.5557,-2.5564,-2.557,-2.5564,-2.557,-2.557,-2.557,-2.5564,-2.5525,-2.5525,-2.549,-2.2772,-2.3354,-2.3743,-2.3804,-2.3807,-2.372,-2.3397,-2.3446,-2.3216,-2.2115,-2.2105,-2.2164,-2.1789,-2.2558,-2.3353,-2.3714,-2.588,-2.7837,-2.8639,-3.0228,-3.1765,-3.2985,-3.3132,-3.347,-3.4327,-3.4492,-3.4699,0.0,-3.4829,-3.4793,-3.5292,-3.5432,-3.5507,-3.5507,-3.5566,-3.5621,-3.5693,-3.5767,-3.584,-3.5908,-3.5908,-3.5894,-3.5909,-3.5904,-3.5929,-3.5908,0.0,-3.3407,-3.3259,-3.1515,-3.079,-3.079,-3.0806,-3.0806,-3.079,-3.079,-3.0798,-3.0791,-3.0796,-3.0798,-3.08,-3.0755,-3.0721,-3.0701,-3.0735,-3.0722,-3.0425,-2.9096,-2.8695,-2.8282,-2.6611,-2.6164,-2.6067,-2.5698,-2.5601,-2.5601,-2.5601,-2.5601,-2.5595,-2.5602,-2.557,-2.5525,-2.5518,-2.5499,-2.5499,-2.5499,-2.5518,-2.5538,-2.5543,-2.5517,-2.5498,-2.5498,-2.5503,-2.5503,-2.549,-2.5503,-2.549,-2.5492,-2.5505,-2.5505,-2.5544,-2.5577,-2.5602,-2.5609,-2.5595,-2.5601,-2.5601,-2.5601,-2.5601,-2.5601,-2.5601,-2.5583,-2.3406,-2.3629,-2.3678,-2.3761,-2.3783,-2.3587,-2.2851,-2.2689,-2.2277,-2.0784,-2.0597,-2.0707,-2.0787,-2.1639,-2.259,-2.3405,-2.5574,-2.7542,-2.8559,-3.0181,-3.1903,-3.3596,-3.3897,-3.4274,-3.4999,-3.5147,-3.52,-3.52,-3.5196,-3.5193,-3.5209,-3.5311,-3.5364,-3.5364,-3.5495,-3.562,-3.5696,-3.5693,-3.5779,-3.5908,-3.5908,-3.5894,-3.5904,-3.5894,-3.5924,-3.5884,-3.4155,-3.3399,-3.3251,-3.1523,-3.0798,-3.0798,-3.0804,-3.0808,-3.0798,-3.0798,-3.0806,-3.0801,-3.079,-3.0808,-3.0801,-3.0796,-3.0765,-3.0728,-3.0774,-3.0759,-3.0541,-2.9732,-2.946,-2.9026,-2.734,-2.6893,-2.6679,-2.5818,-2.5604,-2.5604,-2.5604,-2.5604,-2.5599,-2.5601,-2.5595,-2.5589,-2.5525,-2.5506,-2.5506,-2.5506,-2.5551,-2.5602,-2.5602,-2.5551,-2.5518,-2.5518,-2.5518,-2.5499,-2.5518,-2.5518,-2.5499,-2.5499,-2.5499,-2.5544,-2.5602,-2.5602,-2.5609,-2.5601,-2.5601,-2.5601,-2.5601,-2.5601,-2.5601,-2.5601,-2.5601,-2.5601,-2.3481,-2.3539,-2.3562,-2.3607,-2.3674,-2.3523,-2.279,-2.263,0.0,-2.0644,-2.0484,-2.043,-1.9866,-2.0672,-2.1718,-2.2571,-2.4252,-2.6205,-2.8373,-3.0151,-3.1836,-3.3524,-3.4357,-3.4849,-3.5001,-3.5075,0.0,0.0,-3.511,-3.5145,-3.5209,-3.5223,-3.5239,-3.5239,-3.535,-3.5495,-3.562,-3.5678,-3.5779,-3.5908,-3.5908,-3.5889,-3.5894,-3.5889,-3.5914,-3.5816,-3.4121,0.0,-3.3268,-3.1529,-3.0804,-3.0804,-3.0804,-3.0804,-3.0804,-3.0804,-3.0793,-3.0806,-3.0794,-3.0798,-3.0794,-3.0796,-3.079,-3.0778,-3.0806,-3.0794,-3.0593,-2.9743,-2.9489,-2.9074,-2.7354,-2.6905,-2.6671,-2.581,-2.5595,-2.5595,-2.5595,-2.5595,-2.5609,-2.5593,-2.5604,-2.5591,-2.5582,-2.5576,-2.5576,-2.5576,-2.5595,-2.5595,-2.5595,-2.5583,-2.5577,-2.5577,-2.5525,-2.5518,-2.557,-2.5525,-2.5525,-2.557,-2.5583,-2.5583,-2.5595,-2.5595,-2.5595,-2.5601,-2.5601,-2.5601,-2.5601,-2.5601,-2.5601,-2.5601,-2.5601,-2.5601,-2.2874,-2.2571,-2.2357,-2.2851,-2.3045,-2.2872,-2.2139,0.0,0.0,-1.9957,-1.9764,-1.9807,-1.9555,-2.0369,-2.14,-2.235,-2.3812,-2.5714,-2.8188,-2.9869,-3.1466,-3.3137,-3.4078,-3.4567,-3.4567,-3.4752,-3.4851,-3.4851,-3.5001,-3.511,-3.5162,-3.5179,-3.5021,-3.4598,-3.4638,-3.4505,-3.4214,-3.4232,-3.4313,-3.4447,-3.4874,-3.4855,-3.4466,-3.5352,-3.5531,-3.5107,-3.3836,-3.3348,-3.3259,-3.1525,-3.0799,-3.0799,-3.0799,-3.0799,-3.0799,-3.0799,-3.0804,-3.0793,-3.0798,-3.0806,-3.0798,-3.0795,-3.08,-3.08,-3.0801,-3.0797,-3.0706,-3.0288,-3.0187,-2.9886,-2.8598,-2.7915,-2.7366,-2.6488,-2.5922,-2.5609,-2.5609,-2.5609,-2.5605,-2.5593,-2.559,-2.5606,-2.5605,-2.5601,-2.5598,-2.5591,-2.5605,-2.5595,-2.5607,-2.5595,-2.5609,-2.5609,-2.5564,-2.5564,-2.5609,-2.5564,-2.5564,-2.5601,-2.5595,-2.5595,-2.5601,-2.5601,-2.5601,-2.5601,-2.5601,-2.5601,-2.5601,-2.5601,-2.5601,-2.5601,-2.5601,-2.5601,-2.2232,-2.1839,-2.1521,-2.2207,-2.2557,-2.2512,-2.1578,-2.1381,-2.0932,-1.9344,-1.9117,-1.9259,-1.9413,-2.0145,-2.1104,-2.2256,-2.3436,-2.5133,-2.775,-2.938,-3.09,-3.253,-3.3608,0.0,-3.4197,-3.4226,0.0,-3.4327,-3.4624,-3.4808,-3.4826,-3.4897,-3.4549,-3.3723,-3.3719,-3.3465,-3.2904,-3.2904,-3.2976,-3.3113,-3.3751,-3.3713,-3.3151,-3.4651,-3.5001,-3.4423,-3.3763,-3.3439,0.0,-3.1714,-3.0974,-3.0799,-3.0799,-3.0799,-3.0799,-3.0799,-3.0799,-3.0804,-3.0793,-3.0798,-3.0798,-3.079,-3.0799,-3.0795,-3.0804,-3.0799,-3.0796,-3.0801,-3.08,-3.0599,-2.9741,-2.8863,-2.7944,-2.6889,-2.6128,-2.5679,-2.5854,-2.5893,-2.5892,-2.5909,-2.5907,-2.5849,-2.5629,-2.5609,-2.5603,-2.56,-2.5593,-2.5601,-2.5605,-2.5609,-2.5599,-2.5599,-2.5607,-2.5601,-2.5601,-2.5601,-2.5601,-2.5601,-2.5601,-2.5601,-2.5601,-2.5601,-2.5601,-2.5601,-2.5601,-2.5601,-2.5601,-2.5601,-2.5601,-2.5601,-2.5601,-2.5601,-2.2089,-2.2232,-2.2218,-2.2289,-2.2948,-2.3196,-2.1664,0.0,-2.0876,-1.9326,-1.9102,-1.9216,-1.9209,-1.956,-2.0352,-2.1975,-2.2482,-2.3761,-2.6775,-2.8652,-3.0222,-3.1656,0.0,0.0,-3.4197,-3.3557,-3.3224,-3.3398,-3.3658,-3.3863,-3.3932,-3.3982,-3.3617,-3.2756,-3.2791,-3.2838,-3.2904,-3.2904,-3.2976,-3.3093,-3.3171,-3.3171,-3.3132,-3.4022,-3.4371,-3.4333,-3.4367,-3.3946,0.0,-3.2322,-3.1505,-3.0799,-3.0799,-3.0799,-3.0799,-3.0799,-3.0799,-3.0799,-3.0804,-3.0804,-3.0804,-3.0798,-3.0801,-3.0796,-3.0794,-3.0801,-3.0806,-3.0804,-3.0806,-3.0613,-2.9793,-2.8934,-2.7879,-2.62,-2.5751,-2.5907,-2.6708,-2.6864,-2.6869,-2.6875,-2.6875,-2.66,-2.575,-2.5609,-2.5609,-2.5607,-2.5605,-2.5605,-2.5603,-2.5597,-2.5593,-2.5593,-2.5595,-2.5601,-2.5601,-2.5601,-2.5601,-2.5601,-2.5601,-2.5601,-2.5601,-2.5601,-2.5601,-2.5601,-2.5601,-2.5601,-2.5601,-2.5601,-2.5601,-2.5601,-2.5601,-2.5601,-2.0822,-2.0912,-2.0978,-2.1255,-2.2161,-2.2632,-2.1295,-2.1167,-2.0837,-1.9255,-1.8984,-1.907,-1.9166,-1.9301,-2.0,-2.1786,-2.2036,-2.294,-2.5634,-2.6903,-2.8287,-3.0326,-3.1565,-3.2645,0.0,0.0,-3.2654,-3.2422,-3.3084,-3.3091,-3.2109,-3.3199,-3.3208,-3.187,-3.1848,-3.1645,-3.1221,-3.1202,-3.123,-3.1296,-3.1795,-3.1757,-3.1335,-3.2672,-3.3051,-3.2713,-3.328,-3.3093,0.0,-3.2077,-3.1469,-3.0697,-3.0769,-3.0799,-3.0799,-3.0799,-3.0799,-3.0799,-3.0799,-3.0799,-3.0804,-3.0808,-3.0802,-3.0798,-3.0801,-3.0791,-3.0796,-3.0796,-3.0799,-3.0723,-3.0411,-2.9708,-2.8635,-2.6898,-2.6488,-2.6429,-2.6253,-2.6214,-2.6218,-2.6224,-2.6225,-2.6109,-2.5722,-2.5663,-2.5664,-2.5662,-2.5662,-2.5659,-2.5611,-2.5601,-2.5593,-2.5593,-2.5595,-2.5601,-2.5601,-2.5601,-2.5601,-2.5601,-2.5601,-2.5601,-2.5601,-2.5601,-2.5601,-2.5601,-2.5601,-2.5601,-2.5601,-2.5601,-2.5601,-2.5601,-2.5601,-2.5601,-2.0099,-2.0383,-2.0622,-2.0893,-2.1662,-2.2111,-2.1074,-2.0889,-2.055,-1.9183,-1.8914,-1.8931,-1.9086,-1.918,-1.9803,0.0,-2.1849,-2.261,-2.4977,-2.6075,-2.7344,-2.921,-3.0369,-3.1528,-3.2904,-3.2766,-3.2422,-3.2066,-3.2571,-3.242,-3.1316,-3.2336,-3.231,-3.0966,-3.0925,-3.0674,-3.0122,-3.0102,-3.0102,-3.0122,-3.0674,-3.0655,-3.0156,-3.1581,-3.1996,-3.1623,-3.2487,-3.2428,0.0,-3.1833,-3.136,-3.062,-3.0703,-3.0769,-3.0799,-3.0799,-3.0799,-3.0799,-3.0799,-3.0799,-3.0799,-3.0799,-3.0808,-3.0798,-3.0806,-3.0798,-3.0807,-3.0807,-3.0791,-3.0735,-3.0482,-2.9821,-2.8845,-2.7342,-2.6796,-2.6522,-2.6152,-2.6074,-2.6074,-2.6074,-2.6074,-2.5996,-2.5742,-2.5703,-2.5707,-2.5699,-2.5701,-2.5683,-2.5643,-2.564,-2.5637,-2.5638,-2.56,-2.5595,-2.5591,-2.5591,-2.5591,-2.5591,-2.5595,-2.5595,-2.5595,-2.559,-2.5599,-2.5595,-2.5604,-2.5593,-2.5601,-2.5601,-2.5601,-2.5601,-2.5601,-2.5601,-2.035,-2.1271,-2.1844,-2.1628,-2.1855,-2.1887,-2.107,-2.0499,-1.9885,-1.9057,-1.8895,-1.8895,-1.8913,-1.9132,-1.9822,-2.1456,-2.1881,-2.2763,-2.4997,-2.668,-2.7908,-2.8547,-3.0025,-3.131,-3.2125,-3.2411,-3.2533,-3.2585,-3.2051,0.0,-3.2064,-3.1354,-3.0658,-3.0045,-3.0072,-3.0122,-3.0102,-3.0102,-3.0102,-3.0102,-3.0122,-3.0117,-3.0128,-3.094,-3.1371,-3.1556,-3.2415,-3.2346,0.0,-3.1737,-3.1338,-3.0593,-3.0593,-3.0678,-3.0799,-3.0799,-3.0799,-3.0799,-3.0799,-3.0799,-3.0799,-3.0799,-3.0799,-3.0799,-3.0799,-3.0802,-3.0798,-3.0798,-3.0798,-3.0602,-2.9741,-2.8925,-2.8086,-2.7209,-2.6334,-2.5944,-2.6799,-2.6994,-2.6994,-2.6994,-2.6994,-2.6702,-2.5846,-2.571,-2.571,-2.569,-2.5696,-2.5701,-2.5701,-2.5699,-2.5703,-2.5703,-2.5642,-2.5593,-2.5609,-2.5609,-2.5609,-2.5609,-2.5603,-2.56,-2.5595,-2.5609,-2.5604,-2.5593,-2.5604,-2.5595,-2.5601,-2.5601,-2.5601,-2.5601,-2.5601,-2.5601,-1.9357,-2.0014,-2.056,-2.035,-2.0944,-2.1286,-2.0241,-2.0069,-1.9866,-1.9076,-1.8914,-1.8914,-1.8966,-1.9017,-1.9575,-2.1298,-2.1589,0.0,-2.4008,-2.5663,-2.7144,-2.8449,-3.1003,-3.2524,0.0,0.0,-3.1847,-3.0763,-3.1182,-3.1038,-3.0039,-3.0395,-3.0414,-2.9943,-2.9956,-2.9956,-2.9956,-2.9956,-2.9956,-2.9956,-2.9956,-2.9972,-2.9972,-3.0269,-3.0418,-3.0525,-3.1431,-3.136,0.0,-3.1352,-3.1163,-3.0404,-3.05,-3.0563,-3.0587,-3.0587,-3.0625,-3.0665,-3.0665,-3.0714,-3.0799,-3.0799,-3.0799,-3.0799,-3.0799,-3.0793,-3.081,-3.0798,-3.0798,-3.0739,-3.0466,-3.0193,-2.9647,-2.8223,-2.7677,-2.7228,-2.6314,-2.6119,-2.6119,-2.6119,-2.6119,-2.6022,-2.5749,-2.571,-2.571,-2.571,-2.569,-2.5693,-2.5693,-2.5703,-2.5707,-2.5705,-2.5672,-2.5642,-2.56,-2.5599,-2.5599,-2.5599,-2.5595,-2.5595,-2.56,-2.5593,-2.5609,-2.5593,-2.5609,-2.5605,-2.5601,-2.5601,-2.5598,-2.5609,-2.5603,-2.5915,-1.9089,-1.9712,-2.0258,-2.009,-2.0377,-2.0537,-1.98,-1.9584,-1.9397,-1.8895,-1.8806,-1.8807,-1.8878,-1.8913,-1.9488,-2.1186,-2.1439,-2.2072,-2.3976,-2.5642,-2.7363,-2.9282,-3.1546,0.0,0.0,-3.2469,-3.2234,-3.122,-3.1209,-3.0826,-2.9934,-2.9913,-2.9878,-2.9787,-2.9805,-2.9822,-2.9888,-2.9888,-2.9888,-2.9888,-2.9888,-2.9905,-2.994,-2.9956,-2.9988,-3.0076,-3.0636,0.0,0.0,-3.0789,-3.074,-3.0321,-3.0392,-3.0462,-3.0501,-3.0501,-3.0537,-3.0568,-3.0568,-3.0618,-3.0691,-3.0691,-3.0691,-3.0734,-3.0774,-3.0808,-3.0793,-3.0802,-3.0806,-3.0806,-3.0806,-3.0552,-2.9967,-2.8583,-2.8018,-2.7394,-2.599,-2.5697,-2.5697,-2.5697,-2.5697,-2.5697,-2.5697,-2.5697,-2.5697,-2.5697,-2.5701,-2.5704,-2.5704,-2.5707,-2.5707,-2.5704,-2.5704,-2.5679,-2.564,-2.5642,-2.5643,-2.5643,-2.5644,-2.5644,-2.5642,-2.5644,-2.5624,-2.5605,-2.5624,-2.5623,-2.5602,-2.5602,-2.5602,-2.5598,-2.5597,-2.5888,0.0,-2.0093,-2.0635,-2.0498,-2.0086,-1.9722,-1.9646,-1.9098,0.0,-1.8585,-1.8585,-1.8622,-1.8768,-1.8932,-1.9597,-2.1221,-2.1492,-2.2269,-2.4592,-2.6403,-2.8413,-3.0876,-3.1818,-3.2288,-3.2288,-3.2958,-3.3375,-3.3321,-3.1872,-3.1056,-3.1181,-2.9782,-2.9163,-2.9533,-2.957,-2.9681,-2.9888,-2.9888,-2.9888,-2.9888,-2.9888,-2.994,-2.9988,-2.994,-2.9972,0.0,0.0,0.0,0.0,-3.0113,-3.0174,-3.0292,-3.0297,-3.0359,-3.0482,-3.0482,-3.0482,-3.0492,-3.0492,-3.0492,-3.0501,-3.0501,-3.0543,-3.062,-3.0734,-3.0774,-3.0794,-3.0799,-3.0799,-3.0794,-3.0799,-3.0156,-2.9279,-2.8407,-2.753,-2.6673,-2.5874,-2.5699,-2.5699,-2.5699,-2.5699,-2.5699,-2.5699,-2.5699,-2.5699,-2.5699,-2.5707,-2.5691,-2.5691,-2.5701,-2.5704,-2.5694,-2.5691,-2.5707,-2.5699,-2.5697,-2.5707,-2.5707,-2.5691,-2.5709,-2.5694,-2.5694,-2.5662,-2.5613,-2.5662,-2.5664,-2.5604,-2.5604,-2.5604,-2.5604,-2.5604,-2.5661,-1.9057,0.0,-1.9209,-1.9208,-1.9085,-1.8982,0.0,-1.8728,-1.841,-1.8566,-1.8469,-1.8643,-1.9459,-1.9605,-2.0198,-2.201,-2.2242,-2.262,-2.3901,-2.653,-2.9445,-3.2488,-3.2995,-3.3121,-3.3121,-3.3284,-3.314,-3.2524,-3.1546,-3.074,-3.0184,-2.9239,-2.8839,-2.9141,-2.9293,-2.9551,-2.9888,-2.9888,-2.9888,-2.9888,-2.9888,-2.9905,-2.9905,-2.9924,-2.9924,-2.9956,0.0,0.0,-3.0022,-3.0068,-3.0128,-3.0147,-3.0147,-3.0188,-3.0273,-3.0273,-3.0285,-3.0348,-3.0348,-3.0413,-3.0501,-3.0501,-3.0519,-3.0537,-3.0554,-3.061,-3.0665,-3.0769,-3.0734,-3.0671,-3.0769,-3.0156,-2.9279,-2.8407,-2.753,-2.6673,-2.5874,-2.5699,-2.5699,-2.5699,-2.5699,-2.5699,-2.5699,-2.5699,-2.5699,-2.5699,-2.5699,-2.5703,-2.5703,-2.5707,-2.5707,-2.5703,-2.5703,-2.5703,-2.5699,-2.5703,-2.5707,-2.5707,-2.5694,-2.5694,-2.5703,-2.5697,-2.5684,-2.5678,-2.5681,-2.5687,-2.5671,-2.5676,-2.5679,-2.5679,-2.5685,-2.639,-1.8055,-1.866,-1.9249,-1.9304,-1.9305,-1.9268,-1.9155,-1.8633,-1.8184,-1.8249,0.0,-1.8429,-1.9307,-1.9566,-2.022,-2.2071,-2.2216,-2.2838,-2.4972,-2.7482,-3.0026,-3.2502,-3.2792,-3.2954,0.0,-3.3352,-3.3038,-3.2252,-3.1437,-3.064,-2.9826,-2.9047,-2.8718,-2.898,-2.9097,-2.9314,-2.9626,-2.9716,-2.9716,-2.9626,-2.9716,-2.9751,-2.977,-2.9855,-2.9888,0.0,0.0,0.0,-2.9956,-3.0022,-3.0053,-3.0049,-3.0098,-3.0113,-3.0161,-3.0161,-3.0185,-3.0215,-3.0215,-3.0267,-3.0321,-3.0348,-3.037,-3.0381,-3.0433,-3.0434,-3.0443,-3.061,-3.061,-3.0568,-3.0644,-3.0017,-2.9156,-2.8343,-2.7493,-2.6641,-2.5785,-2.5663,-2.5671,-2.561,-2.5667,-2.5699,-2.5699,-2.5699,-2.5699,-2.5699,-2.5699,-2.5699,-2.5699,-2.5699,-2.5699,-2.5699,-2.5699,-2.5699,-2.5699,-2.5699,-2.5699,-2.5699,-2.5699,-2.5699,-2.5699,-2.5699,-2.5699,-2.5699,-2.5699,-2.5699,-2.5699,-2.5703,-2.5707,-2.5707,-2.5694,-2.6419,-1.703,-1.8375,-1.9775,-1.9651,-1.9761,-1.9775,-1.9342,0.0,0.0,0.0,0.0,-1.8177,-1.9001,-1.9333,-2.013,-2.206,-2.2293,-2.336,-2.6579,-2.838,-2.9988,-3.1618,-3.1953,0.0,-3.2877,-3.3039,-3.2798,-3.2071,-3.1256,-3.0514,-2.9826,-2.9021,-2.8687,-2.891,-2.8938,-2.903,-2.9188,-2.9435,-2.9474,-2.9293,-2.9474,-2.957,-2.9608,-2.9787,-2.9872,-2.9888,0.0,0.0,-2.9905,-2.9956,-2.9988,-3.0007,-3.0053,-3.0087,-3.0102,-3.0102,-3.0102,-3.0102,-3.0102,-3.0102,-3.0117,-3.0169,-3.0177,-3.0203,-3.0325,-3.0278,-3.0216,-3.0381,-3.0452,-3.0472,-3.0492,-2.9843,-2.8991,-2.8267,-2.7427,-2.656,-2.5661,-2.5565,-2.5625,-2.5517,-2.559,-2.5658,-2.5658,-2.5658,-2.5663,-2.5667,-2.5667,-2.5671,-2.5699,-2.5699,-2.5699,-2.5699,-2.5699,-2.5699,-2.5699,-2.5699,-2.5699,-2.5699,-2.5699,-2.5699,-2.5699,-2.5699,-2.5699,-2.5699,-2.5699,-2.5699,-2.5699,-2.5699,-2.5699,-2.5699,-2.5699,-2.6229,-1.7042,-1.8255,-1.9156,-1.8541,-1.8849,-1.9161,-1.86,0.0,0.0,0.0,0.0,0.0,0.0,-1.9962,-2.0779,-2.3145,-2.4162,-2.5251,-2.7021,-2.7701,-2.8665,-3.0373,0.0,-3.1625,-3.1279,-3.1942,-3.2053,-3.1238,-3.0423,-2.9942,-2.9816,-2.8977,-2.8518,-2.8569,-2.8755,-2.8761,-2.8626,-2.9104,-2.9334,-2.9293,-2.9334,-2.9435,-2.9608,-2.9626,-2.9734,-2.9888,0.0,-2.9888,-2.9888,-2.9905,-2.9956,-3.0007,-3.0022,-3.0038,-3.0102,-3.0102,-3.0102,-3.0102,-3.0102,-3.0102,-3.0102,-3.0098,-3.0113,-3.0113,-3.0142,-3.0128,-3.0113,-3.0157,-3.0196,-3.0271,-3.0384,-2.9767,-2.8936,-2.8197,-2.7346,-2.6475,-2.5604,-2.5437,-2.5444,-2.541,-2.5437,-2.5444,-2.5444,-2.5444,-2.5473,-2.5529,-2.5535,-2.5576,-2.5695,-2.5699,-2.5699,-2.5699,-2.5699,-2.5699,-2.5699,-2.5699,-2.5699,-2.5699,-2.5699,-2.5699,-2.5699,-2.5699,-2.5699,-2.5699,-2.5699,-2.5699,-2.5699,-2.5699,-2.5699,-2.5699,-2.5699,-2.6537,-1.5675,-1.7089,-1.8348,-1.799,-1.9115,-2.0199,-1.9753,-1.9185,0.0,0.0,0.0,0.0,0.0,-2.0454,-2.1113,-2.305,-2.4305,-2.5374,-2.6341,-2.7074,-2.7936,0.0,0.0,-3.0101,-3.0499,-3.091,-3.093,-3.0351,-2.9953,-2.9556,-2.9122,-2.8683,-2.8458,-2.8458,-2.8525,-2.8525,-2.8458,-2.8725,-2.8892,-2.8938,-2.9075,-2.9185,-2.9272,-2.9513,-2.9644,-2.9734,0.0,-2.9888,-2.9888,-2.9888,-2.9924,-2.9956,-2.9956,-2.9956,-2.9988,-2.9988,-2.9988,-2.9988,-2.9988,-2.9988,-2.9988,-2.9988,-2.9988,-2.9988,-2.9988,-2.9988,-2.9988,-2.9988,-3.0064,-3.0161,-3.0222,-2.9615,-2.891,-2.8604,-2.7903,-2.7065,-2.6188,-2.605,-2.5959,-2.5444,-2.5374,-2.5387,-2.5387,-2.5387,-2.5403,-2.5439,-2.5446,-2.5479,-2.5531,-2.5531,-2.5531,-2.5531,-2.5531,-2.5531,-2.5531,-2.5531,-2.5579,-2.5695,-2.5699,-2.5699,-2.5699,-2.5699,-2.5699,-2.5699,-2.5699,-2.5699,-2.5699,-2.5699,-2.5699,-2.5699,-2.5699,-2.6342,-1.441,-1.592,-1.7496,-1.7618,0.0,-2.0671,-2.0571,-1.9957,0.0,0.0,0.0,0.0,0.0,-2.0998,-2.167,-2.2801,-2.409,-2.5132,-2.5569,-2.6493,-2.7339,-2.8021,-2.8261,-2.8699,-2.9453,-2.9819,-2.9799,-2.9332,-2.9359,-2.9133,-2.8502,-2.8406,-2.8398,-2.8398,-2.8398,-2.8398,-2.8398,-2.8458,-2.851,-2.8562,-2.8767,-2.891,-2.8938,-2.9275,-2.9436,-2.9494,-2.9662,-2.9734,-2.9734,-2.9786,-2.9822,-2.9805,-2.9872,-2.9888,-2.9888,-2.9888,-2.9888,-2.9888,-2.9888,-2.9888,-2.9888,-2.9888,-2.9888,-2.9888,-2.9888,-2.9888,-2.9888,-2.9888,-2.9972,-3.0072,-3.0072,-2.9626,-2.9117,-2.8996,-2.849,-2.7766,-2.6721,-2.6564,-2.6371,-2.5447,-2.5322,-2.5348,-2.5348,-2.5348,-2.5357,-2.5354,-2.5354,-2.5363,-2.5398,-2.5406,-2.5406,-2.5406,-2.5406,-2.5379,-2.5379,-2.5379,-2.5432,-2.5595,-2.562,-2.5625,-2.5625,-2.5625,-2.5634,-2.5643,-2.5634,-2.563,-2.5658,-2.563,-2.563,-2.5639,-2.5643,-2.6096,-1.4132,-1.5378,-1.667,-1.7329,-1.8248,-1.9126,-1.966,-1.9218,0.0,-1.9479,0.0,0.0,0.0,-2.1814,-2.2775,-2.2874,-2.418,-2.5163,-2.5145,0.0,-2.6623,-2.6809,-2.7589,-2.7975,-2.756,-2.8521,-2.8847,-2.8096,-2.8317,-2.8478,-2.8424,-2.8353,-2.83,-2.83,-2.83,-2.83,-2.83,-2.838,-2.8406,-2.8424,-2.851,-2.8583,-2.8724,-2.8814,-2.8975,-2.9129,-2.9212,-2.9251,-2.9254,-2.9456,-2.9532,-2.9551,-2.9805,-2.9888,-2.9888,-2.9888,-2.9888,-2.9888,-2.9888,-2.9888,-2.9888,-2.9888,-2.9888,-2.9888,-2.9888,-2.9888,-2.9888,-2.9888,-2.9924,-2.994,-2.9988,-2.995,-2.9718,-2.8984,-2.8817,-2.8368,-2.6766,-2.6421,-2.6178,-2.5375,-2.5214,-2.5214,-2.5214,-2.5214,-2.5198,-2.5215,-2.5206,-2.5265,-2.5374,-2.5401,-2.5401,-2.5401,-2.5401,-2.5374,-2.5318,-2.5318,-2.5299,-2.5335,-2.539,-2.5426,-2.5426,-2.5422,-2.5446,-2.551,-2.5446,-2.5459,-2.5505,-2.5459,-2.5459,-2.5511,-2.5504,-2.6004,-1.3544,-1.5011,-1.652,-1.6764,-1.8109,0.0,0.0,-2.0113,-2.0102,-2.082,-2.0969,0.0,0.0,-2.1831,-2.2361,-2.2824,-2.3386,-2.39,-2.4348,-2.5129,-2.5662,-2.5697,-2.6401,-2.691,-2.694,-2.7373,-2.7709,-2.7818,-2.7342,-2.7317,-2.8,-2.7528,-2.7447,-2.7915,-2.8136,-2.8237,-2.8237,-2.83,-2.8318,-2.8264,-2.838,-2.8466,-2.8525,-2.867,-2.8772,-2.8865,-2.9042,-2.9148,-2.9148,-2.9275,-2.9295,-2.9332,-2.9474,-2.9494,-2.9456,-2.9513,-2.9532,-2.9533,-2.9662,-2.9716,-2.9734,-2.9855,-2.9888,-2.9888,-2.9888,-2.9888,-2.9888,-2.9888,-2.9888,-2.9924,-2.994,-2.9972,-2.9912,-2.9623,-2.9612,-2.9317,-2.816,-2.7508,-2.6911,-2.6054,-2.5482,-2.5139,-2.5139,-2.5139,-2.5132,-2.5149,-2.513,-2.5153,-2.5217,-2.5198,-2.5198,-2.5198,-2.5198,-2.5198,-2.5187,-2.5138,-2.5107,-2.5107,-2.5245,-2.5346,-2.5346,-2.5327,-2.5352,-2.5383,-2.5352,-2.5343,-2.5376,-2.5343,-2.5352,-2.5376,-2.5383,-2.5573,-1.3526,-1.4881,-1.6386,-1.6669,0.0,0.0,-2.0315,-2.0631,-2.0915,-2.1632,-2.1738,-2.1661,-2.1781,0.0,0.0,-2.246,-2.2742,-2.3073,-2.357,-2.4299,-2.4762,-2.4762,-2.5209,-2.5611,-2.5849,-2.5981,-2.6253,-2.6713,-2.6179,-2.6138,-2.6871,-2.6483,-2.6581,-2.7344,-2.768,-2.7887,-2.8053,-2.7942,-2.7817,-2.7652,-2.762,-2.7843,-2.8327,-2.8236,-2.8166,-2.8148,-2.8127,-2.8251,-2.8494,-2.8603,-2.8861,-2.9188,-2.9169,-2.9169,-2.9169,-2.9212,-2.9251,-2.9293,-2.9435,-2.9494,-2.9532,-2.9662,-2.9716,-2.9716,-2.9716,-2.9716,-2.9716,-2.9805,-2.9805,-2.9805,-2.9805,-2.9891,-2.9972,-2.9972,-3.0022,-2.9844,-2.8973,-2.817,-2.7347,-2.6472,-2.5653,-2.5101,-2.5101,-2.5101,-2.5101,-2.507,-2.507,-2.507,-2.507,-2.507,-2.507,-2.507,-2.5076,-2.5076,-2.5076,-2.5031,-2.4999,-2.4999,-2.5126,-2.5215,-2.5206,-2.5225,-2.5255,-2.5264,-2.5255,-2.5245,-2.5236,-2.5245,-2.5245,-2.5236,-2.5264,-2.5283,-1.4205,-1.5042,-1.6175,-1.7228,0.0,0.0,-1.9812,-2.0459,-2.0903,-2.1632,-2.1526,-2.1402,-2.1738,-2.1526,0.0,-2.1768,-2.241,-2.2891,-2.2891,-2.352,-2.3984,-2.3984,-2.4,-2.4,-2.4,-2.4303,-2.4503,-2.4503,-2.4785,-2.4959,-2.5005,-2.524,-2.5745,-2.6546,-2.6828,-2.7218,-2.7666,-2.7191,-2.6819,-2.6479,-2.602,-2.6639,-2.8156,-2.7406,-2.703,-2.6942,-2.6287,-2.6419,-2.7125,-2.7381,-2.81,-2.9045,-2.8915,-2.8956,-2.9086,-2.9086,-2.9126,-2.9188,-2.9188,-2.923,-2.9293,-2.9293,-2.9293,-2.9293,-2.9293,-2.9293,-2.9334,-2.9551,-2.9608,-2.9608,-2.9608,-2.9734,-2.9888,-2.9888,-2.994,-2.9779,-2.8981,-2.8175,-2.7333,-2.6458,-2.564,-2.5101,-2.5101,-2.5101,-2.507,-2.5012,-2.4993,-2.4993,-2.4993,-2.4993,-2.4993,-2.4993,-2.5004,-2.4996,-2.4996,-2.4996,-2.4996,-2.4996,-2.4977,-2.4991,-2.4993,-2.5057,-2.5125,-2.5212,-2.5125,-2.5094,-2.5111,-2.5094,-2.5094,-2.5091,-2.5182,-2.5225,-1.4355,-1.5565,-1.7098,-1.7425,-1.848,0.0,0.0,-2.0267,0.0,0.0,-2.1556,-2.1678,-2.1781,-2.1738,0.0,-2.1781,-2.198,-2.2129,-2.2129,-2.2758,-2.3222,-2.3222,-2.3686,-2.4,-2.4,-2.4081,-2.4257,-2.4472,-2.3877,-2.384,-2.462,-2.423,-2.4414,-2.5374,-2.5523,-2.574,-2.6079,-2.5768,-2.5635,-2.5727,-2.5597,-2.587,-2.6514,-2.629,-2.6183,-2.6139,-2.595,-2.5986,-2.6183,-2.6368,-2.6634,-2.6928,-2.6928,-2.7236,-2.77,-2.7731,-2.8118,-2.8651,-2.8855,-2.8929,-2.8975,-2.9212,-2.9293,-2.9293,-2.9293,-2.9293,-2.9314,-2.9375,-2.9395,-2.9395,-2.9395,-2.9435,-2.9494,-2.9494,-2.9494,-2.9289,-2.8484,-2.7641,-2.6798,-2.6028,-2.5185,-2.4639,-2.4798,-2.4813,-2.4861,-2.4991,-2.5004,-2.5004,-2.5004,-2.4889,-2.4764,-2.4716,-2.4719,-2.4639,-2.4437,-2.4472,-2.4508,-2.4508,-2.4559,-2.4704,-2.4991,-2.5023,-2.5031,-2.5051,-2.5031,-2.5031,-2.5019,-2.5031,-2.5031,-2.5019,-2.5051,-2.5076,-1.5362,-1.6515,-1.7822,-1.8264,-1.9097,-1.9877,-2.0241,0.0,0.0,0.0,-2.1355,-2.1448,-2.1587,-2.1479,0.0,-2.1587,-2.1691,-2.1797,-2.1797,-2.2178,-2.246,-2.246,-2.2857,-2.3123,-2.3123,-2.3123,-2.32,-2.3412,-2.2845,-2.2765,-2.3395,-2.311,-2.3357,-2.4281,-2.4442,-2.4694,-2.5045,-2.4694,-2.4594,-2.4714,-2.4541,-2.4625,-2.4908,-2.5229,-2.5354,-2.5354,-2.5354,-2.5354,-2.539,-2.5779,-2.5904,-2.5929,-2.5978,-2.6222,-2.6645,-2.7,-2.7456,-2.7949,-2.8424,-2.8633,-2.8682,-2.892,-2.8989,-2.8989,-2.9012,-2.9012,-2.9034,-2.9163,-2.9185,-2.9185,-2.9185,-2.9144,-2.9126,-2.9272,-2.9293,-2.9091,-2.8274,-2.7418,-2.6581,-2.5837,-2.5001,-2.4424,-2.4559,-2.4594,-2.4626,-2.4734,-2.4768,-2.4768,-2.4768,-2.4623,-2.4657,-2.494,-2.4644,-2.4518,-2.4654,-2.4431,-2.4264,-2.4264,-2.4301,-2.4422,-2.467,-2.4734,-2.4768,-2.4768,-2.4768,-2.4768,-2.4768,-2.4768,-2.4768,-2.4768,-2.4768,-2.4768,-1.6742,-1.7555,-1.8388,-1.9449,-1.9513,-1.9387,-1.9647,-2.0747,-2.1601,-2.1277,0.0,-2.0893,-2.1183,-2.1023,-2.0893,-2.1214,-2.1509,-2.1721,-2.1768,-2.1751,-2.1768,-2.1797,-2.1797,-2.1797,-2.1797,-2.1797,-2.1797,-2.1797,-2.1797,-2.1797,-2.1797,-2.201,-2.2513,-2.3253,-2.3511,-2.3836,-2.4282,-2.3853,-2.3605,-2.3543,-2.3197,-2.3151,-2.3465,-2.4219,-2.4539,-2.4515,-2.4539,-2.4539,-2.4617,-2.5294,-2.5604,-2.5604,-2.5604,-2.564,-2.58,-2.6514,-2.6923,-2.7207,-2.7924,-2.8273,-2.8406,-2.8484,-2.8492,-2.8492,-2.8562,-2.8587,-2.8637,-2.8887,-2.8957,-2.8957,-2.8957,-2.8795,-2.8727,-2.9037,-2.9119,-2.8897,-2.8103,-2.7248,-2.6432,-2.5671,-2.4874,-2.4355,-2.4372,-2.4372,-2.4372,-2.4389,-2.4372,-2.4372,-2.4389,-2.4393,-2.4653,-2.5392,-2.482,-2.4634,-2.5276,-2.4671,-2.4211,-2.4155,-2.4137,-2.4155,-2.4155,-2.4301,-2.4389,-2.4389,-2.4389,-2.4389,-2.4389,-2.4389,-2.4389,-2.4389,-2.4389,-2.4389,-1.6252,-1.7289,-1.8631,-1.948,-2.0082,-2.0325,-1.9823,-2.0361,-2.0909,-2.053,-2.0646,-2.0827,-2.0893,-2.086,-2.0827,-2.0893,-2.099,-2.1119,-2.1371,-2.1402,-2.1495,-2.1768,-2.1797,-2.1797,-2.1797,-2.1797,-2.1797,-2.1797,-2.1797,-2.1797,-2.1797,-2.184,-2.2065,-2.2446,-2.232,-2.2387,-2.2694,-2.2404,-2.2348,0.0,-2.2426,-2.2563,-2.2884,-2.3277,-2.3323,-2.3128,-2.3348,-2.3439,-2.3481,-2.3833,-2.3975,-2.3975,-2.3975,-2.4391,-2.4962,-2.5122,-2.5961,-2.704,-2.7271,-2.778,-2.8327,-2.8406,-2.8406,-2.8406,-2.8432,-2.8484,-2.8518,-2.8594,-2.8619,-2.8619,-2.8619,-2.808,-2.7567,-2.7641,-2.7689,-2.7518,-2.6763,-2.5962,-2.5142,-2.4361,-2.4069,-2.3981,-2.4136,-2.4117,-2.4118,-2.4229,-2.4137,-2.4136,-2.4229,-2.4631,-2.4988,-2.509,-2.5488,-2.551,-2.4905,-2.473,-2.4392,-2.3761,-2.3771,-2.3813,-2.3813,-2.4136,-2.4318,-2.4318,-2.4318,-2.4336,-2.4389,-2.4336,-2.4336,-2.4389,-2.4389,-2.4389,-1.6334,-1.7486,-1.8792,-1.9939,-2.0379,-2.0361,-1.9818,-1.9995,-2.0204,-2.0015,-2.0258,-2.0496,-2.0496,-2.0496,-2.0496,-2.0496,-2.0613,-2.0778,-2.0942,-2.1087,-2.1276,-2.1401,-2.1631,-2.1738,-2.1738,-2.1738,-2.1768,-2.1797,-2.1797,-2.1797,-2.1797,-2.1797,-2.1869,-2.1982,-2.1869,-2.1869,-2.2027,-2.1869,-2.194,-2.2192,-2.2192,-2.2275,-2.2456,-2.2764,-2.2833,-2.2703,-2.2833,-2.2927,-2.291,-2.306,-2.3126,-2.3126,-2.3126,-2.3372,-2.3802,-2.4128,-2.5007,-2.6043,-2.6486,-2.7137,-2.7818,-2.8035,-2.8119,-2.8146,-2.8327,-2.8406,-2.8458,-2.8458,-2.8458,-2.8368,-2.7972,-2.7795,-2.7643,-2.7273,-2.6964,-2.6519,-2.5731,-2.5249,-2.4725,-2.3912,-2.3789,-2.3813,-2.3896,-2.3896,-2.3878,-2.3961,-2.4208,-2.4402,-2.4468,-2.5071,-2.5628,-2.5984,-2.6009,-2.5955,-2.5825,-2.5147,-2.4581,-2.4152,-2.3799,-2.3589,-2.3589,-2.3855,-2.3981,-2.4001,-2.4001,-2.402,-2.4078,-2.4058,-2.4078,-2.4097,-2.4117,-2.4117,-1.6285,-1.7557,-1.8789,-2.0162,-2.0317,-2.005,-1.9747,-1.969,-1.969,-1.969,-1.9909,-2.0104,-2.0104,-2.0104,-2.012,-2.012,-2.0292,-2.0429,-2.0481,-2.0715,-2.091,-2.0991,-2.1339,-2.1587,-2.1587,-2.1648,-2.1678,-2.1661,-2.1721,-2.1781,-2.1781,-2.1781,-2.1797,-2.1797,-2.1797,-2.1797,-2.1797,-2.1797,-2.1899,-2.2124,-2.2124,-2.2124,-2.2136,-2.2419,-2.2527,-2.2554,-2.2581,-2.2607,-2.2607,-2.2677,-2.2703,-2.2703,-2.2703,-2.2703,-2.279,-2.3532,-2.4264,-2.5011,-2.5799,-2.6575,-2.7244,-2.7582,-2.7701,-2.776,-2.8091,-2.8201,-2.8228,-2.8273,-2.83,-2.8165,-2.7536,-2.7743,-2.7924,-2.732,-2.6559,-2.5799,-2.5159,-2.48,-2.4423,-2.3697,-2.3638,-2.3754,-2.3858,-2.3876,-2.3929,-2.4033,-2.459,-2.498,-2.498,-2.5631,-2.6315,-2.6925,-2.6532,-2.6346,-2.6668,-2.5547,-2.4711,-2.4426,-2.3756,-2.3383,-2.3448,-2.3494,-2.3562,-2.3656,-2.3678,-2.3678,-2.37,-2.3743,-2.3783,-2.3765,-2.3771,-2.3792,-1.506,-1.6623,-1.8346,-1.9196,-1.9588,-1.9747,-1.9726,-1.969,-1.969,-1.969,-1.9762,-1.9747,-1.9747,-1.9747,-1.9762,-1.9669,-1.9705,-1.9797,-1.9969,-2.0024,-2.0299,-2.0926,-2.1118,-2.115,-2.1103,-2.1448,-2.1556,-2.1134,-2.1479,-2.1708,-2.1708,-2.1768,-2.1797,-2.1797,-2.1738,-2.1738,-2.1797,-2.1738,-2.1768,-2.184,-2.184,-2.184,-2.184,-2.1899,-2.1928,-2.1928,-2.2181,-2.2275,-2.2275,-2.2581,-2.2703,-2.2703,-2.2703,-2.2703,-2.279,-2.3443,-2.4218,-2.5011,-2.5751,-2.6526,-2.7213,-2.7276,-2.7276,-2.7276,-2.7338,-2.7413,-2.7517,-2.7818,-2.7876,-2.7915,-2.8103,-2.7682,-2.7147,-2.704,-2.6189,-2.5429,-2.5471,-2.4473,-2.3407,-2.3007,-2.317,-2.3649,-2.4497,-2.4657,-2.4854,-2.5439,-2.566,-2.5732,-2.5665,-2.6361,-2.6792,-2.6609,-2.7351,-2.7218,-2.5657,-2.5385,-2.4742,-2.3397,-2.2987,-2.291,-2.3126,-2.3168,-2.3289,-2.3539,-2.3585,-2.3652,-2.37,-2.3652,-2.3652,-2.37,-2.3721,-2.3743,-1.5378,-1.662,-1.7915,-1.9387,-1.9588,-1.9524,-1.9889,-1.9854,-1.969,-1.9632,-1.9632,-1.9632,-1.9632,-1.9632,-1.9596,-1.9487,-1.9465,-1.945,-1.9551,-1.9717,-1.9949,-2.0243,-2.0499,-2.0649,-2.0616,-2.1007,-2.1182,-2.1007,-2.1197,-2.1417,-2.1694,-2.1524,-2.1507,-2.1738,-2.1724,-2.1694,-2.1694,-2.1694,-2.1738,-2.1797,-2.1768,-2.1768,-2.1797,-2.1797,-2.1797,-2.1827,-2.1911,-2.1969,-2.1998,-2.2141,-2.2215,-2.2215,-2.2215,-2.2215,-2.2282,-2.2996,-2.3755,-2.4515,-2.5225,-2.6016,-2.6674,-2.6858,-2.6923,-2.6956,-2.7149,-2.7213,-2.7258,-2.7413,-2.7444,-2.7447,-2.7328,-2.719,-2.7063,-2.6846,-2.61,-2.5631,-2.6212,-2.484,-2.3363,-2.2859,-2.2857,-2.3237,-2.4085,-2.4216,-2.441,-2.5145,-2.5662,-2.5943,-2.5915,-2.6597,-2.7075,-2.6926,-2.7343,-2.7273,-2.6445,-2.5594,-2.484,-2.4153,-2.3223,-2.2756,-2.2859,-2.2876,-2.2935,-2.3035,-2.3383,-2.3562,-2.3607,-2.3607,-2.3607,-2.3652,-2.3678,-2.3634,-1.5524,-1.635,-1.7126,-1.8975,-1.9233,-1.9198,0.0,-1.9733,-1.9669,-1.9611,-1.9574,-1.9538,-1.9538,-1.9538,-1.9501,-1.9376,-1.9339,-1.9302,-1.9265,-1.9457,-1.9624,-1.9675,-2.0,-2.0193,-2.0158,-2.0499,-2.0714,-2.0665,-2.0764,-2.0959,-2.1339,-2.1181,-2.1213,-2.154,-2.1587,-2.1634,-2.162,-2.1664,-2.1694,-2.1738,-2.1694,-2.1724,-2.1768,-2.1768,-2.1781,-2.1797,-2.1797,-2.1797,-2.1797,-2.1797,-2.1797,-2.1797,-2.1797,-2.1797,-2.1897,-2.2841,-2.3537,-2.4133,-2.506,-2.5756,-2.6239,-2.6486,-2.6572,-2.6607,-2.6875,-2.694,-2.6956,-2.7053,-2.7085,-2.7012,-2.6748,-2.6935,-2.7116,-2.682,-2.6303,-2.5946,-2.6197,-2.4798,-2.338,-2.3014,-2.2763,-2.29,-2.3912,-2.4012,-2.4282,-2.5227,-2.5863,-2.6255,-2.6255,-2.6819,-2.7181,-2.7085,-2.7149,-2.7063,-2.6779,-2.5716,-2.4979,-2.479,-2.3482,-2.2791,-2.2846,-2.2684,-2.2607,-2.2703,-2.3084,-2.3313,-2.3313,-2.336,-2.3383,-2.3383,-2.3435,-2.3348,-1.4726,-1.5279,-1.578,-1.7034,-1.8047,-1.8751,-1.8781,-1.9221,-1.9611,-1.9611,-1.9501,-1.9376,-1.9339,-1.9376,-1.9376,-1.9339,-1.9302,-1.9265,-1.9139,-1.9139,-1.9288,-1.9654,-1.9767,-1.9788,-1.9747,-2.0089,-2.0158,-1.9782,-2.0124,-2.0348,-2.0382,-2.0748,-2.1055,-2.1134,-2.1308,-2.1526,-2.1694,-2.165,-2.162,-2.162,-2.162,-2.1634,-2.1724,-2.1724,-2.1738,-2.1797,-2.1797,-2.1797,-2.1797,-2.1797,-2.1797,-2.1797,-2.1797,-2.1797,-2.1963,-2.3404,-2.3967,-2.4216,-2.5657,-2.6187,-2.6203,-2.6203,-2.6256,-2.6239,-2.6239,-2.6239,-2.631,-2.664,-2.6725,-2.6774,-2.7098,-2.7178,-2.7195,-2.7175,-2.6888,-2.6251,-2.4833,-2.3689,-2.3073,-2.3556,-2.289,-2.2762,-2.4551,-2.478,-2.5249,-2.6691,-2.6931,-2.6965,-2.6965,-2.7098,-2.7085,-2.6758,-2.7021,-2.6762,-2.5693,-2.559,-2.5234,-2.4461,-2.3457,-2.2992,-2.3257,-2.2609,-2.2375,-2.2686,-2.273,-2.2756,-2.2756,-2.2756,-2.2756,-2.2756,-2.2756,-2.2747,-1.4469,0.0,-1.5358,-1.6212,-1.7058,-1.7804,-1.8309,-1.9099,-1.9632,-1.9487,-1.9413,-1.9339,-1.9176,-1.9265,-1.9302,-1.9176,-1.9176,-1.9139,-1.9101,-1.9101,-1.9139,-1.9288,-1.9347,-1.9347,-1.9325,-1.966,-1.9839,-1.9711,-1.9839,-2.0035,-2.028,-2.0261,-2.0465,-2.0942,-2.1055,-2.123,-2.1509,-2.1433,-2.1481,-2.1589,-2.1511,-2.1542,-2.165,-2.1694,-2.1708,-2.1738,-2.1797,-2.1797,-2.1797,-2.1797,-2.1797,-2.1797,-2.1797,-2.1797,-2.1913,-2.2924,-2.3586,-2.4149,-2.516,-2.5806,-2.622,-2.622,-2.622,-2.622,-2.622,-2.622,-2.6256,-2.6329,-2.6399,-2.6452,-2.6791,-2.6708,-2.6555,-2.6555,-2.5932,-2.5362,-2.5411,-2.4067,-2.2891,-2.309,-2.2765,-2.2789,-2.3929,-2.4496,-2.513,-2.6147,-2.6297,-2.6297,-2.6297,-2.6349,-2.633,-2.6189,-2.6295,-2.6179,-2.5789,-2.5394,-2.5029,-2.473,-2.4033,-2.3451,-2.3045,-2.2792,-2.2484,-2.213,-2.2113,-2.2309,-2.2703,-2.2703,-2.2703,-2.2703,-2.2703,-2.259,-1.4351,0.0,0.0,0.0,-1.6223,-1.669,-1.7699,-1.847,-1.9021,-1.9066,-1.9229,-1.9302,-1.9139,-1.9176,-1.9176,-1.9101,-1.9101,-1.9101,-1.9101,-1.9101,-1.9101,-1.9101,-1.9101,-1.9101,-1.9101,-1.9362,-1.9493,-1.9493,-1.9493,0.0,-1.9879,-1.9823,-2.0104,-2.0844,-2.0893,-2.1007,-2.1198,-2.1151,-2.1151,-2.1135,-2.1055,-2.1119,-2.1388,-2.1402,-2.1526,-2.1664,-2.1738,-2.1768,-2.1768,-2.1768,-2.1768,-2.1738,-2.1768,-2.1768,-2.185,-2.2626,-2.3205,-2.3768,-2.4762,-2.5355,-2.5694,-2.5997,-2.6043,-2.5934,-2.6059,-2.6132,-2.6115,-2.6115,-2.6168,-2.6239,-2.6262,-2.5955,-2.5579,-2.5349,-2.497,-2.489,-2.5516,-2.4115,-2.2832,-2.3062,-2.2834,-2.2834,-2.3571,-2.4274,-2.4974,-2.573,-2.5844,-2.5844,-2.5844,-2.5717,-2.568,-2.568,-2.5551,-2.5476,-2.5476,-2.5188,-2.502,-2.502,-2.4541,-2.3935,-2.3192,-2.296,-2.2529,-2.1784,-2.1797,-2.2015,-2.2392,-2.2392,-2.2392,-2.2392,-2.2392,-2.2281,0.0,0.0,0.0,0.0,0.0,0.0,-1.6809,-1.7332,-1.7718,-1.8254,-1.8796,-1.9177,-1.908,-1.9043,-1.9058,-1.9072,-1.9087,-1.9101,-1.9101,-1.9101,-1.9101,-1.9101,-1.9101,-1.9101,-1.9101,-1.9101,-1.9101,-1.9101,-1.9101,-1.9101,-1.9101,-1.9457,-2.003,-2.0761,-2.0844,-2.0828,-2.0794,-2.0794,-2.0579,-2.0208,-2.0208,-2.0447,-2.0893,-2.0893,-2.1135,-2.1589,-2.1634,-2.1648,-2.1648,-2.1694,-2.1664,-2.162,-2.1664,-2.1694,-2.1777,-2.2578,-2.2843,-2.3058,-2.4497,-2.4751,-2.4616,-2.5602,-2.5684,-2.5422,-2.577,-2.5917,-2.5974,-2.5974,-2.6079,-2.6079,-2.5577,-2.4984,-2.4304,-2.3627,-2.4174,-2.482,-2.4839,-2.3703,-2.2883,-2.3604,-2.3129,-2.2867,-2.357,-2.4202,-2.4847,-2.555,-2.5663,-2.5663,-2.5663,-2.5384,-2.5192,-2.5192,-2.4823,-2.4583,-2.4583,-2.4942,-2.5176,-2.5192,-2.494,-2.447,-2.3768,-2.3129,-2.2468,-2.1744,-2.1768,-2.1797,-2.1797,-2.1797,-2.1797,-2.1797,-2.1797,-2.1797,-1.4691,0.0,0.0,0.0,0.0,0.0,0.0,-1.5778,-1.6638,-1.7005,-1.7173,-1.7368,-1.7719,-1.7772,-1.7882,-1.8375,-1.8825,-1.9101,-1.9101,-1.9101,-1.9101,-1.9101,-1.9101,-1.9101,-1.9101,-1.9101,-1.9101,0.0,-1.9101,-1.9101,-1.9101,-1.9457,-1.9889,-2.0361,-2.0379,-2.053,-2.0794,-2.0496,-2.0311,-2.0208,-2.0208,-2.0429,-2.0811,-2.0581,-2.0714,-2.1071,-2.0926,-2.0764,-2.0748,-2.1417,-2.1664,-2.1589,-2.162,-2.165,-2.1636,-2.1566,-2.1859,-2.2328,-2.2511,-2.2798,-2.3233,-2.4004,-2.4205,-2.4261,-2.5109,-2.54,-2.5422,-2.5422,-2.553,-2.5416,-2.4553,-2.4153,-2.3835,-2.3135,-2.3047,-2.3117,-2.3138,-2.2692,-2.2702,-2.4148,-2.3955,-2.3606,-2.3813,-2.4366,-2.4775,-2.4704,-2.4695,-2.4695,-2.4695,-2.4614,-2.4533,-2.4533,-2.4451,-2.4369,-2.4369,-2.4542,-2.4784,-2.5091,-2.4807,-2.4623,-2.4486,-2.3562,-2.2815,-2.2374,-2.1941,-2.1738,-2.1738,-2.1768,-2.1797,-2.1797,-2.1797,-2.1797,0.0,0.0,0.0,0.0,0.0,0.0,-1.5064,-1.5443,-1.5874,0.0,-1.6794,-1.7022,-1.7242,-1.7282,-1.7364,-1.7722,-1.8085,-1.8491,-1.9029,-1.9101,-1.9101,-1.9101,-1.9101,-1.9101,-1.9101,-1.9101,-1.9101,-1.9101,-1.9101,-1.9101,-1.9101,-1.9325,-1.9603,-1.998,-1.998,-2.0085,-2.0342,-2.012,-1.9909,-1.9752,-1.9752,-1.9945,-2.0342,-2.0139,-2.0243,-2.0581,-2.0465,-2.0364,-2.028,-2.0862,-2.1087,-2.1039,-2.123,-2.1246,-2.1135,-2.1087,-2.1279,-2.1579,-2.161,-2.1795,-2.2086,-2.2883,-2.3211,-2.3358,-2.3887,-2.4444,-2.4776,-2.423,-2.4216,-2.428,-2.3647,-2.3243,-2.2831,-2.2185,-2.1993,-2.2071,-2.2403,-2.2363,-2.2593,-2.3491,-2.3611,-2.3623,-2.3623,-2.4186,-2.4558,-2.4343,-2.4302,-2.4302,-2.4302,-2.4135,-2.3994,-2.3994,-2.3824,-2.3711,-2.3711,-2.3921,-2.4158,-2.4477,-2.4477,-2.4366,-2.4154,-2.3285,-2.2552,-2.2079,-2.1504,-2.1276,-2.1462,-2.1691,-2.1797,-2.1797,-2.1797,-2.1797,-1.597,-1.6184,0.0,0.0,-1.5433,0.0,-1.6088,-1.5722,-1.5301,0.0,-1.6695,-1.703,-1.691,-1.695,-1.6976,-1.6982,-1.7055,-1.7548,-1.8825,-1.8999,-1.9029,-1.9087,-1.9101,-1.9101,-1.9101,-1.9101,-1.9101,-1.9101,-1.9101,-1.9101,-1.9101,-1.9101,-1.9273,-1.969,-1.9654,-1.9639,-1.969,-1.9654,-1.9472,-1.9101,-1.9101,-1.9325,-1.969,-1.9639,-1.9818,-2.0139,-2.0158,-2.0124,-2.007,-2.0158,-2.0193,-2.0243,-2.0663,-2.0681,-2.0514,-2.0893,-2.0877,-2.074,-2.1236,-2.1188,-2.1036,-2.1938,-2.2362,-2.2496,-2.2371,-2.3149,-2.3884,-2.2754,-2.2639,-2.2864,-2.2682,-2.2218,-2.1635,-2.0895,-2.1042,-2.1491,-2.2024,-2.2409,-2.2529,-2.2239,-2.2769,-2.3228,-2.3228,-2.3805,-2.4219,-2.4135,-2.4135,-2.4135,-2.4135,-2.3782,-2.3523,-2.3523,-2.3142,-2.2902,-2.2902,-2.3275,-2.3551,-2.3595,-2.3952,-2.3856,-2.3231,-2.2632,-2.2006,-2.1312,-2.0771,-2.0698,-2.1102,-2.1584,-2.1797,-2.1797,-2.1751,-2.1721,-1.6948,-1.6655,-1.6733,-1.6631,0.0,0.0,-1.4749,-1.4794,-1.4772,0.0,-1.3843,-1.3976,-1.4281,-1.4686,-1.5111,-1.5589,-1.6082,-1.6866,-1.8201,-1.839,-1.8564,-1.9043,-1.9101,-1.9101,-1.9101,-1.9101,-1.9101,-1.9101,-1.9101,-1.9101,-1.9101,-1.9101,-1.9273,-1.969,-1.9398,-1.9347,-1.969,-1.9398,-1.9176,-1.9101,-1.9101,-1.9325,-1.969,-1.9347,-1.942,-1.9782,-1.9457,-1.9347,-1.931,-1.9347,-1.9696,-2.0208,-2.0311,-2.0311,-2.0243,-2.005,-1.996,-1.9884,-1.9664,-1.9575,-1.9618,-2.0318,-2.0587,-2.0803,-2.1609,-2.2013,-2.2203,-2.2078,-2.2184,-2.2123,-2.1139,-2.1114,-2.1035,-1.9908,-2.0371,-2.098,-2.0612,-2.1779,-2.2673,-2.2116,-2.284,-2.3528,-2.3528,-2.3634,-2.361,-2.3246,-2.3157,-2.3157,-2.3157,-2.3112,-2.3037,-2.2962,-2.2902,-2.2857,-2.2841,-2.2947,-2.3187,-2.3551,-2.3319,-2.3225,-2.3271,-2.2297,-2.163,-2.1327,-2.0771,-2.0698,-2.1102,-2.1584,-2.1797,-2.1781,-2.1526,-2.1402,-1.7727,-1.7399,-1.7463,-1.7749,0.0,0.0,0.0,-1.5827,-1.5499,-1.546,-1.4729,-1.4246,-1.4803,-1.4644,-1.454,-1.4819,-1.5356,-1.6097,-1.7069,-1.749,-1.7824,-1.8129,-1.8158,-1.8288,-1.8622,-1.8651,-1.8782,-1.9087,-1.9101,-1.9101,-1.9101,-1.9078,-1.9153,-1.9398,-1.9191,-1.9153,-1.9398,-1.9213,-1.9101,-1.9101,-1.9101,-1.9213,-1.9398,-1.9213,-1.9213,-1.9398,-1.9176,-1.9101,-1.9101,-1.9101,-1.931,-1.966,-1.9874,-1.9874,-1.9732,-1.9732,-1.969,-1.9523,-1.9288,-1.9176,-1.9234,-1.9493,-1.9827,-2.0127,-2.0333,-2.0395,-2.0543,-2.1272,-2.1318,-2.1097,-2.0786,-2.0673,-2.0473,-1.9832,-1.988,-2.0132,-2.048,-2.1307,-2.2062,-2.2396,-2.2878,-2.3275,-2.3275,-2.3275,-2.3187,-2.2933,-2.2888,-2.2888,-2.2888,-2.2888,-2.2902,-2.2872,-2.2857,-2.2902,-2.2872,-2.2857,-2.3023,-2.3231,-2.3023,-2.2951,-2.3074,-2.2025,-2.103,-2.033,-2.0203,-2.0261,-2.0501,-2.0959,-2.1308,-2.1556,-2.1214,-2.1151,0.0,0.0,0.0,0.0,0.0,-1.7479,0.0,0.0,0.0,-1.7149,-1.6158,-1.5308,0.0,0.0,0.0,-1.4275,0.0,0.0,0.0,-1.6274,0.0,-1.7171,-1.72,-1.7417,-1.7954,-1.8013,-1.8238,-1.8883,-1.889,-1.8933,-1.9064,-1.9003,-1.8979,-1.9026,-1.9003,-1.9017,-1.9078,-1.9078,-1.9078,-1.9101,-1.9101,-1.9101,-1.9101,-1.9101,-1.9101,-1.9101,-1.9101,-1.9101,-1.9101,-1.9101,-1.9101,-1.9139,-1.9472,-1.9435,-1.9288,-1.9551,-1.953,-1.9339,-1.9302,-1.9265,-1.9228,-1.9139,-1.9464,-1.9812,-1.9261,-1.9101,-1.9304,-2.0335,-2.0378,-2.0175,-2.0538,-2.0364,-2.0074,-1.9943,-1.9682,-1.9754,-2.077,-2.1191,-2.1685,-2.2685,-2.2888,-2.2888,-2.2888,-2.2888,-2.2888,-2.2888,-2.2902,-2.2902,-2.2888,-2.2902,-2.2857,-2.2857,-2.2902,-2.2888,-2.2857,-2.2888,-2.2888,-2.2888,-2.2888,-2.2786,-2.2526,-2.1435,-2.0308,-1.928,-1.9551,-1.9752,-1.9864,-2.0243,-2.0663,-2.1183,-2.086,-2.0811,0.0,0.0,0.0,0.0,-1.8926,0.0,0.0,0.0,-1.7098,-1.5704,0.0,0.0,0.0,0.0,0.0,0.0,0.0,0.0,-1.3867,-1.4379,-1.5403,-1.7011,-1.72,-1.7243,-1.7316,-1.7248,-1.7522,-1.8259,-1.8129,-1.8323,-1.9003,-1.8889,-1.8822,-1.8822,-1.8822,-1.8874,-1.9031,-1.9031,-1.9055,-1.9101,-1.9101,-1.9101,-1.9101,-1.9101,-1.9101,-1.9101,-1.9101,-1.9101,-1.9101,-1.9101,-1.9101,-1.9101,-1.9139,-1.9139,-1.9139,-1.9176,-1.9176,-1.9139,-1.9139,-1.9101,-1.9101,-1.9101,-1.9159,-1.9203,-1.9116,-1.9101,-1.913,-1.9275,-1.9696,-1.9986,-1.9449,-1.9711,-1.9957,-1.9348,-2.0016,-2.0814,-2.0959,-2.1902,-2.2728,-2.2859,-2.2888,-2.2888,-2.2888,-2.2888,-2.2888,-2.2888,-2.2872,-2.2826,-2.2902,-2.2872,-2.2795,-2.2795,-2.2857,-2.2857,-2.2795,-2.2872,-2.2888,-2.2888,-2.2888,-2.2381,-2.1264,-2.0001,-1.9261,-1.9139,-1.9288,-1.9493,-1.9823,-1.9762,-2.0115,-2.086,-2.0462,-2.0277,0.0,0.0,0.0,0.0,0.0,0.0,-1.8268,0.0,-1.7676,0.0,0.0,0.0,0.0,0.0,0.0,0.0,-1.3953,0.0,0.0,0.0,-1.4308,0.0,0.0,0.0,-1.6561,-1.6915,-1.7248,-1.7606,-1.7848,-1.8079,-1.8403,-1.8674,-1.8784,-1.8784,-1.876,-1.8827,-1.8993,-1.8993,-1.9017,-1.9101,-1.9101,-1.9101,-1.9101,-1.9101,-1.9101,-1.9101,-1.9101,-1.9101,-1.9101,-1.9101,-1.9101,-1.9101,-1.9101,-1.9101,-1.9101,-1.9101,-1.9101,-1.9101,-1.9101,-1.9101,-1.9101,-1.9101,-1.9101,-1.9101,-1.9101,-1.9101,-1.9101,-1.9101,-1.9304,-1.9449,-1.9174,-1.9304,-1.9449,-1.9174,-1.9812,-2.0567,-2.0915,-2.1728,-2.2409,-2.2498,-2.2706,-2.2797,-2.2417,-2.2661,-2.2902,-2.2872,-2.2872,-2.2872,-2.2826,-2.2872,-2.2872,-2.2872,-2.2902,-2.2902,-2.2872,-2.2902,-2.2888,-2.2888,-2.2888,-2.2527,-2.1668,-2.0724,-2.0069,-1.973,-1.9365,-1.9288,-1.9493,-1.945,-1.9632,-2.001,-1.9925,-2.0015,-1.8521,0.0,0.0,0.0,0.0,0.0,0.0,0.0,0.0,0.0,0.0,0.0,0.0,0.0,0.0,0.0,0.0,-1.368,0.0,-1.3311,0.0,0.0,0.0,0.0,0.0,-1.629,-1.6651,-1.6857,0.0,-1.7534,-1.7913,-1.8261,-1.8551,-1.8707,-1.8659,-1.8711,-1.8917,-1.8955,-1.8927,-1.886,-1.9026,-1.9026,-1.8936,-1.9064,-1.9101,-1.9101,-1.8988,-1.8936,-1.8936,-1.8784,-1.8745,-1.8745,-1.8745,-1.8745,-1.8784,-1.9026,-1.9101,-1.9101,-1.9101,-1.9101,-1.9101,-1.9101,-1.9101,-1.9101,-1.9078,-1.9078,-1.9078,-1.9026,-1.9026,-1.9026,-1.9078,-1.8988,-1.8917,-1.9075,-1.9541,-2.0087,-2.0628,-2.131,-2.1863,-2.1852,-2.231,-2.2509,-2.2044,-2.2477,-2.2826,-2.2598,-2.2583,-2.2569,-2.2445,-2.2417,-2.2449,-2.2495,-2.2495,-2.2495,-2.2495,-2.2601,-2.2752,-2.2888,-2.2555,-2.228,-2.2061,-2.1378,-2.0738,-2.0191,-1.9648,-1.9328,-1.9265,-1.9302,-1.9339,-1.9376,-1.9596,-1.9782,0.0,0.0,0.0,-1.8586,0.0,0.0,0.0,0.0,-1.8927,0.0,0.0,0.0,0.0,0.0,0.0,0.0,0.0,0.0,0.0,0.0,0.0,0.0,0.0,0.0,0.0,-1.5176,-1.5358,0.0,-1.5896,-1.6332,-1.7638,-1.7678,-1.7899,-1.8503,-1.8517,-1.8556,-1.8711,-1.876,-1.863,-1.8344,-1.886,-1.8898,-1.8539,-1.8898,-1.9101,-1.9064,-1.8707,-1.85,-1.8461,-1.8028,-1.7828,-1.7828,-1.7828,-1.7828,-1.7948,-1.8784,-1.9101,-1.9101,-1.9101,-1.9101,-1.9101,-1.9101,-1.9101,-1.9101,-1.9017,-1.8993,-1.8993,-1.8836,-1.8822,-1.8836,-1.8979,-1.8644,-1.8458,-1.8961,-1.9359,-1.9683,-1.9974,-2.0765,-2.1342,-2.1091,-2.1589,-2.1996,-2.1841,-2.2352,-2.2644,-2.2091,-2.1949,-2.1746,-2.1479,-2.1321,-2.1321,-2.1417,-2.1465,-2.1465,-2.1465,-2.1921,-2.2417,-2.2843,-2.1757,-2.1336,-2.1975,-2.1351,-2.0712,-2.0103,-2.0074,-1.9754,-1.9101,-1.9228,-1.9302,-1.9302,-1.9501,-1.9611,0.0,0.0,-2.0946,-1.9912,0.0,0.0,0.0,0.0,0.0,0.0,0.0,0.0,0.0,0.0,0.0,0.0,0.0,0.0,0.0,0.0,0.0,0.0,0.0,0.0,0.0,0.0,0.0,0.0,-1.5098,0.0,0.0,-1.7497,-1.7782,-1.8028,-1.8055,-1.8082,-1.8254,-1.7935,-1.7961,-1.8305,-1.8173,-1.808,-1.8028,-1.8187,-1.8226,-1.8226,-1.8108,-1.8028,-1.8028,-1.7868,-1.7787,-1.7787,-1.7787,-1.7787,-1.7868,-1.8461,-1.8707,-1.8707,-1.8707,-1.8707,-1.8669,-1.8344,-1.8383,-1.8514,-1.824,-1.8266,-1.833,-1.804,-1.7961,-1.7961,-1.8014,-1.8154,-1.8353,-1.8555,-1.9293,-2.0013,-2.0107,-2.071,-2.1126,-2.0709,-2.1006,-2.1188,-2.0696,-2.1091,-2.1554,-2.1712,-2.1541,-2.1334,-2.1175,-2.1224,-2.1369,-2.1417,-2.1417,-2.1417,-2.1417,-2.1874,-2.2417,-2.2843,-2.2482,-2.2337,-2.2569,-2.2004,-2.1569,-2.1365,-2.0915,-2.0378,-1.9769,-1.9808,-1.9613,-1.9176,-1.9339,-1.9465,-2.0481,-2.0773,0.0,-2.0484,-2.0274,0.0,-1.9356,0.0,0.0,0.0,0.0,0.0,0.0,0.0,0.0,0.0,0.0,0.0,0.0,-1.3187,0.0,0.0,0.0,0.0,0.0,0.0,-1.4456,-1.4616,-1.4754,0.0,0.0,0.0,-1.7253,-1.7571,-1.7598,-1.7639,-1.772,-1.7449,-1.7449,-1.7733,-1.7652,-1.7612,-1.753,-1.7707,-1.7787,-1.7787,-1.7639,-1.7598,-1.7544,-1.7434,-1.7338,-1.7338,-1.7338,-1.7338,-1.7421,-1.8028,-1.8344,-1.8461,-1.8305,-1.8344,-1.8422,-1.7908,-1.7908,-1.8028,-1.7666,-1.768,-1.7747,-1.7476,-1.7407,-1.7447,-1.7646,-1.7863,-1.8096,-1.8442,-1.9105,-1.9655,-1.9752,-2.0187,-2.0446,-2.0016,-2.0295,-2.0497,-1.9991,-2.0194,-2.0597,-2.0957,-2.0894,-2.0746,-2.0547,-2.0683,-2.0832,-2.0832,-2.0832,-2.093,-2.1091,-2.124,-2.1509,-2.2045,-2.203,-2.203,-2.209,-2.2055,-2.1944,-2.17,-2.1469,-2.0944,-2.0103,-2.0103,-1.9754,-1.9101,-1.9176,-1.9339]},{"header":{"parameterUnit":"m.s-1","parameterCategory":1,"la1":30.6,"la2":29.2853,"lo1":-89.7004,"lo2":-87.6739,"dy":0.0162,"dx":0.0183,"nx":112,"ny":82,"refTime":"2024-07-20T18:00:00:Z","depth":0,"parameterNumber":3,"parameterNumberName":"V-component_of_WINDS"},"data":[0.0,0.0,0.0,0.0,0.0,0.0,0.0,0.0,0.0,0.0,0.0,0.0,0.0,0.0,0.0,0.0,0.0,0.0,0.0,0.0,0.0,0.0,0.0,0.0,0.0,0.0,0.0,0.0,0.0,0.0,0.0,0.0,0.0,0.0,0.0,0.0,0.0,0.0,0.0,0.0,0.0,0.0,0.0,0.0,0.0,0.0,0.0,0.0,0.0,0.0,0.0,0.0,0.0,0.0,0.0,0.0,0.0,0.0,0.0,0.0,0.0,0.0,0.0,0.0,0.0,0.0,0.0,0.0,0.0,0.0,0.0,0.0,0.0,0.0,0.0,0.0,0.0,0.0,0.0,0.0,0.0,0.0,0.0,0.0,0.0,0.0,0.0,0.0,0.0,0.0,-0.371,-0.4053,-0.4311,-0.4956,-0.61,-0.5967,-0.6218,-0.7122,0.0,0.0,0.0,0.0,0.0,0.0,0.0,0.0,0.0,0.0,0.0,0.0,0.0,0.0,0.0,0.0,0.0,0.0,0.0,0.0,0.0,0.0,0.0,0.0,0.0,0.0,0.0,0.0,0.0,0.0,0.0,0.0,0.0,0.0,0.0,0.0,0.0,0.0,0.0,0.0,0.0,0.0,0.0,0.0,0.0,0.0,0.0,0.0,0.0,0.0,0.0,0.0,0.0,0.0,0.0,0.0,0.0,0.0,0.0,0.0,0.0,0.0,0.0,0.0,0.0,0.0,0.0,0.0,0.0,0.0,0.0,0.0,0.0,0.0,0.0,0.0,0.0,0.0,0.0,0.0,0.0,0.0,0.0,0.0,0.0,0.0,0.0,0.0,0.0,0.0,0.0,0.0,0.0,0.0,0.0,0.0,0.0,0.0,0.0,0.0,0.0,0.0,0.0,0.0,-0.3788,-0.4391,-0.4491,-0.4956,-0.61,-0.5967,-0.6218,-0.7122,0.0,0.0,0.0,0.0,0.0,0.0,0.0,0.0,0.0,0.0,0.0,0.0,0.0,0.0,0.0,0.0,0.0,0.0,0.0,0.0,0.0,0.0,0.0,0.0,0.0,0.0,0.0,0.0,0.0,0.0,0.0,0.0,0.0,0.0,0.0,0.0,0.0,0.0,0.0,0.0,0.0,0.0,0.0,0.0,0.0,0.0,0.0,0.0,0.0,0.0,0.0,0.0,0.0,0.0,0.0,0.0,0.0,0.0,0.0,0.0,0.0,0.0,0.0,0.0,0.0,0.0,0.0,0.0,0.0,0.0,0.0,0.0,0.0,0.0,0.0,0.0,0.0,0.0,0.0,0.0,0.0,0.0,0.0,0.0,0.0,0.0,0.0,0.0,0.0,0.0,0.0,0.0,0.0,0.0,0.0,0.0,0.0,0.0,0.0,0.0,0.0,0.0,0.0,-0.383,-0.4066,-0.4237,-0.4297,-0.4733,-0.578,-0.5634,-0.5909,-0.69,-0.6269,0.0,0.0,0.0,0.0,0.0,0.0,0.0,0.0,0.0,0.0,0.0,0.0,0.0,0.0,0.0,0.0,0.0,0.0,0.0,0.0,0.0,0.0,0.0,0.0,0.0,0.0,0.0,0.0,0.0,0.0,0.0,0.0,0.0,0.0,0.0,0.0,0.0,0.0,0.0,0.0,0.0,0.0,0.0,0.0,0.0,0.0,0.0,0.0,0.0,0.0,0.0,0.0,0.0,0.0,0.0,0.0,0.0,0.0,0.0,0.0,0.0,0.0,0.0,0.0,0.0,0.0,0.0,0.0,0.0,0.0,0.0,0.0,0.0,0.0,0.0,0.0,0.0,0.0,0.0,0.0,0.0,0.0,0.0,0.0,0.0,0.0,0.0,0.0,0.0,0.0,0.0,0.0,0.0,0.0,0.0,0.0,0.0,0.0,0.0,0.0,0.0,0.0,-0.4012,-0.4179,-0.4005,-0.4175,-0.4652,-0.555,-0.54,-0.5661,-0.6624,-0.5954,0.0,0.0,0.0,0.0,0.0,0.0,0.0,0.0,0.0,0.0,0.0,0.0,0.0,0.0,0.0,0.0,0.0,0.0,0.0,0.0,0.0,0.0,0.0,0.0,0.0,0.0,0.0,0.0,0.0,0.0,0.0,0.0,0.0,0.0,0.0,0.0,0.0,0.0,0.0,0.0,0.0,0.0,0.0,0.0,0.0,0.0,0.0,0.0,0.0,0.0,0.0,0.0,0.0,0.0,0.0,0.0,0.0,0.0,0.0,0.0,0.0,0.0,0.0,0.0,0.0,0.0,0.0,0.0,0.0,0.0,0.0,0.0,0.0,0.0,0.0,0.0,0.0,0.0,0.0,0.0,0.0,0.0,0.0,0.0,0.0,0.0,0.0,0.0,0.0,0.0,0.0,0.0,0.0,0.0,0.0,0.0,0.0,0.0,0.0,0.0,0.0,0.0,-0.3744,-0.4009,-0.4019,-0.442,-0.4911,-0.5541,-0.554,-0.5739,-0.6398,-0.5681,0.0,0.0,0.0,0.0,0.0,0.0,0.0,0.0,0.0,0.0,0.0,0.0,0.0,0.0,0.0,0.0,0.0,0.0,0.0,0.0,0.0,0.0,0.0,0.0,0.0,0.0,0.0,0.0,0.0,0.0,0.0,0.0,0.0,0.0,0.0,0.0,0.0,0.0,0.0,0.0,0.0,0.0,0.0,0.0,0.0,0.0,0.0,0.0,0.0,0.0,0.0,0.0,0.0,0.0,0.0,0.0,0.0,0.0,0.0,0.0,0.0,0.0,0.0,0.0,0.0,0.0,0.0,0.0,0.0,0.0,0.0,0.0,0.0,0.0,0.0,0.0,0.0,0.0,0.0,0.0,0.0,0.0,0.0,0.0,0.0,0.0,0.0,0.0,0.0,0.0,0.0,0.0,0.0,0.0,0.0,0.0,0.0,0.0,0.0,0.0,0.0,0.0,-0.3821,-0.3968,-0.3791,-0.3964,-0.4447,-0.5161,-0.5188,-0.5471,-0.612,0.0,0.0,0.0,0.0,0.0,0.0,0.0,0.0,0.0,0.0,0.0,0.0,0.0,0.0,0.0,0.0,0.0,0.0,0.0,0.0,0.0,0.0,0.0,0.0,0.0,0.0,0.0,0.0,0.0,0.0,0.0,0.0,0.0,0.0,0.0,0.0,0.0,0.0,0.0,0.0,0.0,0.0,0.0,0.0,0.0,0.0,0.0,0.0,0.0,0.0,0.0,0.0,0.0,0.0,0.0,0.0,0.0,0.0,0.0,0.0,0.0,0.0,0.0,0.0,0.0,0.0,0.0,0.0,0.0,0.0,0.0,0.0,0.0,0.0,0.0,0.0,0.0,0.0,0.0,0.0,0.0,0.0,0.0,0.0,0.0,0.0,0.0,0.0,0.0,0.0,0.0,0.0,0.0,0.0,0.0,0.0,0.0,0.0,0.0,0.0,0.0,0.0,-0.3605,-0.3757,-0.3788,-0.3622,-0.3934,-0.4402,-0.4932,-0.5204,-0.5484,-0.5842,0.0,0.0,0.0,0.0,0.0,0.0,0.0,0.0,0.0,0.0,0.0,0.0,0.0,0.0,0.0,0.0,0.0,0.0,0.0,0.0,0.0,0.0,0.0,0.0,0.0,0.0,0.0,0.0,0.0,0.0,0.0,0.0,0.0,0.0,0.0,0.0,0.0,0.0,0.0,0.0,0.0,0.0,0.0,0.0,0.0,0.0,0.0,0.0,0.0,0.0,0.0,0.0,0.0,0.0,0.0,0.0,0.0,0.0,0.0,0.0,0.0,0.0,0.0,0.0,0.0,0.0,0.0,0.0,0.0,0.0,0.0,0.0,0.0,0.0,0.0,0.0,0.0,0.0,0.0,0.0,0.0,0.0,0.0,0.0,0.0,0.0,0.0,0.0,0.0,0.0,0.0,0.0,0.0,0.0,0.0,0.0,0.0,0.0,0.0,0.0,0.0,0.0,-0.3582,-0.3469,-0.3442,-0.3578,-0.4447,-0.5005,-0.5009,-0.5608,-0.5882,0.0,0.0,0.0,0.0,0.0,0.0,0.0,0.0,0.0,0.0,0.0,0.0,0.0,0.0,0.0,0.0,0.0,0.0,0.0,0.0,0.0,0.0,0.0,0.0,0.0,0.0,0.0,0.0,0.0,0.0,0.0,0.0,0.0,0.0,0.0,0.0,0.0,0.0,0.0,0.0,0.0,0.0,0.0,0.0,0.0,0.0,0.0,0.0,0.0,0.0,0.0,0.0,0.0,0.0,0.0,0.0,0.0,0.0,0.0,0.0,0.0,0.0,0.0,0.0,0.0,0.0,0.0,0.0,0.0,0.0,0.0,0.0,0.0,0.0,0.0,0.0,0.0,0.0,0.0,0.0,0.0,0.0,0.0,0.0,0.0,0.0,0.0,0.0,0.0,0.0,0.0,0.0,0.0,0.0,0.0,0.0,0.0,0.0,0.0,0.0,0.0,0.0,0.0,-0.3502,-0.3381,-0.3306,-0.3442,-0.4005,-0.4526,-0.4966,-0.5503,-0.5745,-0.5626,0.0,0.0,0.0,0.0,0.0,0.0,0.0,0.0,0.0,0.0,0.0,0.0,0.0,0.0,0.0,0.0,0.0,0.0,0.0,0.0,0.0,0.0,0.0,0.0,0.0,0.0,0.0,0.0,0.0,0.0,0.0,0.0,0.0,0.0,0.0,0.0,0.0,0.0,0.0,0.0,0.0,0.0,0.0,0.0,0.0,0.0,0.0,0.0,0.0,0.0,0.0,0.0,0.0,0.0,0.0,0.0,0.0,0.0,0.0,0.0,0.0,0.0,0.0,0.0,0.0,0.0,0.0,0.0,0.0,0.0,0.0,0.0,0.0,0.0,0.0,0.0,0.0,0.0,0.0,0.0,0.0,0.0,0.0,0.0,0.0,0.0,0.0,0.0,0.0,0.0,0.0,0.0,0.0,0.0,0.0,0.0,0.0,0.0,0.0,0.0,0.0,0.0,-0.3655,-0.342,-0.3262,-0.3398,-0.3877,-0.4399,-0.4961,-0.5437,-0.57,-0.5746,0.0,0.0,0.0,0.0,0.0,0.0,0.0,0.0,0.0,0.0,0.0,0.0,0.0,0.0,0.0,0.0,0.0,0.0,0.0,0.0,0.0,0.0,0.0,0.0,0.0,0.0,0.0,0.0,0.0,0.0,0.0,0.0,0.0,0.0,0.0,0.0,0.0,0.0,0.0,0.0,0.0,0.0,0.0,0.0,0.0,0.0,0.0,0.0,0.0,0.0,0.0,0.0,0.0,0.0,0.0,0.0,0.0,0.0,0.0,0.0,0.0,0.0,0.0,0.0,0.0,0.0,0.0,0.0,0.0,0.0,0.0,0.0,0.0,0.0,0.0,0.0,0.0,0.0,0.0,0.0,0.0,0.0,0.0,0.0,0.0,0.0,0.0,0.0,0.0,0.0,0.0,0.0,0.0,0.0,0.0,0.0,0.0,0.0,0.0,0.0,0.0,0.0,-0.391,-0.3514,-0.3217,-0.335,-0.3921,-0.4491,-0.4961,-0.548,-0.5851,-0.6009,0.0,0.0,0.0,0.0,0.0,0.0,0.0,0.0,0.0,0.0,0.0,0.0,0.0,0.0,0.0,0.0,0.0,0.0,0.0,0.0,0.0,0.0,0.0,0.0,0.0,0.0,0.0,0.0,0.0,0.0,0.0,0.0,0.0,0.0,0.0,0.0,0.0,0.0,0.0,0.0,0.0,0.0,0.0,0.0,0.0,0.0,0.0,0.0,0.0,0.0,0.0,0.0,0.0,0.0,0.0,0.0,0.0,0.0,0.0,0.0,0.0337,0.0,0.0,0.0,0.0,0.0,0.0,0.0,0.0,0.0,0.0,0.0,0.0,0.0,0.0,0.0,0.0,0.0,0.0,0.0,0.0,0.0,0.0,0.0,0.0,0.0,0.0,0.0,0.0,0.0,0.0,0.0,0.0,0.0,0.0,0.0,0.0,0.0,0.0,0.0,0.0,0.0,-0.3685,-0.3288,-0.2998,-0.3081,-0.3957,-0.4613,-0.4826,-0.5707,-0.6163,-0.6009,-0.5936,0.0,0.0,0.0,0.0,0.0,0.0,0.0,0.0,0.0,0.0,0.0,0.0,0.0,0.0,0.0,0.0,0.0,0.0,0.0,0.0,0.0,0.0,0.0,0.0,0.0,0.0,0.0,0.0,0.0,0.0,0.0,0.0,0.0,0.0,0.0,0.0,0.0,0.0,0.0,0.0,0.0,0.0,0.0,0.0,0.0,0.0,0.0,0.0,0.0,0.0,0.0,0.0,0.0,0.0,0.0,0.0,0.0,0.0,0.0,0.0,-0.0134,0.0,0.0,0.0,0.0,0.0,0.0,0.0,0.0,0.0,0.0,0.0,0.0,0.0,0.0,0.0,0.0,0.0,0.0,0.0,0.0,0.0,0.0,0.0,0.0,0.0,0.0,0.0,0.0,0.0,0.0,0.0,0.0,0.0,0.0,0.0,0.0,0.0,0.0,0.0,0.0,-0.3857,-0.3347,-0.2948,-0.299,-0.3565,-0.4176,-0.4735,-0.5308,-0.578,-0.6162,-0.6064,0.0,0.0,0.0,0.0,0.0,0.0,0.0,0.0,0.0,0.0,0.0,0.0,0.0,0.0,0.0,0.0,0.0,0.0,0.0,0.0,0.0,0.0,0.0,0.0,0.0,0.0,0.0,0.0,0.0,0.0,0.0,0.0,0.0,0.0,0.0,0.0,0.0,0.0,0.0,0.0,0.0,0.0,0.0,0.0,0.0,0.0,0.0,0.0,0.0,0.0,0.0,0.0,0.0,0.0414,0.0621,0.0257,0.0617,0.0822,0.0769,0.0298,0.0,-0.0151,-0.104,0.0,0.0,0.0,0.0,0.0,0.0,0.0,0.0,0.0,0.0,0.0,0.0,0.0,0.0,0.0,0.0,0.0,0.0,0.0,0.0,0.0,0.0,0.0,0.0,-0.1058,-0.0974,-0.1315,0.0,0.0,0.0,0.0,0.0,0.0,0.0,0.0,0.0,0.0,0.0,-0.3987,-0.3447,-0.2993,-0.2993,-0.3255,-0.3781,-0.4648,-0.4913,-0.5394,-0.6282,-0.615,-0.6023,0.0,0.0,0.0,0.0,0.0,0.0,0.0,0.0,0.0,0.0,0.0,0.0,0.0,0.0,0.0,0.0,0.0,0.0,0.0,0.0,0.0,0.0,0.0,0.0,0.0,0.0,0.0,0.0,0.0,0.0,0.0,0.0,0.1134,0.1271,0.0,0.0,0.0,0.0,0.0,0.0,0.0,0.0,0.0,0.0,0.0,0.0,0.0,-0.0406,0.0,0.0109,0.0332,0.0664,0.0798,0.0854,0.0775,0.0885,0.0885,0.0885,0.0826,0.0,-0.0101,-0.0206,0.0,0.0,0.0,0.0,0.0,0.0,0.0,0.0,0.0,0.0,0.0,0.0,0.0,0.0,0.0,0.0,0.0,0.0,0.0,0.0,0.0,0.0,-0.0466,-0.1467,-0.131,-0.1053,0.0,-0.2053,-0.2472,-0.2833,-0.2912,0.0,0.0,0.0,0.0,0.0,0.0,0.0,-0.3691,-0.3249,-0.2912,-0.2912,-0.3697,-0.4303,-0.443,-0.5313,-0.589,-0.6067,-0.6112,-0.6174,-0.6174,-0.6042,0.0,0.0,0.0,0.0,0.0,0.0,0.0,0.0,0.0,0.0,0.0,0.0,0.0,0.0,0.0,0.0,0.0,0.0,0.0,0.0,0.0,0.0,0.0,0.0,0.0,0.0,0.0,0.0,0.0,0.0808,0.0945,0.1007,0.0817,0.0693,0.0,0.0,0.0,0.0,0.0,0.0,0.0,0.0,0.0,0.0214,0.0268,0.0385,0.058,0.0647,0.077,0.0949,0.0962,0.0961,0.0947,0.093,0.0923,0.0922,0.0905,0.0717,0.0428,0.0107,-0.0313,-0.0858,0.0,0.0,0.0,0.0,-0.1593,-0.1919,-0.1408,-0.1521,-0.1873,-0.1891,0.0,0.0,0.0,0.0,0.0,0.0,0.0,0.0,0.0,0.0,-0.1541,-0.1762,-0.1604,-0.1551,-0.219,-0.2481,-0.2658,0.0,-0.2938,-0.3061,-0.308,0.0,0.0,0.0,0.0,-0.3181,-0.3757,-0.3327,-0.306,-0.333,-0.3701,-0.4176,-0.4744,-0.5226,-0.5626,-0.5976,-0.6062,-0.6099,-0.6179,-0.6157,-0.6067,0.0,0.0,0.0,0.0,0.0,0.0,0.0,0.0,0.0,0.0,0.0,0.0,0.0,0.0,0.0,0.0,0.0,0.0,0.0,0.0,0.0,0.0,0.0,0.0,0.0,0.0,0.0,0.0,0.0816,0.0871,0.0914,0.0821,0.0742,0.0,0.0,0.0,0.0,0.0,0.0,0.0392,0.0356,0.048,0.0907,0.0917,0.0946,0.0999,0.1,0.1,0.1,0.1,0.0996,0.0988,0.0965,0.0954,0.0954,0.093,0.0916,0.085,0.0438,0.0161,-0.0053,-0.0567,-0.0962,-0.1207,-0.1016,-0.1376,-0.1898,-0.1488,-0.1722,-0.2155,-0.2263,-0.2316,-0.244,-0.2771,0.0,0.0,0.0,0.0,-0.3243,-0.2823,-0.2581,-0.2435,-0.2279,-0.2125,-0.2179,-0.2794,-0.2961,-0.2961,0.0,-0.3059,-0.3197,-0.3222,0.0,0.0,0.0,0.0,-0.3265,-0.3684,-0.3324,-0.3187,-0.3512,-0.3791,-0.4205,-0.4874,-0.5184,-0.551,-0.5895,-0.5976,-0.6062,-0.6142,-0.6227,-0.6217,-0.6106,0.0,0.0,0.0,0.0,0.0,0.0,0.0,0.0,0.0,0.0,0.0,0.0,0.0,0.0,0.0,0.0,0.0,0.0,0.0,0.0,0.0,0.0,0.0,0.0,0.0,0.0,0.0,0.0,0.0,0.1468,0.1113,0.0,0.0,0.0,0.0,0.075,0.0753,0.0766,0.0846,0.0877,0.0851,0.0881,0.0969,0.0999,0.1031,0.1031,0.1031,0.1031,0.1031,0.1016,0.0988,0.0986,0.0986,0.0986,0.0984,0.0967,0.088,0.0851,0.0494,0.0,-0.0053,-0.0778,-0.1767,-0.115,-0.1429,-0.2023,-0.1488,-0.1449,-0.1673,-0.1785,-0.2128,-0.2493,-0.2542,-0.2838,0.0,0.0,-0.2544,-0.2566,-0.2652,-0.2286,-0.2122,-0.3246,-0.3077,-0.2794,-0.3413,-0.3633,-0.3646,0.0,-0.339,-0.3404,-0.3377,0.0,-0.3392,-0.3392,-0.3398,-0.3354,-0.3257,-0.3207,-0.321,-0.3207,-0.414,-0.4662,-0.4451,-0.5356,-0.5866,-0.5734,-0.5895,-0.6019,-0.6024,-0.6239,-0.6404,-0.6392,-0.6131,0.0,0.0,0.0,0.0,0.0,0.0,0.0,0.0,0.0,0.0,0.0,0.0,0.0,0.0,0.0,0.0,0.0,0.0,0.0,0.0,0.0,0.0,0.0,0.0,0.0,0.0,0.0,0.0,0.1084,0.0982,0.0,0.081,0.0825,0.0889,0.0889,0.0854,0.0878,0.0909,0.0921,0.089,0.0937,0.1012,0.1031,0.106,0.1061,0.1061,0.1061,0.1061,0.1055,0.1044,0.1026,0.1018,0.1016,0.0997,0.0982,0.0971,0.096,0.0811,0.0606,0.0606,0.0273,-0.0216,-0.0274,-0.0824,-0.1484,-0.1671,-0.2125,-0.2627,-0.2854,-0.3053,-0.3189,-0.3189,-0.3325,-0.3409,-0.3234,-0.3189,-0.3199,-0.3292,-0.3132,-0.3079,-0.3471,-0.3413,-0.3357,-0.3527,-0.3638,-0.3624,-0.3526,-0.3681,-0.3692,-0.3461,-0.3493,-0.3468,-0.3282,-0.3337,-0.339,-0.3335,-0.339,-0.3697,-0.4408,-0.4819,-0.5313,-0.5917,-0.6151,-0.6174,-0.6051,-0.6023,-0.6019,-0.6019,-0.619,-0.6319,-0.6416,-0.6223,-0.5955,0.0,0.0,0.0,0.0,0.0,0.0,0.0,0.0,0.0,0.0,0.0,0.0,0.0,0.0,0.0,0.0,0.0,0.0,0.0,0.0,0.0,0.0,0.0,0.0,0.0,0.1284,0.1391,0.0855,0.0842,0.086,0.0839,0.0865,0.0887,0.0953,0.0917,0.0937,0.0957,0.0907,0.093,0.0968,0.1043,0.1057,0.1075,0.1076,0.1076,0.1076,0.1076,0.1076,0.1075,0.1057,0.1048,0.1046,0.1027,0.1012,0.1003,0.1003,0.0973,0.0927,0.0917,0.068,0.0336,-0.0168,-0.0783,-0.151,-0.2125,-0.274,-0.3244,-0.3527,-0.3585,-0.3585,-0.3585,-0.3585,-0.3585,-0.3585,-0.3585,-0.3585,-0.3585,-0.3585,-0.3585,-0.3585,-0.3585,-0.3585,-0.3585,-0.3585,-0.3585,-0.3585,-0.3749,-0.3776,-0.3531,-0.352,-0.3542,-0.3354,-0.3411,-0.3463,-0.3463,-0.357,-0.3943,-0.4627,-0.5155,-0.5668,-0.6295,-0.6468,-0.6435,-0.6224,-0.6073,-0.5976,-0.5927,-0.6099,-0.6227,-0.6325,-0.6054,-0.5753,-0.5457,0.0,0.0,0.0,0.0,0.0,0.0,0.0,0.0,0.0,0.0,0.0,0.0,0.0,0.0,0.0,0.0,0.0,0.0,0.0,0.0,0.0,0.0,0.0,0.1576,0.159,0.1521,0.0914,0.0862,0.0898,0.0899,0.0926,0.0956,0.0986,0.0988,0.0988,0.099,0.1018,0.0969,0.1035,0.1061,0.1076,0.1076,0.1076,0.1076,0.1076,0.1076,0.1076,0.1076,0.1076,0.1076,0.1076,0.1076,0.106,0.1035,0.1035,0.1017,0.0986,0.0956,0.0463,-0.0224,-0.084,-0.1455,-0.2127,-0.2796,-0.3188,-0.3413,-0.3527,-0.3585,-0.3585,-0.3585,-0.3585,-0.3585,-0.3585,-0.3585,-0.3585,-0.3585,-0.3585,-0.3585,-0.3585,-0.3585,-0.3585,-0.3585,-0.3585,-0.3585,-0.3585,-0.3585,-0.3585,-0.3585,-0.3585,-0.3585,-0.3585,-0.3585,0.0,-0.3585,-0.3744,-0.3796,-0.3852,-0.5003,-0.5698,-0.5514,-0.631,-0.6616,-0.6246,-0.6079,-0.5933,-0.5804,-0.6062,-0.6196,-0.619,-0.5619,-0.5022,-0.443,0.0,0.0,0.0,0.0,0.0,0.0,0.0,0.0,0.0,0.0,0.0,0.0,0.0,0.0,0.0,0.0,0.0,0.0,0.0,0.0,0.0,0.2836,0.3092,0.2385,0.2295,0.2085,0.1574,0.1164,0.0906,0.0928,0.0879,0.0956,0.0986,0.0988,0.0998,0.102,0.1029,0.1043,0.1063,0.1072,0.1076,0.1076,0.1076,0.1076,0.1076,0.1076,0.1076,0.1076,0.1076,0.1076,0.1076,0.1076,0.1071,0.1064,0.1064,0.1047,0.1018,0.0988,0.0778,0.0407,-0.0232,-0.1086,-0.2015,-0.2238,-0.2631,-0.3081,-0.336,-0.3471,-0.3471,-0.3583,-0.3585,-0.3585,-0.3585,-0.3585,-0.3585,-0.3585,-0.3585,-0.3585,-0.3585,-0.3585,-0.3585,-0.3585,-0.3585,-0.3585,-0.3585,-0.3585,-0.3585,-0.3585,-0.3585,-0.3585,-0.3585,-0.3585,0.0,-0.3585,-0.3744,-0.4181,-0.5167,-0.5655,-0.623,-0.6982,-0.7012,-0.684,-0.6532,-0.6169,-0.6017,-0.6107,-0.6242,-0.6287,-0.6203,-0.5462,-0.5202,0.0,0.0,0.0,0.0,0.0,0.0,0.0,0.0,0.0,0.0,0.0,0.0,0.0,0.0,0.0,0.0,0.0,0.0,0.0,0.0,0.0,0.0,0.3357,0.3676,0.3458,0.2929,0.2298,0.1509,0.1135,0.0928,0.0959,0.0913,0.0993,0.1022,0.1037,0.1052,0.1069,0.1082,0.1091,0.1095,0.1107,0.1108,0.1095,0.1108,0.1114,0.1114,0.1114,0.1107,0.1095,0.1095,0.1088,0.1076,0.1076,0.1076,0.1076,0.1076,0.1066,0.0,0.0,0.0,0.0,0.0,-0.083,-0.1688,-0.1665,-0.1999,-0.2569,-0.2811,-0.3077,-0.3302,-0.3471,-0.3527,-0.3527,-0.3583,-0.3585,-0.3585,-0.3585,-0.3585,-0.3585,-0.3585,-0.3585,-0.3585,-0.3585,-0.3585,-0.3585,-0.3585,-0.3585,0.0,-0.3585,-0.3585,-0.3585,-0.3585,-0.3585,-0.3585,-0.3585,-0.3744,-0.407,-0.4893,-0.5332,-0.5819,-0.6475,-0.6632,0.0,0.0,0.0,-0.6264,-0.6363,-0.6462,0.0,0.0,0.0,0.0,0.0,0.0,0.0,0.0,-0.6044,-0.6446,0.0,0.0,0.0,0.0,0.0,0.0,0.0,0.0,0.0,0.0,0.0,0.0,0.0,0.0,0.0,0.0,0.3937,0.4264,0.4388,0.3458,0.2402,0.1344,0.1097,0.1014,0.1108,0.1079,0.1046,0.1146,0.1106,0.1123,0.1126,0.0,0.0,0.0,0.0,0.1153,0.1126,0.1153,0.1166,0.1166,0.1166,0.1151,0.1121,0.1121,0.1104,0.1076,0.1076,0.1076,0.1076,0.1076,0.1076,0.1073,0.1044,0.089,0.0744,0.0247,-0.0493,-0.1165,-0.1013,0.0,0.0,-0.2104,-0.2581,-0.3132,-0.3302,-0.3357,-0.3413,-0.3527,-0.3583,-0.3583,-0.3585,-0.3585,-0.3585,-0.3585,-0.3585,-0.3585,-0.3585,-0.3585,-0.3585,-0.3585,-0.3585,-0.3585,-0.3585,-0.3585,-0.3585,-0.3585,-0.3585,-0.3585,-0.3585,-0.3691,-0.3796,-0.3907,0.0,0.0,-0.4952,-0.5646,-0.585,-0.522,-0.6027,-0.6569,-0.6618,-0.6493,-0.6297,-0.5913,-0.5696,-0.5182,-0.4498,-0.5457,-0.577,-0.5538,-0.6129,-0.6557,0.0,0.0,0.0,0.0,0.0,0.0,0.0,0.0,0.0,0.0,0.0,0.0,0.0,0.0,0.0,0.3644,0.4123,0.432,0.3959,0.3627,0.3347,0.3125,0.2244,0.1667,0.1843,0.1332,0.1122,0.1317,0.1188,0.1132,0.1156,0.1164,0.1164,0.1157,0.1164,0.1164,0.1157,0.1164,0.1166,0.1166,0.0,0.0,0.1121,0.1121,0.1104,0.1076,0.1076,0.1076,0.1076,0.1076,0.1076,0.1073,0.1044,0.0901,0.083,0.081,0.0308,-0.0307,-0.0183,-0.084,-0.1762,-0.1984,-0.2461,-0.297,-0.3132,-0.3132,0.0,-0.3413,-0.3413,-0.3471,-0.3583,-0.3585,-0.3585,-0.3585,-0.3585,-0.3585,-0.3585,-0.3585,-0.3585,-0.3585,-0.3585,-0.3585,-0.3585,-0.3585,-0.3585,-0.3585,-0.3585,-0.3585,-0.3585,-0.3638,-0.3855,-0.4453,-0.4673,-0.4893,-0.5324,-0.5377,-0.5276,-0.5076,-0.5663,-0.6207,-0.6665,-0.5948,-0.5641,-0.5896,-0.5108,-0.5022,-0.5596,-0.5965,-0.6333,-0.675,-0.6887,-0.6981,0.0,0.0,0.0,0.0,0.0,0.0,0.0,0.0,0.0,0.0,0.0,0.3587,0.3754,0.0,0.4046,0.4281,0.4467,0.4519,0.4349,0.4239,0.3796,0.2905,0.2625,0.2298,0.1848,0.1862,0.1743,0.1397,0.1277,0.1229,0.1187,0.1203,0.1205,0.1189,0.1204,0.1204,0.1189,0.1204,0.1288,0.1288,0.1288,0.1196,0.1166,0.1166,0.115,0.1121,0.1105,0.1098,0.1097,0.1082,0.1076,0.1074,0.106,0.0923,0.079,0.0973,0.0774,0.0385,0.0498,-0.0244,-0.1257,-0.139,-0.2043,-0.2802,-0.2968,-0.3023,-0.3079,-0.3302,-0.3413,-0.3413,-0.3583,-0.3585,-0.3585,-0.3585,-0.3585,-0.3585,-0.3585,-0.3585,-0.3585,-0.3585,-0.3585,-0.3585,-0.3585,-0.3585,-0.3585,-0.3585,-0.3585,-0.3585,-0.3585,-0.3585,-0.3749,-0.4128,-0.4128,-0.4239,-0.4512,-0.4443,-0.4617,-0.5099,-0.5419,-0.5739,-0.6,-0.6152,-0.6161,-0.6062,-0.5291,-0.5291,-0.6057,-0.5833,-0.6046,-0.6647,-0.6972,-0.7085,0.0,0.0,0.0,0.0,0.0,0.0,0.0,0.4244,0.389,0.4138,0.4172,0.4244,0.4523,0.4601,0.4641,0.4878,0.4879,0.4842,0.5005,0.4897,0.4225,0.2651,0.3027,0.307,0.2159,0.247,0.2452,0.176,0.1585,0.1404,0.1371,0.1399,0.1402,0.1374,0.14,0.1401,0.1297,0.1323,0.1335,0.1335,0.1335,0.1241,0.1212,0.1212,0.1195,0.1165,0.1134,0.1121,0.1119,0.1088,0.1076,0.1076,0.1076,0.1009,0.0876,0.1009,0.1009,0.087,0.083,0.0062,-0.0862,-0.1054,-0.1834,-0.2797,-0.2836,-0.2889,-0.2941,-0.3198,-0.3304,-0.336,-0.3527,-0.3583,-0.3583,-0.3585,-0.3585,-0.3585,-0.3585,-0.3585,-0.3585,-0.3585,-0.3585,-0.3585,-0.3585,-0.3585,-0.3585,-0.3585,-0.3585,-0.3585,-0.3585,-0.3585,-0.3585,-0.3585,-0.3585,-0.3585,-0.3585,-0.3585,-0.4024,-0.5062,-0.5171,-0.5171,-0.5277,-0.6154,-0.6431,-0.6046,-0.5445,-0.55,-0.6209,-0.5714,-0.5769,-0.6372,-0.6864,-0.7085,0.4863,0.4863,0.5209,0.65,0.6102,0.5538,0.0,0.5276,0.4629,0.4785,0.4776,0.4794,0.4867,0.4871,0.4878,0.5066,0.5144,0.5186,0.5304,0.5243,0.4894,0.4311,0.4207,0.4174,0.4238,0.3309,0.2744,0.2884,0.2108,0.1713,0.1797,0.1805,0.1806,0.1801,0.1805,0.1727,0.1566,0.1569,0.1493,0.1335,0.1335,0.1241,0.1212,0.1212,0.1195,0.1165,0.1134,0.1121,0.1119,0.1088,0.1076,0.1076,0.1076,0.1076,0.1076,0.1076,0.1076,0.1008,0.0334,-0.0327,-0.1024,-0.1654,-0.2368,-0.2972,-0.2836,-0.2811,-0.2853,-0.2941,-0.2972,-0.3028,-0.336,-0.3413,-0.3471,-0.3583,-0.3585,-0.3585,-0.3585,-0.3585,-0.3585,-0.3585,-0.3585,-0.3585,-0.3585,-0.3585,-0.3585,-0.3585,-0.3585,-0.3585,-0.3585,-0.3585,-0.3585,-0.3585,-0.3585,-0.3585,-0.3585,-0.3585,-0.386,-0.4574,-0.457,-0.4787,-0.5277,-0.4956,-0.5007,-0.5386,-0.4846,-0.5117,-0.6209,-0.6154,-0.6426,-0.7025,-0.7085,-0.7085,0.5443,0.5871,0.6345,0.6975,0.6848,0.6531,0.6421,0.5742,0.5121,0.5031,0.4956,0.4901,0.5011,0.5014,0.51,0.5369,0.5339,0.5424,0.5644,0.5455,0.527,0.5147,0.5173,0.4783,0.3686,0.363,0.3295,0.2539,0.2114,0.1865,0.1882,0.1887,0.1887,0.1887,0.1887,0.1887,0.1807,0.1807,0.165,0.1493,0.1493,0.1407,0.1239,0.1239,0.1221,0.1191,0.1161,0.1138,0.1119,0.1088,0.1076,0.1076,0.1076,0.1076,0.1076,0.1076,0.1076,0.1073,0.0726,0.0195,-0.0449,-0.1199,-0.1866,-0.2388,-0.2736,-0.2828,-0.2809,-0.2889,-0.2916,-0.297,-0.319,-0.3244,-0.3244,-0.3413,-0.3471,-0.3527,-0.3583,-0.3585,-0.3585,-0.3585,-0.3585,-0.3585,-0.3585,-0.3585,-0.3585,-0.3585,-0.3585,-0.3585,-0.3585,-0.3585,-0.3585,-0.3585,-0.3585,-0.3585,-0.3585,-0.3585,-0.3694,-0.3968,-0.4298,-0.4463,-0.4298,-0.4736,-0.4897,-0.4846,-0.4625,-0.5062,-0.6209,-0.5555,-0.5882,-0.7085,-0.6756,-0.6756,0.6109,0.6637,0.7065,0.7438,0.7455,0.7302,0.6753,0.6186,0.5597,0.521,0.5069,0.5014,0.5128,0.5128,0.5223,0.5462,0.5513,0.5624,0.5872,0.5719,0.5596,0.5754,0.5835,0.5293,0.3668,0.397,0.3773,0.2468,0.2188,0.2089,0.2037,0.2043,0.2043,0.2043,0.2043,0.2043,0.1963,0.1963,0.1886,0.165,0.165,0.1493,0.1415,0.1335,0.1245,0.1223,0.1192,0.1161,0.1131,0.1101,0.1083,0.1076,0.1076,0.1076,0.1076,0.1076,0.1076,0.1073,0.0789,0.0326,-0.0324,-0.108,-0.1767,-0.2325,-0.2743,-0.2899,-0.2877,-0.2877,-0.2899,-0.2893,-0.303,-0.3021,-0.3077,-0.3299,-0.3302,-0.3357,-0.3527,-0.3527,-0.3583,-0.3583,-0.3585,-0.3585,-0.3585,-0.3585,-0.3585,-0.3585,-0.3585,-0.3585,-0.3585,-0.3585,-0.3585,-0.3585,-0.3585,-0.3585,-0.3585,-0.3585,-0.3585,-0.3585,-0.4024,-0.4079,-0.3641,-0.4405,-0.4736,-0.4519,-0.4353,-0.4791,-0.5937,-0.4956,-0.5336,-0.6864,-0.6426,-0.6534,0.6877,0.6878,0.6912,0.822,0.813,0.7593,0.718,0.6637,0.5987,0.5403,0.5297,0.5297,0.5297,0.5297,0.5301,0.5305,0.5653,0.588,0.5888,0.5884,0.5941,0.617,0.5986,0.5647,0.5108,0.4608,0.4044,0.3403,0.2696,0.2312,0.2504,0.251,0.251,0.251,0.251,0.2353,0.2196,0.2196,0.2119,0.1887,0.1729,0.1572,0.1572,0.1415,0.1335,0.1254,0.1224,0.1194,0.1163,0.1132,0.1102,0.1076,0.1076,0.1076,0.1076,0.1076,0.1076,0.1008,0.0268,-0.047,-0.1208,-0.1941,-0.2611,-0.3135,-0.3109,-0.3083,-0.3046,-0.2872,-0.2823,-0.2803,-0.2884,-0.2916,-0.2914,-0.3077,-0.313,-0.3188,-0.3357,-0.3413,-0.3469,-0.3583,-0.3585,-0.3585,-0.3585,-0.3585,-0.3585,-0.3585,-0.3585,-0.3585,-0.3585,-0.3585,-0.3585,-0.3585,-0.3585,-0.3585,-0.3585,-0.3585,-0.3585,-0.3585,-0.3641,-0.3641,-0.3585,-0.3638,-0.3913,-0.4463,-0.3913,-0.4187,-0.5332,-0.4791,-0.5117,-0.6209,-0.6209,-0.6534,0.7006,0.7379,0.7789,0.8532,0.865,0.8456,0.8078,0.745,0.675,0.615,0.5723,0.5462,0.5297,0.5297,0.5333,0.545,0.573,0.5929,0.6104,0.6121,0.6145,0.6203,0.6158,0.5872,0.5325,0.5117,0.0,0.4262,0.3489,0.3124,0.3357,0.2821,0.2511,0.2511,0.2511,0.2431,0.2431,0.2431,0.2275,0.2119,0.1886,0.1729,0.1572,0.1493,0.1415,0.1333,0.1204,0.1176,0.1163,0.1112,0.1084,0.1076,0.1076,0.1076,0.1076,0.1076,0.1076,0.1008,0.0269,-0.0134,-0.0605,-0.1812,-0.2348,-0.2604,-0.2986,-0.3091,-0.3054,-0.2877,-0.2828,-0.2807,-0.2772,-0.2747,-0.2802,-0.2914,-0.297,-0.3023,-0.3188,-0.3188,-0.3244,-0.3413,-0.3471,-0.3471,-0.3583,-0.3585,-0.3585,-0.3585,-0.3585,-0.3585,-0.3585,-0.3585,-0.3585,-0.3585,-0.3585,-0.3585,-0.3585,-0.3585,-0.3585,-0.3585,-0.3585,-0.3585,-0.3585,-0.3527,-0.358,-0.3744,-0.3466,-0.3627,-0.445,-0.3849,-0.4181,-0.5336,-0.4944,-0.5214,0.7592,0.8001,0.8345,0.8862,0.9064,0.9001,0.8527,0.8043,0.7422,0.6531,0.6095,0.5726,0.5416,0.5362,0.542,0.5659,0.5843,0.6046,0.6224,0.6233,0.6256,0.6452,0.6346,0.6205,0.5966,0.5984,0.0,0.4762,0.4193,0.4047,0.4213,0.3444,0.2978,0.2978,0.2666,0.2511,0.2511,0.2511,0.2431,0.2196,0.2041,0.1886,0.1572,0.165,0.1572,0.1333,0.128,0.125,0.1236,0.1182,0.1221,0.121,0.1277,0.121,0.1143,0.1143,0.1143,0.1008,0.0269,-0.0202,-0.0605,-0.1812,-0.2348,-0.2609,-0.3023,-0.3138,-0.3101,-0.2924,-0.2872,-0.2844,-0.2721,-0.2691,-0.2747,-0.2805,-0.2805,-0.2858,-0.3023,-0.3023,-0.3079,-0.3244,-0.3357,-0.3413,-0.3527,-0.3583,-0.3585,-0.3585,-0.3583,-0.3527,-0.3585,-0.3585,-0.3585,-0.3585,-0.3585,-0.3585,-0.3585,-0.3585,-0.3585,-0.3585,-0.3585,-0.3583,-0.3527,-0.3469,-0.3357,-0.3299,-0.3188,-0.3294,-0.368,-0.3294,-0.3627,-0.4563,-0.4174,-0.4505,0.857,0.8707,0.8709,0.9263,0.9413,0.9256,0.858,0.8427,0.8016,0.6653,0.635,0.6145,0.5634,0.5488,0.5558,0.5747,0.5992,0.6186,0.6384,0.6307,0.6432,0.686,0.6617,0.6583,0.7003,0.7036,0.0,0.5121,0.0,0.4949,0.5074,0.43,0.383,0.383,0.3056,0.2588,0.2588,0.2511,0.2431,0.2196,0.2196,0.204,0.165,0.1807,0.1729,0.1334,0.1453,0.1416,0.1237,0.1344,0.1378,0.1344,0.1547,0.148,0.1344,0.1344,0.121,0.1008,0.0269,-0.047,-0.121,-0.2013,-0.2686,-0.3159,-0.3159,-0.3226,-0.3189,-0.3068,-0.3015,-0.2974,-0.2738,-0.2691,-0.2691,-0.2691,-0.2691,-0.2747,-0.286,-0.2916,-0.2914,-0.3077,-0.3244,-0.3357,-0.3357,-0.3471,-0.3583,-0.3583,-0.3471,-0.3413,-0.3583,-0.3583,-0.3583,-0.3583,-0.3585,-0.3585,-0.3583,-0.3585,-0.3583,-0.3583,-0.3583,-0.3527,-0.3413,-0.3357,-0.3302,-0.3077,-0.3077,-0.3077,-0.3077,-0.3077,-0.335,-0.3953,-0.3953,-0.4233,0.9215,0.941,0.9482,0.9644,0.9629,0.951,0.9354,0.889,0.8384,0.779,0.7019,0.6304,0.5838,0.559,0.551,0.5562,0.6019,0.6419,0.6622,0.6872,0.7107,0.7355,0.7193,0.7182,0.735,0.7228,0.0,0.0,0.6153,0.5777,0.5922,0.5157,0.4691,0.4691,0.4457,0.4068,0.3443,0.2821,0.251,0.2431,0.2431,0.2275,0.2041,0.2119,0.1962,0.1725,0.1652,0.1615,0.1599,0.1526,0.1557,0.1547,0.1547,0.1547,0.1547,0.1547,0.1412,0.1143,0.047,0.0,-0.0605,-0.2351,-0.2753,-0.2551,-0.3025,-0.3226,-0.3189,-0.3068,-0.3015,-0.2974,-0.2738,-0.2691,-0.2691,-0.2691,-0.2691,-0.2691,-0.2747,-0.2747,-0.2802,-0.2914,-0.3079,-0.3188,-0.3188,-0.3188,-0.3244,-0.3244,-0.3188,-0.3244,-0.3413,-0.3471,-0.3471,-0.3471,-0.3527,-0.3583,-0.3471,-0.3527,-0.3471,-0.3244,-0.3357,-0.3357,-0.3188,-0.3081,-0.3026,-0.297,-0.2856,-0.28,-0.28,-0.28,-0.2856,-0.3021,-0.3021,-0.3299,0.9784,0.9913,0.9895,0.9799,0.974,0.9644,0.9453,0.9118,0.868,0.7995,0.7182,0.646,0.5991,0.5677,0.5553,0.5638,0.6154,0.6619,0.6876,0.7118,0.7407,0.7767,0.7649,0.7574,0.7767,0.7568,0.7534,0.0,0.7007,0.6684,0.678,0.6009,0.5544,0.5544,0.5157,0.4611,0.383,0.3287,0.2899,0.2511,0.2511,0.2431,0.2196,0.2275,0.2198,0.1882,0.0,0.1824,0.167,0.1721,0.1748,0.1748,0.1817,0.1817,0.1748,0.1748,0.1614,0.1344,0.0538,0.0403,0.0269,-0.1679,-0.2216,-0.2214,-0.2284,-0.2688,-0.3131,-0.2674,-0.2763,-0.2973,-0.2797,-0.275,-0.274,-0.2701,-0.2691,-0.2691,-0.2691,-0.2691,-0.2747,-0.286,-0.297,-0.3021,-0.3077,-0.3074,-0.3074,-0.3074,-0.3077,-0.3079,-0.3193,-0.3246,-0.3244,-0.3244,-0.3357,-0.3357,-0.3299,-0.3357,-0.3299,-0.313,-0.3188,-0.3188,-0.3023,-0.2914,-0.286,-0.2805,-0.2747,-0.2691,-0.2691,-0.2691,-0.2691,-0.2691,-0.2691,-0.2858,1.0238,1.0213,1.0051,0.9903,0.9851,0.971,0.9291,0.9224,0.8888,0.7822,0.7193,0.6678,0.6157,0.5798,0.5632,0.5835,0.6258,0.6676,0.7121,0.7315,0.7586,0.8066,0.7982,0.7913,0.8161,0.7953,0.7804,0.7804,0.7642,0.7561,0.7484,0.6784,0.6395,0.6395,0.5622,0.4768,0.3988,0.383,0.3366,0.2511,0.2511,0.2431,0.2275,0.2431,0.2276,0.1959,0.2089,0.197,0.1815,0.1928,0.1951,0.1951,0.2154,0.2087,0.1951,0.1951,0.1817,0.1547,0.0806,0.0874,0.1076,-0.0538,-0.1478,-0.1812,-0.1276,-0.1949,-0.2739,-0.2079,-0.2319,-0.2795,-0.2572,-0.253,-0.251,-0.2486,-0.2465,-0.2465,-0.2465,-0.2465,-0.2521,-0.2691,-0.2747,-0.2802,-0.3021,-0.3019,-0.3019,-0.3019,-0.2968,-0.286,-0.286,-0.2968,-0.3077,-0.3077,-0.3077,-0.3074,-0.3077,-0.3077,-0.3074,-0.3074,-0.3074,-0.3023,-0.286,-0.286,-0.2805,-0.2691,-0.2691,-0.2691,-0.2691,-0.2691,-0.2691,-0.2691,-0.2691,-0.2691,1.0454,1.0419,1.0368,1.0265,1.011,0.9864,0.944,0.9316,0.0,0.8236,0.7506,0.6836,0.6359,0.5781,0.5415,0.5628,0.599,0.6473,0.714,0.7518,0.7864,0.8281,0.8328,0.8286,0.8322,0.8178,0.0,0.0,0.8025,0.7872,0.7484,0.7326,0.7249,0.7249,0.6472,0.5622,0.4768,0.4144,0.3366,0.2511,0.2511,0.251,0.2431,0.251,0.2433,0.2426,0.2311,0.0,0.2181,0.2136,0.2154,0.2154,0.2154,0.2154,0.2154,0.2154,0.2018,0.1817,0.1681,0.1614,0.1277,-0.0538,-0.0806,-0.047,-0.0941,-0.1277,-0.1403,-0.1169,-0.1159,-0.1269,-0.1254,-0.1234,-0.1223,-0.124,-0.1229,-0.1229,-0.1229,-0.1229,-0.1342,-0.1902,-0.2015,-0.2183,-0.2689,-0.2745,-0.2745,-0.2745,-0.2747,-0.2747,-0.2747,-0.2858,-0.2914,-0.2914,-0.3021,-0.3077,-0.297,-0.3021,-0.3021,-0.28,-0.2858,-0.2858,-0.2747,-0.2747,-0.2747,-0.2691,-0.2691,-0.2691,-0.2691,-0.2691,-0.2691,-0.2691,-0.2691,-0.2691,1.0184,1.0049,0.9954,0.9995,0.9841,0.965,0.9227,0.0,0.0,0.8165,0.7537,0.6965,0.6496,0.5985,0.5634,0.5624,0.6214,0.689,0.7619,0.8354,0.9023,0.9502,0.9691,0.983,0.983,0.9231,0.8851,0.8851,0.8403,0.8025,0.7795,0.7718,0.7524,0.7354,0.6969,0.6317,0.5343,0.4963,0.4365,0.3545,0.3589,0.3587,0.3547,0.3716,0.35,0.2994,0.296,0.2698,0.2326,0.2204,0.2221,0.2221,0.2221,0.2221,0.2221,0.2221,0.2154,0.2018,0.1951,0.1817,0.1614,0.0605,0.0269,0.0134,0.0067,-0.047,-0.1005,-0.0529,-0.0725,-0.0978,-0.0936,-0.0914,-0.0956,-0.0925,-0.0905,-0.0894,-0.0894,-0.0894,-0.1006,-0.1285,-0.1341,-0.1398,-0.1734,-0.179,-0.1846,-0.2183,-0.224,-0.2352,-0.2635,-0.2747,-0.2805,-0.2805,-0.2856,-0.2856,-0.2805,-0.2856,-0.2856,-0.2691,-0.2747,-0.2747,-0.2691,-0.2691,-0.2691,-0.2691,-0.2691,-0.2691,-0.2691,-0.2691,-0.2691,-0.2691,-0.2691,-0.2691,0.9898,0.9724,0.9526,0.9713,0.9691,0.9498,0.9048,0.8911,0.867,0.8012,0.753,0.7105,0.6732,0.6255,0.5902,0.5756,0.6335,0.7088,0.8023,0.8982,0.9817,1.0491,1.0839,0.0,1.1111,1.0301,0.0,0.96,0.8713,0.8116,0.804,0.7816,0.758,0.7245,0.7167,0.6657,0.5728,0.5728,0.5297,0.4506,0.4593,0.4588,0.4512,0.4793,0.453,0.377,0.3698,0.322,0.0,0.2287,0.2234,0.2221,0.2221,0.2221,0.2221,0.2221,0.2221,0.2154,0.2018,0.1951,0.1951,0.1748,0.1143,0.0605,0.1008,0.0336,-0.0538,0.0067,-0.0202,-0.0601,-0.0519,-0.0504,-0.0549,-0.0528,-0.0513,-0.0504,-0.0508,-0.0508,-0.0565,-0.0678,-0.0735,-0.0733,-0.0895,-0.0894,-0.1062,-0.151,-0.1621,-0.179,-0.224,-0.241,-0.2521,-0.2521,-0.2635,-0.2691,-0.2691,-0.2691,-0.2691,-0.2691,-0.2691,-0.2691,-0.2691,-0.2691,-0.2691,-0.2691,-0.2691,-0.2691,-0.2691,-0.2691,-0.2691,-0.2691,-0.2691,-0.2691,0.9835,0.9898,0.9834,0.9866,0.9919,0.9786,0.9196,0.0,0.8754,0.8055,0.7621,0.7328,0.7182,0.6355,0.5836,0.6198,0.5972,0.6256,0.7741,0.8419,0.9168,1.0209,0.0,0.0,1.1111,1.0742,1.0237,0.9656,0.8861,0.8208,0.7834,0.7611,0.7453,0.7187,0.712,0.6606,0.5728,0.5728,0.5297,0.4504,0.4514,0.4514,0.4509,0.463,0.4678,0.452,0.3916,0.3643,0.0,0.2544,0.2203,0.2221,0.2221,0.2221,0.2221,0.2221,0.2221,0.2221,0.2154,0.2154,0.2154,0.1951,0.1547,0.121,0.1277,0.1076,0.0941,0.1008,0.0941,0.0868,0.0845,0.0821,0.0791,0.0743,0.0731,0.0735,0.0758,0.0762,0.0586,0.0,-0.0059,-0.0232,-0.0787,-0.0894,-0.0894,-0.095,-0.1006,-0.1006,-0.1062,-0.1566,-0.1902,-0.1902,-0.2352,-0.2691,-0.2691,-0.2691,-0.2691,-0.2691,-0.2691,-0.2691,-0.2691,-0.2691,-0.2691,-0.2691,-0.2691,-0.2691,-0.2691,-0.2691,-0.2691,-0.2691,-0.2691,-0.2691,0.9271,0.931,0.945,0.9968,0.9867,0.9665,0.9649,0.9313,0.8845,0.8223,0.7961,0.7753,0.7405,0.693,0.6643,0.6765,0.6948,0.7454,0.8577,0.9395,1.0226,1.1188,1.1723,1.2124,0.0,0.0,1.0926,0.999,0.9331,0.8789,0.8454,0.8047,0.7667,0.7211,0.7133,0.6871,0.6423,0.6419,0.6283,0.5942,0.6037,0.6029,0.5949,0.6129,0.5902,0.5328,0.5122,0.4651,0.0,0.3301,0.2892,0.2753,0.2354,0.2221,0.2221,0.2221,0.2221,0.2221,0.2221,0.2221,0.2154,0.2087,0.1884,0.1614,0.1547,0.1344,0.121,0.121,0.1143,0.1073,0.1062,0.1037,0.1,0.0939,0.0925,0.0923,0.0917,0.0915,0.0801,0.0572,0.0515,0.0456,0.0224,0.0168,0.0056,-0.028,-0.0336,-0.0504,-0.0838,-0.1118,-0.1285,-0.1285,-0.2127,-0.2691,-0.2691,-0.2691,-0.2691,-0.2691,-0.2691,-0.2691,-0.2691,-0.2691,-0.2691,-0.2691,-0.2691,-0.2691,-0.2691,-0.2691,-0.2691,-0.2691,-0.2691,-0.2691,0.9212,0.9343,0.9616,1.036,1.0159,0.9787,0.9939,0.941,0.8723,0.8242,0.8126,0.8036,0.7663,0.7314,0.7208,0.0,0.7576,0.8118,0.9153,1.0009,1.084,1.1802,1.227,1.2738,1.3294,1.2414,1.1481,1.0651,1.0036,0.945,0.898,0.8513,0.7981,0.722,0.714,0.7011,0.6885,0.6881,0.6881,0.6885,0.7011,0.7007,0.6824,0.7074,0.6728,0.6004,0.5948,0.5499,0.0,0.405,0.3573,0.3151,0.2686,0.2354,0.2221,0.2221,0.2221,0.2221,0.2221,0.2221,0.2221,0.2221,0.2087,0.1951,0.1817,0.1614,0.1412,0.1412,0.1344,0.1275,0.1264,0.1172,0.1133,0.1074,0.1053,0.1042,0.1028,0.1024,0.1024,0.1024,0.1024,0.1021,0.1011,0.101,0.0898,0.0449,0.0336,0.0168,-0.028,-0.0503,-0.0615,-0.0559,-0.151,-0.2127,-0.2183,-0.2183,-0.2183,-0.2183,-0.2352,-0.2352,-0.2127,-0.2408,-0.2521,-0.2352,-0.2465,-0.2577,-0.2691,-0.2691,-0.2691,-0.2691,-0.2691,-0.2691,0.987,1.0432,1.0772,1.1199,1.0837,1.0323,0.9994,0.918,0.8389,0.8089,0.8021,0.8021,0.7979,0.744,0.7214,0.7863,0.7481,0.7617,0.9098,0.9843,1.0573,1.1461,1.2131,1.265,1.298,1.236,1.1921,1.1779,1.088,0.0,0.9346,0.899,0.8286,0.7213,0.7012,0.6885,0.6881,0.6881,0.6881,0.6881,0.6885,0.6815,0.6679,0.7072,0.7027,0.6635,0.6227,0.5849,0.0,0.4743,0.3917,0.3215,0.3215,0.2751,0.2221,0.2221,0.2221,0.2221,0.2221,0.2221,0.2221,0.2221,0.2221,0.2221,0.2221,0.1884,0.1614,0.1614,0.1614,0.1604,0.1624,0.1516,0.1472,0.1426,0.1323,0.1303,0.1404,0.1415,0.1415,0.1415,0.1415,0.1399,0.1298,0.1291,0.1291,0.129,0.1178,0.1066,0.1066,0.0449,0.0056,0.0168,-0.0336,-0.0782,-0.0894,-0.0894,-0.0894,-0.0894,-0.1454,-0.151,-0.0726,-0.1679,-0.2015,-0.1621,-0.2015,-0.2352,-0.2691,-0.2691,-0.2691,-0.2691,-0.2691,-0.2691,0.872,0.9068,0.9424,0.987,0.9711,0.9477,0.96,0.9041,0.8433,0.8196,0.8126,0.8077,0.7953,0.778,0.7859,0.8389,0.8341,0.0,0.9396,1.0044,1.0761,1.1494,1.2526,1.314,0.0,0.0,1.2465,1.1963,1.1349,1.0763,1.0124,0.9729,0.8865,0.7466,0.733,0.733,0.733,0.733,0.733,0.733,0.733,0.7265,0.7265,0.7197,0.7162,0.7047,0.6753,0.6523,0.0,0.5528,0.5005,0.468,0.4151,0.382,0.362,0.362,0.3286,0.2885,0.2885,0.2552,0.2221,0.2221,0.2221,0.2221,0.2221,0.2018,0.1749,0.1614,0.1614,0.1611,0.1597,0.1582,0.1554,0.1479,0.145,0.1427,0.1322,0.1312,0.1312,0.1312,0.1312,0.1307,0.1293,0.1291,0.1291,0.1291,0.129,0.1234,0.1234,0.101,0.0898,0.0954,0.0784,0.0336,-0.0503,-0.0559,-0.0559,-0.0559,-0.0726,-0.0726,-0.0503,-0.0782,-0.0894,-0.0782,-0.0894,-0.1006,-0.1118,-0.1118,-0.1174,-0.1342,-0.1454,-0.1472,0.8649,0.8931,0.9286,0.969,0.9448,0.9144,0.9391,0.8976,0.8535,0.8413,0.8373,0.8324,0.816,0.8028,0.8122,0.8667,0.8771,0.903,0.9687,1.036,1.1055,1.1831,1.2745,0.0,0.0,1.3119,1.3023,1.2614,1.2058,1.1525,1.0895,1.0373,0.9421,0.7912,0.7847,0.7782,0.7521,0.7521,0.7521,0.7521,0.7521,0.7456,0.7396,0.733,0.7199,0.7082,0.7002,0.0,0.0,0.6194,0.5836,0.5415,0.4882,0.4553,0.4287,0.4287,0.402,0.3618,0.3618,0.3353,0.3023,0.3023,0.282,0.2554,0.2287,0.2087,0.2018,0.1884,0.1817,0.1817,0.1817,0.1802,0.1767,0.1686,0.1652,0.1615,0.1533,0.1515,0.1515,0.1515,0.1515,0.1515,0.1515,0.1515,0.1515,0.1515,0.1459,0.1403,0.1403,0.1347,0.1347,0.1403,0.1403,0.1121,0.0503,0.0336,0.0224,0.0224,0.0,0.0056,0.0336,-0.0056,-0.0168,0.0,-0.0168,-0.028,-0.0391,-0.0391,-0.0447,-0.0614,-0.067,-0.0734,0.0,0.9638,0.9953,1.0276,0.9742,0.9144,0.9213,0.8956,0.0,0.8716,0.8716,0.8683,0.8553,0.8232,0.8167,0.8736,0.8848,0.9167,0.9936,1.0667,1.148,1.2475,1.2855,1.3045,1.3045,1.3316,1.3484,1.3462,1.2877,1.2233,1.158,1.0913,0.997,0.8678,0.8619,0.8231,0.7521,0.7521,0.7521,0.7521,0.7521,0.7396,0.7199,0.7396,0.7265,0.0,0.0,0.0,0.0,0.6745,0.6276,0.5683,0.5547,0.508,0.442,0.442,0.442,0.4353,0.4353,0.4353,0.4287,0.4287,0.3818,0.3151,0.2554,0.2287,0.2288,0.2221,0.2221,0.2288,0.2221,0.2175,0.2112,0.1986,0.1925,0.1865,0.1809,0.1797,0.1797,0.1797,0.1797,0.1797,0.1797,0.1797,0.1797,0.1797,0.1685,0.1628,0.1628,0.1459,0.1403,0.1572,0.1628,0.1685,0.1797,0.1515,0.1347,0.1347,0.0785,0.0842,0.1572,0.0673,0.0336,0.0783,0.0336,0.0,-0.0223,-0.0279,-0.0279,-0.0279,-0.0279,-0.0392,0.8336,0.0,0.8856,0.8906,0.8798,0.8601,0.0,0.8733,0.9079,0.8756,0.8958,0.9093,0.8919,0.8883,0.8993,0.923,0.9384,0.9543,0.9717,1.0719,1.1897,1.3126,1.3331,1.3382,1.3382,1.3448,1.3389,1.314,1.2745,1.2342,1.189,1.1518,1.0926,1.0034,0.9518,0.8683,0.7521,0.7521,0.7521,0.7521,0.7521,0.7456,0.7456,0.7461,0.7461,0.733,0.0,0.0,0.7138,0.6942,0.6679,0.6408,0.6408,0.621,0.5885,0.5885,0.5613,0.5147,0.5147,0.4749,0.4287,0.4287,0.4154,0.402,0.3887,0.342,0.2885,0.2354,0.2554,0.2818,0.2354,0.2175,0.2112,0.1986,0.1925,0.1865,0.1809,0.1797,0.1797,0.1797,0.1797,0.1797,0.1797,0.1797,0.1797,0.1797,0.1797,0.1741,0.1741,0.1685,0.1685,0.1741,0.1741,0.1741,0.1797,0.1741,0.1685,0.1685,0.1572,0.1572,0.1741,0.1515,0.1402,0.1514,0.1458,0.1346,0.1289,0.1177,0.1121,0.1121,0.0953,0.0922,0.8467,0.8553,0.8722,0.8696,0.8646,0.868,0.8881,0.929,0.9567,0.9399,0.0,0.9645,0.9732,0.9649,0.9644,0.9827,1.0124,1.0408,1.06,1.1383,1.2284,1.3297,1.3415,1.3482,0.0,1.3645,1.3432,1.3031,1.2701,1.238,1.205,1.1736,1.124,1.0548,1.0161,0.9454,0.8425,0.8102,0.8102,0.8425,0.8102,0.7972,0.7977,0.7652,0.7521,0.0,0.0,0.0,0.733,0.7138,0.7007,0.6937,0.6811,0.6745,0.6618,0.6618,0.6416,0.6079,0.6079,0.5815,0.5415,0.5147,0.5014,0.4948,0.4616,0.448,0.4278,0.342,0.342,0.3618,0.3288,0.3089,0.2872,0.2542,0.2405,0.2272,0.2199,0.202,0.1908,0.2184,0.1964,0.1797,0.1797,0.1797,0.1797,0.1797,0.1797,0.1797,0.1797,0.1797,0.1797,0.1797,0.1797,0.1797,0.1797,0.1797,0.1797,0.1797,0.1797,0.1797,0.1797,0.1797,0.1797,0.1797,0.1797,0.1797,0.1797,0.1741,0.1685,0.1685,0.1572,0.1558,0.8865,0.9062,0.9169,0.9111,0.9058,0.9169,0.9749,0.0,0.0,0.0,0.0,1.0232,1.0641,1.0442,1.0312,1.064,1.1054,1.1583,1.2183,1.2414,1.2729,1.334,1.3399,0.0,1.3618,1.3685,1.3502,1.2958,1.2628,1.2328,1.205,1.1799,1.1373,1.0737,1.0604,1.0351,0.9837,0.9069,0.8941,0.9518,0.8941,0.8619,0.849,0.7912,0.7587,0.7521,0.0,0.0,0.7456,0.733,0.7199,0.7204,0.7007,0.6946,0.6881,0.6881,0.6881,0.6881,0.6881,0.6881,0.6815,0.6207,0.6071,0.5939,0.5279,0.5543,0.5873,0.4948,0.4619,0.4486,0.4353,0.4194,0.3945,0.3283,0.3064,0.2909,0.2867,0.2462,0.2242,0.2738,0.2408,0.2076,0.2076,0.2076,0.202,0.1964,0.1964,0.1908,0.1797,0.1797,0.1797,0.1797,0.1797,0.1797,0.1797,0.1797,0.1797,0.1797,0.1797,0.1797,0.1797,0.1797,0.1797,0.1797,0.1797,0.1797,0.1797,0.1797,0.1797,0.1797,0.1797,0.1777,0.8497,0.9301,1.0025,0.96,0.9812,0.9974,0.9528,0.0,0.0,0.0,0.0,0.0,0.0,1.1122,1.1341,1.2049,1.2378,1.2866,1.3694,1.3511,1.3443,1.3842,0.0,1.3669,1.3036,1.3068,1.295,1.2621,1.2292,1.2022,1.1971,1.1855,1.174,1.1615,1.1038,1.0968,1.1421,1.0021,0.939,0.9518,0.939,0.9069,0.849,0.8425,0.8037,0.7521,0.0,0.7521,0.7521,0.7456,0.733,0.7204,0.7138,0.7073,0.6881,0.6881,0.6881,0.6881,0.6881,0.6881,0.6881,0.6811,0.6745,0.6745,0.6613,0.6679,0.6745,0.6548,0.6075,0.5474,0.4677,0.4449,0.4325,0.3837,0.3722,0.3603,0.3485,0.3405,0.335,0.3458,0.3405,0.335,0.335,0.335,0.3128,0.2627,0.2571,0.235,0.1853,0.1797,0.1797,0.1797,0.1797,0.1797,0.1797,0.1797,0.1797,0.1797,0.1797,0.1797,0.1797,0.1797,0.1797,0.1797,0.1797,0.1797,0.1797,0.1797,0.1797,0.1797,0.1797,0.1856,0.8378,0.9376,1.0328,1.0127,1.0596,1.1139,1.1176,1.1301,0.0,0.0,0.0,0.0,0.0,1.2109,1.2375,1.3241,1.3196,1.335,1.4153,1.4019,1.4005,0.0,0.0,1.4197,1.3659,1.3601,1.3209,1.2417,1.2254,1.2092,1.1914,1.1954,1.1934,1.1934,1.167,1.167,1.1934,1.117,1.073,1.0604,1.0225,0.9907,0.9582,0.8812,0.8361,0.8037,0.0,0.7521,0.7521,0.7521,0.7461,0.733,0.733,0.733,0.7199,0.7199,0.7199,0.7199,0.7199,0.7199,0.7199,0.7199,0.7199,0.7199,0.7199,0.7199,0.7199,0.7199,0.6872,0.6342,0.5943,0.5689,0.5423,0.4915,0.4607,0.4408,0.4206,0.3951,0.3764,0.403,0.3849,0.3624,0.3624,0.3624,0.3514,0.3236,0.3181,0.3072,0.2796,0.2796,0.2796,0.2796,0.2796,0.2796,0.2796,0.2796,0.2519,0.1853,0.1797,0.1797,0.1797,0.1797,0.1797,0.1797,0.1797,0.1797,0.1797,0.1797,0.1797,0.1797,0.1797,0.1842,0.8362,0.9378,1.0357,1.0534,0.0,1.1814,1.2483,1.229,0.0,0.0,0.0,0.0,0.0,1.3057,1.3344,1.4041,1.3978,1.4003,1.454,1.461,1.469,1.4821,1.4869,1.4702,1.4286,1.4063,1.3502,1.2526,1.2311,1.2142,1.1879,1.2058,1.2127,1.2127,1.2127,1.2127,1.2127,1.1934,1.1809,1.1685,1.1115,1.0737,1.0604,0.9512,0.9,0.8807,0.8296,0.8037,0.8037,0.7842,0.7782,0.7847,0.7587,0.7521,0.7521,0.7521,0.7521,0.7521,0.7521,0.7521,0.7521,0.7521,0.7521,0.7521,0.7521,0.7521,0.7521,0.7521,0.7265,0.7012,0.7012,0.6772,0.6455,0.5899,0.5538,0.5271,0.5013,0.4564,0.4295,0.4601,0.4294,0.4015,0.4015,0.4015,0.3959,0.3846,0.3846,0.379,0.3683,0.3627,0.3627,0.3627,0.3627,0.368,0.368,0.368,0.3292,0.2352,0.2298,0.2242,0.2242,0.2242,0.213,0.2018,0.213,0.2186,0.2076,0.2186,0.2186,0.2074,0.2018,0.1996,0.8449,0.9332,1.0215,1.0671,1.0965,1.1323,1.1989,1.1777,0.0,1.2172,0.0,0.0,0.0,1.3631,1.4231,1.4293,1.4818,1.5345,1.556,0.0,1.5682,1.54,1.5371,1.5032,1.427,1.3834,1.3375,1.2952,1.246,1.2088,1.2065,1.2182,1.2305,1.2305,1.2305,1.2305,1.2305,1.212,1.2058,1.2065,1.1809,1.1476,1.0954,1.0773,1.0332,0.9888,0.9703,0.9646,0.9576,0.8865,0.8748,0.8823,0.7847,0.7521,0.7521,0.7521,0.7521,0.7521,0.7521,0.7521,0.7521,0.7521,0.7521,0.7521,0.7521,0.7521,0.7521,0.7521,0.7461,0.7396,0.7199,0.719,0.7066,0.6691,0.6455,0.6224,0.5873,0.5616,0.5445,0.5278,0.5187,0.5187,0.5187,0.5187,0.5069,0.4673,0.4615,0.4398,0.3849,0.3796,0.3796,0.3796,0.3796,0.3849,0.3953,0.3953,0.395,0.3843,0.3738,0.363,0.363,0.3516,0.3181,0.2625,0.3181,0.3239,0.285,0.3239,0.3239,0.2794,0.2681,0.2389,0.8138,0.9109,1.0123,1.0323,1.1043,0.0,0.0,1.2446,1.25,1.301,1.3103,0.0,0.0,1.3641,1.3972,1.4262,1.4542,1.4862,1.5214,1.555,1.5726,1.5594,1.5864,1.5772,1.501,1.4708,1.4194,1.3268,1.3041,1.2957,1.2834,1.2691,1.2726,1.3017,1.2674,1.2498,1.2498,1.2305,1.2313,1.2436,1.212,1.1864,1.167,1.1149,1.0829,1.0577,1.0142,0.9894,0.9894,0.9512,0.9448,0.946,0.8941,0.8807,0.8935,0.8812,0.8748,0.8678,0.8296,0.8102,0.8037,0.7652,0.7521,0.7521,0.7521,0.7521,0.7521,0.7521,0.7521,0.7461,0.7396,0.7265,0.7181,0.7044,0.6836,0.6634,0.6437,0.6224,0.6028,0.5836,0.5708,0.5631,0.5631,0.5631,0.5572,0.5403,0.5399,0.5289,0.5073,0.5069,0.5069,0.5069,0.5069,0.5069,0.5124,0.5171,0.5222,0.5222,0.4395,0.3901,0.3901,0.3898,0.3732,0.3511,0.3732,0.3788,0.3566,0.3788,0.3732,0.3566,0.3511,0.3423,0.8168,0.9209,1.0339,1.0365,0.0,0.0,1.3005,1.3017,1.3006,1.3517,1.3716,1.38,1.361,0.0,0.0,1.4035,1.421,1.4417,1.4728,1.5183,1.5473,1.5473,1.5753,1.5772,1.5302,1.5,1.4478,1.3611,1.3411,1.3318,1.3251,1.2845,1.2821,1.3263,1.2687,1.2562,1.2858,1.244,1.2385,1.2748,1.2153,1.2034,1.2243,1.1552,1.1308,1.1301,1.0656,1.0492,1.0512,1.0269,1.0008,0.9837,0.9831,0.9831,0.9831,0.9703,0.9646,0.9518,0.9069,0.8877,0.8748,0.8296,0.8102,0.8102,0.8102,0.8102,0.8102,0.7847,0.7847,0.7847,0.7847,0.7591,0.7265,0.7265,0.7138,0.6959,0.6822,0.6568,0.6314,0.6111,0.5923,0.5795,0.5795,0.5795,0.5795,0.5845,0.5845,0.5845,0.5845,0.5845,0.5845,0.5845,0.5905,0.5905,0.5905,0.6009,0.6059,0.6059,0.5226,0.4673,0.4615,0.4618,0.4453,0.4284,0.4453,0.4508,0.4336,0.4508,0.4508,0.4336,0.4284,0.4174,0.8705,0.9722,1.0808,1.087,0.0,0.0,1.3553,1.3286,1.3062,1.3517,1.4046,1.4233,1.3716,1.4046,0.0,1.3668,1.4003,1.4304,1.4304,1.4697,1.4987,1.4987,1.4997,1.4997,1.4997,1.4387,1.4005,1.4005,1.3457,1.3132,1.3086,1.2584,1.2487,1.2804,1.2297,1.2476,1.3494,1.2535,1.2364,1.2986,1.1996,1.186,1.2536,1.2059,1.1894,1.1996,1.1498,1.1487,1.1724,1.1063,1.0506,1.0072,1.0382,1.0325,1.0015,1.0015,0.9958,0.9837,0.9837,0.9709,0.9518,0.9518,0.9518,0.9518,0.9518,0.9518,0.939,0.8683,0.849,0.849,0.849,0.8037,0.7521,0.7521,0.7396,0.7149,0.6958,0.6634,0.6373,0.6169,0.5978,0.5795,0.5795,0.5795,0.5845,0.6005,0.6,0.6,0.6,0.6,0.6,0.6,0.6119,0.6232,0.6232,0.6232,0.6232,0.6232,0.6228,0.6173,0.6,0.59,0.5513,0.4901,0.5513,0.5563,0.5109,0.5563,0.5563,0.5105,0.4952,0.4618,0.8797,0.9773,1.0893,1.0888,1.2173,0.0,0.0,1.3542,0.0,0.0,1.3999,1.381,1.361,1.3716,0.0,1.361,1.3734,1.3828,1.3828,1.4221,1.4511,1.4511,1.48,1.4997,1.4997,1.4829,1.4503,1.4058,1.3994,1.3903,1.3717,1.3293,1.3118,1.3139,1.2934,1.2763,1.2649,1.2707,1.2711,1.2479,1.2209,1.1995,1.1805,1.1636,1.1589,1.1638,1.1486,1.1502,1.1589,1.1261,1.1032,1.088,1.088,1.1004,1.1262,1.1134,1.1218,1.1358,1.0717,1.0458,1.0332,0.9703,0.9518,0.9518,0.9518,0.9518,0.9454,0.9262,0.9198,0.9198,0.9198,0.9069,0.8877,0.8877,0.8877,0.8745,0.8437,0.8188,0.7938,0.7648,0.74,0.7182,0.6761,0.6707,0.6603,0.6173,0.6119,0.6119,0.6119,0.6495,0.681,0.6912,0.6972,0.7182,0.7646,0.7599,0.7551,0.7551,0.745,0.7025,0.6173,0.6123,0.6009,0.5841,0.6009,0.6009,0.5891,0.6009,0.6009,0.5891,0.5841,0.5732,0.9693,1.0572,1.1574,1.2146,1.3248,1.4243,1.4305,0.0,0.0,0.0,1.4269,1.4129,1.3952,1.4082,0.0,1.3952,1.3752,1.3621,1.3621,1.3859,1.4035,1.4035,1.4283,1.4449,1.4449,1.4449,1.4287,1.386,1.3931,1.395,1.385,1.341,1.3215,1.3321,1.3065,1.2923,1.2968,1.2923,1.2735,1.2457,1.2102,1.1614,1.109,1.1233,1.1289,1.1289,1.1289,1.1289,1.1304,1.1343,1.1398,1.1341,1.1228,1.1402,1.1655,1.167,1.1796,1.1936,1.1556,1.1351,1.1226,1.0598,1.0408,1.0408,1.0345,1.0345,1.0281,0.997,0.9907,0.9907,0.9907,0.9964,0.9958,0.9582,0.9518,0.9382,0.9051,0.8843,0.8573,0.8271,0.8063,0.7818,0.745,0.7402,0.7295,0.6918,0.6869,0.6869,0.6869,0.7235,0.7597,0.7804,0.777,0.7907,0.8489,0.8293,0.8178,0.8178,0.8131,0.7759,0.7074,0.6918,0.6869,0.6869,0.6869,0.6869,0.6869,0.6869,0.6869,0.6869,0.6869,0.6869,1.0977,1.173,1.252,1.4001,1.4704,1.5284,1.6268,1.5073,1.3894,1.4419,0.0,1.4971,1.4558,1.4789,1.4971,1.4512,1.4035,1.3705,1.3668,1.3658,1.3668,1.3621,1.3621,1.3621,1.3621,1.3621,1.3621,1.3621,1.3621,1.3621,1.3621,1.316,1.2998,1.3357,1.2898,1.3077,1.3879,1.3086,1.2683,1.2716,1.182,1.1167,1.0632,1.091,1.1054,1.1108,1.1054,1.1054,1.1024,1.1328,1.14,1.14,1.14,1.1416,1.1487,1.1805,1.1846,1.183,1.2142,1.222,1.2058,1.1872,1.1802,1.1802,1.1685,1.1622,1.1498,1.08,1.0611,1.0611,1.0611,1.0766,1.0669,0.9857,0.9673,0.9599,0.9199,0.8985,0.8716,0.8403,0.8202,0.8031,0.7978,0.7978,0.7978,0.7925,0.7978,0.7978,0.7925,0.8103,0.8369,0.8743,0.8607,0.8663,0.9075,0.8736,0.8514,0.8495,0.8488,0.8435,0.8435,0.8131,0.7925,0.7925,0.7925,0.7925,0.7925,0.7925,0.7925,0.7925,0.7925,0.7925,1.0655,1.1282,1.2157,1.3959,1.4725,1.5316,1.6269,1.5623,1.4915,1.54,1.5277,1.5062,1.4971,1.5017,1.5062,1.4971,1.4834,1.4651,1.428,1.4233,1.4093,1.3668,1.3621,1.3621,1.3621,1.3621,1.3621,1.3621,1.3621,1.3621,1.3621,1.3515,1.3258,1.2959,1.3213,1.3253,1.3036,1.3263,1.3164,0.0,1.2559,1.2187,1.166,1.1353,1.1438,1.1784,1.1387,1.1243,1.12,1.0861,1.0737,1.0737,1.0737,1.086,1.1114,1.1185,1.1559,1.1968,1.1929,1.2079,1.2243,1.2058,1.2058,1.2058,1.1996,1.1872,1.174,1.1553,1.149,1.149,1.149,1.1417,1.1278,1.1097,1.0977,1.077,1.034,1.0031,0.9714,0.9351,0.9239,0.9086,0.8666,0.8718,0.8659,0.8283,0.8547,0.8606,0.8283,0.8904,0.9405,0.9631,0.9848,1.0113,1.0508,1.037,1.0166,0.9903,0.9725,0.9621,0.9621,0.8606,0.8078,0.8078,0.8078,0.8025,0.7925,0.8025,0.8025,0.7925,0.7925,0.7925,1.0709,1.1301,1.2087,1.4223,1.508,1.5623,1.6337,1.612,1.5856,1.6064,1.5756,1.5445,1.5445,1.5445,1.5445,1.5445,1.5322,1.5096,1.4869,1.4628,1.4351,1.4165,1.3847,1.3716,1.3716,1.3716,1.3668,1.3621,1.3621,1.3621,1.3621,1.3621,1.3467,1.3208,1.3467,1.3467,1.317,1.3467,1.3314,1.2812,1.2812,1.2667,1.2384,1.185,1.176,1.2008,1.176,1.1619,1.161,1.1309,1.1217,1.1217,1.1217,1.1336,1.1481,1.1703,1.2129,1.2632,1.2704,1.3017,1.3268,1.285,1.2666,1.2605,1.2243,1.2058,1.1934,1.1934,1.1934,1.1896,1.173,1.1798,1.1805,1.1577,1.1307,1.1053,1.0658,1.0394,1.0178,0.9844,0.9732,0.9621,0.9413,0.9413,0.9406,0.9138,0.9475,0.9674,0.9454,1.0002,1.055,1.0763,1.0906,1.1084,1.1431,1.113,1.0816,1.0627,1.041,1.0257,1.0257,0.9517,0.9086,0.9033,0.9033,0.8981,0.8883,0.8935,0.8883,0.883,0.8718,0.8718,1.0677,1.1621,1.2555,1.4582,1.552,1.602,1.6423,1.6522,1.6522,1.6522,1.6194,1.592,1.592,1.592,1.5932,1.5932,1.5712,1.5534,1.5433,1.505,1.4778,1.4698,1.4258,1.3952,1.3952,1.3858,1.381,1.38,1.3705,1.361,1.361,1.361,1.3621,1.3621,1.3621,1.3621,1.3621,1.3621,1.342,1.2967,1.2967,1.2967,1.2909,1.2491,1.2295,1.2246,1.2197,1.2147,1.2147,1.2058,1.2008,1.2008,1.2008,1.2008,1.2054,1.2447,1.2901,1.3368,1.3717,1.413,1.441,1.3752,1.3511,1.339,1.2728,1.2482,1.2421,1.2367,1.2305,1.2174,1.1759,1.1919,1.2142,1.1667,1.1411,1.1151,1.0809,1.0655,1.0493,1.0304,1.0095,1.0022,1.0127,1.0135,1.0157,1.0263,1.0501,1.0732,1.0732,1.1145,1.1579,1.1988,1.1813,1.1799,1.2083,1.1575,1.1196,1.1067,1.0889,1.0718,1.0624,1.0522,1.0368,1.0102,1.0051,1.0051,0.9999,0.9895,0.9851,0.9844,0.9725,0.9673,0.9874,1.2077,1.4205,1.4863,1.5721,1.6423,1.6479,1.6522,1.6522,1.6522,1.6436,1.6423,1.6423,1.6423,1.6436,1.6577,1.6534,1.6392,1.6027,1.5928,1.5576,1.4789,1.4514,1.4468,1.4571,1.4129,1.3999,1.4525,1.4082,1.3763,1.3763,1.3668,1.3621,1.3621,1.3716,1.3716,1.3621,1.3716,1.3668,1.3515,1.3515,1.3515,1.3515,1.342,1.3372,1.3372,1.2871,1.2667,1.2667,1.2197,1.2008,1.2008,1.2008,1.2008,1.2054,1.2531,1.2945,1.3368,1.3764,1.4179,1.4469,1.435,1.435,1.435,1.4231,1.4043,1.3795,1.3268,1.3147,1.3017,1.2366,1.2109,1.2016,1.1968,1.2143,1.2197,1.1742,1.1153,1.0853,1.1283,1.099,1.0653,1.0715,1.0593,1.0678,1.1193,1.1224,1.1255,1.136,1.1668,1.2139,1.2763,1.2609,1.2476,1.2444,1.2244,1.1868,1.1285,1.1586,1.161,1.1217,1.1175,1.0922,1.0419,1.0316,1.0162,0.9999,1.0162,1.0162,0.9999,0.9947,0.9895,0.9703,1.1369,1.2956,1.4021,1.4962,1.574,1.6034,1.6293,1.6522,1.662,1.662,1.662,1.662,1.662,1.6663,1.6791,1.6846,1.6833,1.6625,1.6398,1.6083,1.5744,1.5377,1.5141,1.5186,1.4709,1.449,1.4709,1.4433,1.4176,1.3821,1.3978,1.3967,1.3716,1.3773,1.3821,1.3821,1.3821,1.3716,1.3621,1.3668,1.3668,1.3621,1.3621,1.3621,1.3573,1.3362,1.3266,1.3218,1.2977,1.289,1.289,1.289,1.289,1.2929,1.3411,1.3854,1.4297,1.4785,1.5172,1.5478,1.5118,1.5001,1.4942,1.4588,1.4469,1.4341,1.4043,1.3983,1.376,1.2889,1.3042,1.3126,1.2164,1.2871,1.37,1.3645,1.2725,1.184,1.171,1.1584,1.1523,1.1747,1.1746,1.1971,1.2468,1.2655,1.2794,1.285,1.3188,1.3499,1.3794,1.3707,1.3672,1.362,1.3182,1.2725,1.2439,1.2154,1.1909,1.171,1.1719,1.156,1.136,1.0718,1.0368,1.0265,1.0265,1.0265,1.0162,1.0051,1.0154,0.9654,1.072,1.1771,1.3286,1.4427,1.5271,0.0,1.6194,1.6577,1.6675,1.6718,1.6761,1.6761,1.6761,1.6803,1.6918,1.696,1.7002,1.7044,1.6765,1.6539,1.6509,1.6051,1.5776,1.582,1.5377,1.5119,1.5152,1.5017,1.4744,1.4258,1.4422,1.4376,1.3988,1.3952,1.3915,1.3973,1.3868,1.3821,1.3716,1.3821,1.3773,1.3668,1.3668,1.361,1.3621,1.3621,1.3621,1.3621,1.3621,1.3621,1.3621,1.3621,1.3621,1.3683,1.4273,1.4707,1.508,1.5659,1.6094,1.6316,1.5836,1.5652,1.5594,1.5128,1.501,1.4942,1.4765,1.4706,1.4514,1.3629,1.3947,1.4191,1.2865,1.3766,1.4904,1.4897,1.3959,1.2893,1.2173,1.2104,1.2304,1.2647,1.2834,1.3115,1.3626,1.3969,1.4107,1.4107,1.4335,1.4529,1.4706,1.4588,1.4542,1.4615,1.4035,1.3633,1.353,1.295,1.2504,1.2404,1.2252,1.2147,1.2008,1.1259,1.0871,1.0871,1.0769,1.0718,1.0718,1.0557,1.0702,0.9563,1.0699,1.1837,1.3189,1.4614,1.5665,1.569,1.62,1.6675,1.6675,1.6803,1.6918,1.696,1.6918,1.6918,1.696,1.7002,1.7044,1.7157,1.7157,1.6989,1.6565,1.6367,1.6312,1.6423,1.5908,1.582,1.638,1.5864,1.5543,1.5499,1.5005,1.4606,1.4457,1.4305,1.4046,1.3821,1.3926,1.3973,1.3973,1.3973,1.3915,1.3773,1.3773,1.3716,1.3621,1.3621,1.3621,1.3621,1.3621,1.3621,1.3621,1.3621,1.3621,1.3724,1.4624,1.4976,1.5132,1.6032,1.6363,1.6374,1.6374,1.6327,1.6316,1.6316,1.6316,1.6202,1.5536,1.5352,1.5225,1.456,1.4451,1.446,1.4373,1.4904,1.5156,1.441,1.4234,1.3932,1.2856,1.2688,1.2878,1.3192,1.3385,1.3709,1.4492,1.4622,1.4641,1.4641,1.456,1.4706,1.5294,1.4824,1.4606,1.4834,1.47,1.4496,1.4194,1.4164,1.3952,1.3428,1.2988,1.253,1.1999,1.1959,1.1909,1.1909,1.1909,1.1909,1.1909,1.1909,1.1841,0.891,0.0,1.0654,1.1511,1.303,1.4418,1.4694,1.5674,1.662,1.6791,1.6876,1.696,1.7115,1.7044,1.7002,1.7115,1.7115,1.7157,1.7199,1.7199,1.7157,1.6989,1.6892,1.6892,1.6947,1.6497,1.6281,1.6466,1.6281,1.6008,1.5632,1.5688,1.5421,1.4801,1.4674,1.4455,1.4035,1.4186,1.415,1.402,1.4104,1.4057,1.3926,1.3821,1.3763,1.3716,1.3621,1.3621,1.3621,1.3621,1.3621,1.3621,1.3621,1.3621,1.3693,1.4324,1.4738,1.509,1.5722,1.6125,1.6384,1.6384,1.6384,1.6384,1.6384,1.6384,1.6327,1.6134,1.6019,1.5894,1.5235,1.542,1.572,1.572,1.5659,1.5618,1.5725,1.5038,1.4304,1.3942,1.395,1.4171,1.4592,1.4938,1.5399,1.5944,1.6036,1.6036,1.6036,1.5989,1.6056,1.6285,1.6114,1.6042,1.6115,1.5714,1.5413,1.5303,1.4945,1.4512,1.4053,1.3831,1.351,1.3035,1.3025,1.2686,1.2008,1.2008,1.2008,1.2008,1.2008,1.2138,0.8538,0.0,0.0,0.0,1.1895,1.3216,1.3828,1.5024,1.6103,1.6501,1.6789,1.7002,1.7157,1.7115,1.7115,1.7199,1.7199,1.7199,1.7199,1.7199,1.7199,1.7199,1.7199,1.7199,1.7199,1.6905,1.6723,1.6723,1.6723,0.0,1.617,1.6269,1.592,1.5006,1.4903,1.4777,1.4501,1.4605,1.4605,1.4593,1.4674,1.4582,1.4291,1.4233,1.4046,1.3868,1.3716,1.3668,1.3668,1.3668,1.3668,1.3716,1.3668,1.3668,1.372,1.4138,1.45,1.4852,1.5473,1.5998,1.6448,1.6482,1.6591,1.6761,1.6602,1.6488,1.6477,1.6477,1.6431,1.6316,1.6093,1.6218,1.6374,1.6227,1.5985,1.5857,1.6255,1.5437,1.4616,1.4763,1.4758,1.4829,1.5307,1.5839,1.6374,1.6789,1.6864,1.6864,1.6864,1.7022,1.7078,1.7078,1.7234,1.7346,1.7346,1.683,1.6482,1.6482,1.5785,1.5175,1.4704,1.4487,1.4146,1.3678,1.3621,1.3228,1.254,1.254,1.254,1.254,1.254,1.2735,0.0,0.0,0.0,0.0,0.0,0.0,1.3192,1.4224,1.5133,1.5798,1.6484,1.6967,1.7105,1.7146,1.716,1.7173,1.7186,1.7199,1.7199,1.7199,1.7199,1.7199,1.7199,1.7199,1.7199,1.7199,1.7199,1.7199,1.7199,1.7199,1.7199,1.6765,1.6076,1.5153,1.5006,1.4994,1.5108,1.5108,1.5367,1.5788,1.5788,1.5478,1.4903,1.4903,1.4593,1.402,1.3915,1.3858,1.3858,1.3821,1.3868,1.3973,1.3868,1.3821,1.3873,1.4177,1.4343,1.4478,1.5382,1.6073,1.6525,1.6626,1.7,1.739,1.6976,1.6751,1.6627,1.6627,1.6534,1.6534,1.709,1.6852,1.6393,1.5861,1.5849,1.5965,1.59,1.5319,1.4932,1.5329,1.5092,1.4921,1.538,1.6019,1.6602,1.6991,1.7067,1.7067,1.7067,1.7446,1.7722,1.7722,1.8201,1.8525,1.8525,1.8038,1.771,1.7722,1.6743,1.5967,1.5435,1.4877,1.4314,1.3852,1.3668,1.3621,1.3621,1.3621,1.3621,1.3621,1.3621,1.3621,0.8654,0.0,0.0,0.0,0.0,0.0,0.0,1.2606,1.3654,1.4524,1.4928,1.5298,1.5815,1.5931,1.6101,1.6545,1.695,1.7199,1.7199,1.7199,1.7199,1.7199,1.7199,1.7199,1.7199,1.7199,1.7199,0.0,1.7199,1.7199,1.7199,1.6765,1.625,1.5623,1.5567,1.54,1.5108,1.5445,1.5656,1.5788,1.5788,1.5534,1.5051,1.5299,1.5119,1.4686,1.4858,1.5017,1.5005,1.4176,1.3868,1.402,1.3973,1.3926,1.3984,1.441,1.4814,1.5202,1.5762,1.6337,1.6802,1.7201,1.7425,1.7546,1.75,1.7457,1.739,1.739,1.7301,1.7224,1.7272,1.7228,1.7001,1.6502,1.6592,1.6795,1.6734,1.6715,1.657,1.6135,1.6387,1.6683,1.683,1.73,1.7836,1.8363,1.8441,1.8441,1.8441,1.8548,1.8655,1.8655,1.8762,1.8869,1.8869,1.8578,1.8255,1.7897,1.7858,1.7241,1.5978,1.5818,1.5389,1.4461,1.3978,1.3716,1.3716,1.3668,1.3621,1.3621,1.3621,1.3621,0.0,0.0,0.0,0.0,0.0,0.0,1.1197,1.1957,1.2798,0.0,1.447,1.4863,1.5322,1.5424,1.5566,1.5957,1.6284,1.665,1.7133,1.7199,1.7199,1.7199,1.7199,1.7199,1.7199,1.7199,1.7199,1.7199,1.7199,1.7199,1.7199,1.6947,1.6595,1.6107,1.6107,1.5976,1.568,1.5932,1.6194,1.6355,1.6355,1.6151,1.568,1.5876,1.5744,1.5299,1.5421,1.5555,1.5632,1.488,1.4628,1.4731,1.4455,1.4466,1.4593,1.4628,1.49,1.5321,1.5845,1.635,1.6871,1.7243,1.765,1.8005,1.7595,1.776,1.8001,1.7523,1.7675,1.7885,1.7819,1.7674,1.744,1.687,1.68,1.6859,1.7036,1.763,1.7811,1.6911,1.7312,1.7721,1.7721,1.8143,1.859,1.8934,1.8987,1.8987,1.8987,1.9198,1.9344,1.9344,1.9552,1.972,1.972,1.9371,1.9044,1.8697,1.8697,1.8195,1.6991,1.6763,1.631,1.546,1.478,1.4351,1.4071,1.3752,1.3621,1.3621,1.3621,1.3621,0.9174,0.9391,0.0,0.0,0.9504,0.0,1.1212,1.1687,1.2171,0.0,1.4196,1.4674,1.4961,1.5062,1.5151,1.5291,1.5356,1.58,1.695,1.7107,1.7133,1.7186,1.7199,1.7199,1.7199,1.7199,1.7199,1.7199,1.7199,1.7199,1.7199,1.7199,1.6976,1.6522,1.6565,1.6552,1.6522,1.6565,1.6778,1.7199,1.7199,1.6947,1.6522,1.6552,1.6337,1.5876,1.582,1.5864,1.5964,1.582,1.5776,1.5744,1.522,1.5164,1.5389,1.4903,1.496,1.5347,1.5858,1.6405,1.6883,1.7063,1.7788,1.8462,1.7557,1.7924,1.841,1.7381,1.7847,1.8598,1.845,1.8153,1.7756,1.7148,1.6812,1.6715,1.7207,1.8228,1.882,1.7849,1.803,1.8394,1.8394,1.8766,1.9093,1.9198,1.9198,1.9198,1.9198,1.9604,1.9914,1.9914,2.0385,2.0712,2.0712,2.0233,1.985,1.9798,1.9396,1.8891,1.8232,1.7603,1.7039,1.6501,1.5794,1.5107,1.4503,1.3884,1.3621,1.3621,1.3658,1.3705,0.9589,0.9471,0.9612,0.9748,0.0,0.0,0.967,1.0026,1.0537,0.0,1.121,1.1572,1.236,1.2936,1.3487,1.4036,1.448,1.5186,1.6388,1.6558,1.6715,1.7146,1.7199,1.7199,1.7199,1.7199,1.7199,1.7199,1.7199,1.7199,1.7199,1.7199,1.6976,1.6522,1.6863,1.6892,1.6522,1.6863,1.7115,1.7199,1.7199,1.6947,1.6522,1.6892,1.6808,1.638,1.6765,1.6892,1.6934,1.6892,1.6454,1.5788,1.5656,1.5656,1.5744,1.602,1.6163,1.6318,1.6794,1.7016,1.7205,1.774,1.8055,1.8164,1.7972,1.8065,1.8141,1.7799,1.8532,1.9147,1.8134,1.8193,1.8285,1.7229,1.7708,1.8318,1.7997,1.9184,2.0148,1.9481,1.9421,1.9482,1.9482,1.9569,1.9811,2.0296,2.0398,2.0398,2.0398,2.0448,2.0562,2.0675,2.0712,2.0762,2.0838,2.0662,2.0334,1.985,2.0182,1.9661,1.8181,1.8056,1.7515,1.6513,1.5794,1.5107,1.4503,1.3884,1.3621,1.361,1.4046,1.4233,0.9877,0.9744,0.983,1.0196,0.0,0.0,0.0,1.0377,1.0553,1.1284,1.1251,1.1332,1.2041,1.2507,1.2864,1.3227,1.3827,1.4493,1.5369,1.5748,1.6049,1.6323,1.6349,1.6467,1.6767,1.6794,1.6911,1.7186,1.7199,1.7199,1.7199,1.7253,1.717,1.6863,1.7128,1.717,1.6863,1.7073,1.7199,1.7199,1.7199,1.7073,1.6863,1.7073,1.7073,1.6863,1.7115,1.7199,1.7199,1.7199,1.6934,1.6497,1.6238,1.6238,1.6411,1.6411,1.6522,1.6748,1.6989,1.7115,1.7167,1.7552,1.7852,1.8044,1.7753,1.7651,1.7779,1.8249,1.8613,1.8747,1.839,1.8371,1.8273,1.77,1.7822,1.8127,1.844,1.9185,1.9865,2.0165,2.0241,2.0233,2.0233,2.0233,2.0334,2.0649,2.0699,2.0699,2.0699,2.0699,2.0712,2.0775,2.0762,2.0712,2.0775,2.0762,2.0549,2.0283,2.0549,2.0306,1.9447,1.8811,1.7961,1.6759,1.6142,1.5688,1.5309,1.4744,1.4305,1.3999,1.4512,1.4605,0.0,0.0,0.0,0.0,0.0,1.0194,0.0,0.0,0.0,1.1841,1.1686,1.1588,0.0,0.0,0.0,1.2574,0.0,0.0,0.0,1.4589,0.0,1.5461,1.5487,1.5683,1.6166,1.6219,1.6494,1.7003,1.7083,1.7122,1.724,1.7337,1.7391,1.7282,1.7337,1.735,1.7253,1.7253,1.7253,1.7199,1.7199,1.7199,1.7199,1.7199,1.7199,1.7199,1.7199,1.7199,1.7199,1.7199,1.7199,1.7157,1.6778,1.682,1.6989,1.6625,1.668,1.696,1.7002,1.7044,1.7086,1.7157,1.7525,1.7839,1.7342,1.7199,1.7382,1.831,1.8349,1.8166,1.8493,1.8336,1.8074,1.7957,1.7721,1.7787,1.8702,1.9081,1.9525,2.0515,2.0699,2.0699,2.0699,2.0699,2.0699,2.0699,2.0712,2.0712,2.0699,2.0712,2.0762,2.0762,2.0712,2.0699,2.0762,2.0699,2.0699,2.0699,2.0699,2.0607,2.0371,1.9131,1.8046,1.7057,1.6625,1.6355,1.6157,1.5744,1.522,1.4558,1.5017,1.5051,0.0,0.0,0.0,0.0,1.0654,0.0,0.0,0.0,1.0375,1.0101,0.0,0.0,0.0,0.0,0.0,0.0,0.0,0.0,1.2269,1.2722,1.3687,1.5317,1.5487,1.5526,1.5591,1.5667,1.5916,1.6441,1.6613,1.6864,1.7337,1.7461,1.7475,1.7475,1.7475,1.7447,1.7363,1.7363,1.7308,1.7199,1.7199,1.7199,1.7199,1.7199,1.7199,1.7199,1.7199,1.7199,1.7199,1.7199,1.7199,1.7199,1.7157,1.7157,1.7157,1.7115,1.7115,1.7157,1.7157,1.7199,1.7199,1.7199,1.7251,1.729,1.7212,1.7199,1.7225,1.7356,1.7735,1.7996,1.7512,1.7748,1.797,1.7421,1.8022,1.8741,1.8872,1.9721,2.0555,2.0673,2.0699,2.0699,2.0699,2.0699,2.0699,2.0699,2.0775,2.0825,2.0712,2.0775,2.0888,2.0888,2.0762,2.0762,2.0888,2.0775,2.0699,2.0699,2.0699,2.024,1.9146,1.8009,1.7342,1.7157,1.6989,1.6723,1.6269,1.6436,1.6001,1.5017,1.549,1.57,0.0,0.0,0.0,0.0,0.0,0.0,1.0388,0.0,1.036,0.0,0.0,0.0,0.0,0.0,0.0,0.0,1.1812,0.0,0.0,0.0,1.2714,0.0,0.0,0.0,1.4912,1.5365,1.5667,1.5853,1.6283,1.6639,1.6863,1.7262,1.7516,1.7516,1.757,1.7556,1.7404,1.7404,1.735,1.7199,1.7199,1.7199,1.7199,1.7199,1.7199,1.7199,1.7199,1.7199,1.7199,1.7199,1.7199,1.7199,1.7199,1.7199,1.7199,1.7199,1.7199,1.7199,1.7199,1.7199,1.7199,1.7199,1.7199,1.7199,1.7199,1.7199,1.7199,1.7199,1.7382,1.7512,1.7264,1.7382,1.7512,1.7264,1.7839,1.8519,1.8832,1.9564,2.0355,2.0979,2.0898,2.0799,2.118,2.0947,2.0712,2.0775,2.0775,2.0775,2.0825,2.0775,2.0775,2.0775,2.0712,2.0712,2.0775,2.0712,2.0699,2.0699,2.0699,2.0283,1.9339,1.8578,1.7991,1.7609,1.7284,1.6989,1.6723,1.6833,1.662,1.6132,1.6207,1.6064,0.9848,0.0,0.0,0.0,0.0,0.0,0.0,0.0,0.0,0.0,0.0,0.0,0.0,0.0,0.0,0.0,0.0,1.153,0.0,1.1571,0.0,0.0,0.0,0.0,0.0,1.4862,1.5191,1.5312,0.0,1.6279,1.6559,1.7103,1.7451,1.7598,1.7706,1.7679,1.7487,1.7446,1.7419,1.7434,1.7282,1.7282,1.7352,1.724,1.7199,1.7199,1.7323,1.7352,1.7352,1.7516,1.7557,1.7557,1.7557,1.7557,1.7516,1.7282,1.7199,1.7199,1.7199,1.7199,1.7199,1.7199,1.7199,1.7199,1.7253,1.7253,1.7253,1.7282,1.7282,1.7282,1.7253,1.7323,1.7487,1.7633,1.8222,1.8896,1.949,2.0047,2.0657,2.1568,2.1264,2.1082,2.1568,2.1144,2.0825,2.1073,2.1059,2.1046,2.1207,2.118,2.1118,2.1068,2.1068,2.1068,2.1068,2.0983,2.0848,2.0699,2.0398,2.0061,1.969,1.9165,1.8591,1.7943,1.7613,1.7326,1.7044,1.7002,1.696,1.6918,1.6663,1.638,0.0,0.0,0.0,0.9934,0.0,0.0,0.0,0.0,1.033,0.0,0.0,0.0,0.0,0.0,0.0,0.0,0.0,0.0,0.0,0.0,0.0,0.0,0.0,0.0,0.0,1.3967,1.4259,0.0,1.5085,1.5703,1.6738,1.6923,1.7285,1.7868,1.7882,1.7842,1.7679,1.757,1.7679,1.7948,1.7434,1.7393,1.7747,1.7393,1.7199,1.724,1.7598,1.7787,1.7828,1.8266,1.8461,1.8461,1.8461,1.8461,1.8344,1.7516,1.7199,1.7199,1.7199,1.7199,1.7199,1.7199,1.7199,1.7199,1.735,1.7404,1.7404,1.7488,1.7475,1.7488,1.7391,1.7693,1.8139,1.8797,1.9614,2.0471,2.1326,2.1787,2.21,2.242,2.1969,2.1616,2.1746,2.1304,2.1023,2.152,2.1664,2.1841,2.2049,2.2175,2.2175,2.2081,2.2035,2.2035,2.2035,2.1636,2.118,2.0749,1.959,1.9211,1.9786,1.9224,1.8649,1.81,1.8074,1.7787,1.7199,1.7086,1.7002,1.7002,1.6803,1.6675,0.0,0.0,1.1196,1.0643,0.0,0.0,0.0,0.0,0.0,0.0,0.0,0.0,0.0,0.0,0.0,0.0,0.0,0.0,0.0,0.0,0.0,0.0,0.0,0.0,0.0,0.0,0.0,0.0,1.408,0.0,0.0,1.6604,1.7322,1.8266,1.8293,1.824,1.8095,1.833,1.8277,1.7988,1.8094,1.8159,1.8266,1.8108,1.8068,1.8068,1.8187,1.8266,1.8266,1.8422,1.85,1.85,1.85,1.85,1.8422,1.7828,1.7598,1.7598,1.7598,1.7598,1.7639,1.7948,1.7908,1.7801,1.8082,1.8028,1.7935,1.8198,1.8277,1.8277,1.8252,1.8717,1.9256,1.9468,2.033,2.1182,2.1468,2.192,2.236,2.2799,2.2526,2.2328,2.2785,2.242,2.203,2.1902,2.2016,2.2189,2.2314,2.2267,2.2128,2.2081,2.2081,2.2081,2.2081,2.1684,2.118,2.0749,2.0332,2.0201,2.0411,1.9812,1.942,1.9237,1.8832,1.8349,1.78,1.7757,1.7505,1.7115,1.696,1.6846,1.0947,1.1104,0.0,1.1064,1.1123,0.0,1.0564,0.0,0.0,0.0,0.0,0.0,0.0,0.0,0.0,0.0,0.0,0.0,0.0,1.1114,0.0,0.0,0.0,0.0,0.0,0.0,1.3422,1.3277,1.3819,0.0,0.0,0.0,1.7329,1.8679,1.8707,1.8669,1.8592,1.8793,1.8793,1.8525,1.8602,1.864,1.8717,1.8577,1.85,1.85,1.8669,1.8707,1.8731,1.886,1.8921,1.8921,1.8921,1.8921,1.8846,1.8266,1.7948,1.7828,1.7988,1.7948,1.7868,1.8383,1.8383,1.8266,1.8616,1.8549,1.8458,1.8741,1.8831,1.8874,1.9089,1.958,2.0186,2.0662,2.1405,2.2119,2.2424,2.2717,2.3009,2.3436,2.3143,2.2965,2.3406,2.3231,2.2875,2.2572,2.2603,2.274,2.292,2.277,2.2634,2.2634,2.2634,2.2543,2.242,2.1899,2.1415,2.0919,2.0906,2.0906,2.0871,2.0566,2.0284,2.0059,1.9501,1.8858,1.81,1.81,1.7787,1.7199,1.7115,1.696]}]]